BA558 / G-EUYM 7700 Squawk Report (17th of May, 2022)

Aircraft A320 Reg No. G-EUYM Age 10 years old
Model A320 Jet engines 2 First flight 15-07-11
Registered 05-08-11 Rollout N/A Delivered 05-08-11
Construction No. 4791 Line No. N/A Series 232
ADSHEX 406532 Airline name British Airways Owner N/A
Airfield based Heathrow~Gtr London~G First tracked N/A

Flight history for G-EUYM

Route Flight No Date Playback
Capodichino (NAP) - Heathrow (LHR) BA2613 2022-06-28 12:43:00
Heathrow (LHR) - Capodichino (NAP) BA2612 2022-06-27 21:40:00
Gibraltar (GIB) - Heathrow (LHR) BA491 2022-06-27 16:45:00
Heathrow (LHR) - Gibraltar (GIB) BA490 2022-06-27 14:09:00
Landvetter (GOT) - Heathrow (LHR) BA803 2022-06-27 10:43:00
Heathrow (LHR) - Landvetter (GOT) BA802 2022-06-27 06:37:00
Saint Exupery (LYS) - Heathrow (LHR) BA363 2022-06-26 22:02:00
Heathrow (LHR) - Saint Exupery (LYS) BA362 2022-06-26 16:37:00
Bologna (BLQ) - Heathrow (LHR) BA541 2022-06-26 12:39:00
Heathrow (LHR) - Bologna (BLQ) BA540 2022-06-26 10:09:00
Václav Havel Airport Prague (PRG) - Heathrow (LHR) BA857 2022-06-25 22:16:00
Heathrow (LHR) - Václav Havel Airport Prague (PRG) BA856 2022-06-25 20:30:00
Zagreb (ZAG) - Heathrow (LHR) BA849 2022-06-25 17:39:00
Heathrow (LHR) - Zagreb (ZAG) BA848 2022-06-25 14:21:00
Schwechat (VIE) - Heathrow (LHR) BA699 2022-06-25 08:17:00
Heathrow (LHR) - Schwechat (VIE) BA706 2022-06-24 21:24:00
Schwechat (VIE) - Heathrow (LHR) BA703 2022-06-24 17:34:00
Heathrow (LHR) - Schwechat (VIE) BA702 2022-06-24 14:10:00
Schwechat (VIE) - Heathrow (LHR) BA699 2022-06-24 11:48:00
Heathrow (LHR) - Schwechat (VIE) BA706 2022-06-23 20:56:00
Time Lat Lon Altitude Heading Speed Vertical Rate
2022-05-17 23:17:16 GMT 41.796078 12.243233 0 275 1 0
2022-05-17 23:17:09 GMT 41.796066 12.243289 0 275 1 0
2022-05-17 23:16:59 GMT 41.796066 12.243373 0 275 2 0
2022-05-17 23:16:49 GMT 41.796055 12.243528 0 275 5 0
2022-05-17 23:16:39 GMT 41.796021 12.243826 0 275 6 0
2022-05-17 23:16:28 GMT 41.795971 12.244167 0 241 7 0
2022-05-17 23:16:18 GMT 41.796146 12.244434 0 160 8 0
2022-05-17 23:16:08 GMT 41.796577 12.244231 0 160 11 0
2022-05-17 23:15:58 GMT 41.797054 12.243991 0 160 11 0
2022-05-17 23:15:48 GMT 41.797543 12.243763 0 160 11 0
2022-05-17 23:15:42 GMT 41.797798 12.243624 0 160 10 0
2022-05-17 23:15:37 GMT 41.797977 12.243529 0 177 10 0
2022-05-17 23:15:30 GMT 41.798336 12.243624 0 225 10 0
2022-05-17 23:15:27 GMT 41.798382 12.243688 0 225 11 0
2022-05-17 23:15:21 GMT 41.798630 12.243982 0 208 13 0
2022-05-17 23:15:17 GMT 41.798813 12.244103 0 222 13 0
2022-05-17 23:15:10 GMT 41.799080 12.244550 0 250 15 0
2022-05-17 23:15:07 GMT 41.799160 12.244806 0 250 15 0
2022-05-17 23:15:02 GMT 41.799290 12.245317 0 250 14 0
2022-05-17 23:14:56 GMT 41.799381 12.245668 0 250 14 0
2022-05-17 23:14:51 GMT 41.799511 12.246131 0 250 14 0
2022-05-17 23:14:46 GMT 41.799603 12.246479 0 250 14 0
2022-05-17 23:14:41 GMT 41.799721 12.246913 0 250 13 0
2022-05-17 23:14:38 GMT 41.799778 12.247121 0 250 13 0
2022-05-17 23:14:35 GMT 41.799831 12.247290 0 247 13 0
2022-05-17 23:14:29 GMT 41.800034 12.247792 0 205 12 0
2022-05-17 23:14:25 GMT 41.800175 12.247904 0 185 11 0
2022-05-17 23:14:20 GMT 41.800396 12.247904 0 177 11 0
2022-05-17 23:14:14 GMT 41.800724 12.247930 0 219 12 0
2022-05-17 23:14:07 GMT 41.800964 12.248287 0 250 16 0
2022-05-17 23:14:04 GMT 41.801044 12.248617 0 255 19 0
2022-05-17 23:13:55 GMT 41.801128 12.249676 0 275 20 0
2022-05-17 23:13:45 GMT 41.800987 12.250926 0 275 20 0
2022-05-17 23:13:37 GMT 41.800987 12.251864 0 255 20 0
2022-05-17 23:13:33 GMT 41.801090 12.252331 0 250 19 0
2022-05-17 23:13:28 GMT 41.801273 12.252986 0 250 20 0
2022-05-17 23:13:23 GMT 41.801384 12.253397 0 250 20 0
2022-05-17 23:13:20 GMT 41.801491 12.253796 0 250 21 0
2022-05-17 23:13:17 GMT 41.801582 12.254115 0 247 21 0
2022-05-17 23:13:14 GMT 41.801697 12.254547 0 250 22 0
2022-05-17 23:13:09 GMT 41.801857 12.255093 0 250 23 0
2022-05-17 23:13:04 GMT 41.802048 12.255792 0 250 24 0
2022-05-17 23:12:59 GMT 41.802235 12.256463 0 250 26 0
2022-05-17 23:12:54 GMT 41.802429 12.257200 0 250 26 0
2022-05-17 23:12:50 GMT 41.802658 12.257996 0 250 26 0
2022-05-17 23:12:42 GMT 41.802921 12.258970 0 250 25 0
2022-05-17 23:12:38 GMT 41.803097 12.259592 0 250 25 0
2022-05-17 23:12:33 GMT 41.803299 12.260336 0 250 25 0
2022-05-17 23:12:29 GMT 41.803444 12.260886 0 250 25 0
2022-05-17 23:12:22 GMT 41.803699 12.261788 0 250 24 0
2022-05-17 23:12:19 GMT 41.803841 12.262291 0 250 24 0
2022-05-17 23:12:13 GMT 41.804039 12.263010 0 250 24 0
2022-05-17 23:12:08 GMT 41.804222 12.263728 0 250 23 0
2022-05-17 23:12:03 GMT 41.804432 12.264456 0 250 24 0
2022-05-17 23:11:58 GMT 41.804619 12.265134 0 250 26 0
2022-05-17 23:11:48 GMT 41.805050 12.266714 0 250 25 0
2022-05-17 23:11:43 GMT 41.805222 12.267328 0 250 24 0
2022-05-17 23:11:36 GMT 41.805485 12.268311 0 250 23 0
2022-05-17 23:11:33 GMT 41.805588 12.268670 0 250 23 0
2022-05-17 23:11:28 GMT 41.805771 12.269317 0 250 22 0
2022-05-17 23:11:22 GMT 41.805954 12.269996 0 250 21 0
2022-05-17 23:11:18 GMT 41.806099 12.270547 0 250 20 0
2022-05-17 23:11:12 GMT 41.806263 12.271167 0 250 20 0
2022-05-17 23:11:08 GMT 41.806412 12.271681 0 250 19 0
2022-05-17 23:11:02 GMT 41.806572 12.272275 0 241 18 0
2022-05-17 23:10:57 GMT 41.806801 12.272727 0 219 17 0
2022-05-17 23:10:51 GMT 41.807133 12.273022 0 196 18 0
2022-05-17 23:10:48 GMT 41.807499 12.273149 0 188 20 0
2022-05-17 23:10:41 GMT 41.808029 12.273277 0 188 22 0
2022-05-17 23:10:37 GMT 41.808483 12.273373 0 188 23 0
2022-05-17 23:10:30 GMT 41.809193 12.273523 0 180 22 0
2022-05-17 23:10:27 GMT 41.809513 12.273508 0 168 22 0
2022-05-17 23:10:21 GMT 41.810066 12.273325 0 160 21 0
2022-05-17 23:10:17 GMT 41.810452 12.273150 0 163 23 0
2022-05-17 23:10:10 GMT 41.811081 12.272883 0 163 24 0
2022-05-17 23:10:07 GMT 41.811485 12.272719 0 163 24 0
2022-05-17 23:10:01 GMT 41.812111 12.272462 0 163 26 0
2022-05-17 23:09:56 GMT 41.812614 12.272240 0 163 27 0
2022-05-17 23:09:50 GMT 41.813324 12.271947 0 163 26 0
2022-05-17 23:09:46 GMT 41.813828 12.271744 0 163 25 0
2022-05-17 23:09:40 GMT 41.814407 12.271505 0 163 25 0
2022-05-17 23:09:36 GMT 41.814892 12.271292 0 163 24 0
2022-05-17 23:09:30 GMT 41.815464 12.271057 0 163 23 0
2022-05-17 23:09:25 GMT 41.815945 12.270855 0 163 22 0
2022-05-17 23:09:20 GMT 41.816456 12.270643 0 165 21 0
2022-05-17 23:09:16 GMT 41.816814 12.270531 0 171 21 0
2022-05-17 23:09:10 GMT 41.817410 12.270483 0 185 22 0
2022-05-17 23:09:06 GMT 41.817822 12.270558 0 191 21 0
2022-05-17 23:08:59 GMT 41.818451 12.270745 0 191 24 0
2022-05-17 23:08:56 GMT 41.818851 12.270870 0 191 26 0
2022-05-17 23:08:49 GMT 41.819595 12.271089 0 191 25 0
2022-05-17 23:08:45 GMT 41.819984 12.271214 0 191 24 0
2022-05-17 23:08:39 GMT 41.820648 12.271370 0 185 24 0
2022-05-17 23:08:29 GMT 41.821873 12.271370 0 171 29 0
2022-05-17 23:08:19 GMT 41.823299 12.270994 0 163 34 0
2022-05-17 23:08:08 GMT 41.824951 12.270323 0 163 44 0
2022-05-17 23:08:04 GMT 41.825813 12.269956 0 163 48 0
2022-05-17 23:07:58 GMT 41.827164 12.269397 0 163 53 0
2022-05-17 23:07:48 GMT 41.829769 12.268311 0 163 64 0
2022-05-17 23:07:41 GMT 41.831898 12.267421 0 163 80 0
2022-05-17 23:07:35 GMT 41.834541 12.266299 -100 162 101 -64
2022-05-17 23:07:24 GMT 41.839737 12.264113 -125 162 135 -192
2022-05-17 23:07:17 GMT 41.843628 12.262490 -75 163 136 -448
2022-05-17 23:07:13 GMT 41.846130 12.261509 -25 162 138 -640
2022-05-17 23:07:07 GMT 41.849899 12.259868 75 162 140 -704
2022-05-17 23:07:04 GMT 41.851959 12.258994 75 162 141 -704
2022-05-17 23:06:57 GMT 41.856094 12.257293 175 162 141 -768
2022-05-17 23:06:54 GMT 41.858143 12.256463 200 162 141 -768
2022-05-17 23:06:47 GMT 41.862518 12.254610 300 162 140 -640
2022-05-17 23:06:43 GMT 41.864456 12.253813 325 162 140 -640
2022-05-17 23:06:40 GMT 41.867020 12.252752 375 162 140 -640
2022-05-17 23:06:34 GMT 41.870865 12.251129 425 162 139 -704
2022-05-17 23:06:26 GMT 41.875134 12.249245 525 162 138 -704
2022-05-17 23:06:23 GMT 41.877228 12.248383 550 162 138 -704
2022-05-17 23:06:20 GMT 41.880066 12.247197 625 162 138 -704
2022-05-17 23:06:16 GMT 41.881325 12.246690 650 162 138 -704
2022-05-17 23:06:13 GMT 41.883327 12.245860 675 162 139 -768
2022-05-17 23:06:09 GMT 41.886108 12.244700 725 162 140 -768
2022-05-17 23:06:06 GMT 41.887527 12.244075 775 162 141 -768
2022-05-17 23:06:03 GMT 41.889610 12.243241 800 162 142 -768
2022-05-17 23:05:58 GMT 41.892883 12.241828 875 162 143 -832
2022-05-17 23:05:55 GMT 41.894642 12.241069 900 162 144 -832
2022-05-17 23:05:52 GMT 41.896221 12.240430 950 162 144 -768
2022-05-17 23:05:49 GMT 41.898548 12.239472 1,000 162 145 -768
2022-05-17 23:05:46 GMT 41.900551 12.238642 1,025 162 146 -704
2022-05-17 23:05:42 GMT 41.902695 12.237748 1,075 162 146 -768
2022-05-17 23:05:36 GMT 41.907303 12.235773 1,150 162 146 -768
2022-05-17 23:05:33 GMT 41.909073 12.235065 1,200 162 146 -704
2022-05-17 23:05:28 GMT 41.913120 12.233404 1,275 162 146 -704
2022-05-17 23:05:25 GMT 41.914032 12.232964 1,275 162 145 -640
2022-05-17 23:05:22 GMT 41.915775 12.232254 1,300 162 145 -640
2022-05-17 23:05:18 GMT 41.918659 12.231041 1,350 162 146 -640
2022-05-17 23:05:15 GMT 41.920338 12.230274 1,400 162 145 -704
2022-05-17 23:05:12 GMT 41.922501 12.229406 1,425 162 145 -704
2022-05-17 23:05:08 GMT 41.924900 12.228358 1,475 162 146 -704
2022-05-17 23:05:05 GMT 41.926903 12.227528 1,500 162 146 -768
2022-05-17 23:05:02 GMT 41.928818 12.226722 1,550 162 147 -768
2022-05-17 23:04:55 GMT 41.933372 12.224845 1,650 162 149 -960
2022-05-17 23:04:52 GMT 41.935501 12.223913 1,700 162 151 -1024
2022-05-17 23:04:47 GMT 41.938679 12.222546 1,775 162 151 -960
2022-05-17 23:04:44 GMT 41.940540 12.221779 1,825 162 152 -896
2022-05-17 23:04:41 GMT 41.942551 12.220917 1,875 162 153 -768
2022-05-17 23:04:38 GMT 41.945068 12.219918 1,925 162 158 -640
2022-05-17 23:04:35 GMT 41.946918 12.219160 1,950 162 159 -768
2022-05-17 23:04:32 GMT 41.949326 12.218108 2,000 162 160 -640
2022-05-17 23:04:24 GMT 41.954552 12.215967 2,075 162 164 -704
2022-05-17 23:04:21 GMT 41.956741 12.215049 2,125 162 166 -704
2022-05-17 23:04:18 GMT 41.960037 12.213676 2,175 162 168 -704
2022-05-17 23:04:13 GMT 41.962326 12.212739 2,200 162 170 -704
2022-05-17 23:04:10 GMT 41.964798 12.211678 2,250 162 173 -704
2022-05-17 23:04:07 GMT 41.967167 12.210665 2,275 162 176 -768
2022-05-17 23:04:03 GMT 41.970337 12.209369 2,325 162 178 -896
2022-05-17 23:04:00 GMT 41.972847 12.208238 2,375 162 179 -960
2022-05-17 23:03:56 GMT 41.975826 12.206960 2,450 162 179 -1024
2022-05-17 23:03:53 GMT 41.977982 12.206060 2,475 162 179 -1024
2022-05-17 23:03:50 GMT 41.980865 12.204874 2,550 162 179 -1088
2022-05-17 23:03:46 GMT 41.983692 12.203639 2,625 162 179 -1088
2022-05-17 23:03:43 GMT 41.986313 12.202565 2,675 162 179 -1088
2022-05-17 23:03:40 GMT 41.988693 12.201566 2,725 162 179 -1088
2022-05-17 23:03:33 GMT 41.994450 12.199168 2,850 162 179 -1024
2022-05-17 23:03:30 GMT 41.997253 12.198008 2,925 162 179 -1024
2022-05-17 23:03:23 GMT 42.002361 12.195782 3,025 162 179 -1024
2022-05-17 23:03:20 GMT 42.004364 12.194952 3,075 162 180 -1024
2022-05-17 23:03:13 GMT 42.009670 12.192716 3,200 162 181 -832
2022-05-17 23:03:10 GMT 42.012463 12.191503 3,225 162 182 -832
2022-05-17 23:03:06 GMT 42.015816 12.190098 3,275 162 183 -768
2022-05-17 23:03:03 GMT 42.020691 12.188020 3,325 162 184 -768
2022-05-17 23:03:00 GMT 42.020691 12.188020 3,350 162 185 -768
2022-05-17 23:02:56 GMT 42.024445 12.186460 3,400 163 186 -832
2022-05-17 23:02:53 GMT 42.026569 12.185626 3,475 163 187 -896
2022-05-17 23:02:50 GMT 42.029251 12.184587 3,500 163 188 -896
2022-05-17 23:02:43 GMT 42.034698 12.182402 3,600 163 192 -384
2022-05-17 23:02:40 GMT 42.037556 12.181219 3,600 163 193 -128
2022-05-17 23:02:33 GMT 42.043423 12.178856 3,650 163 196 -512
2022-05-17 23:02:30 GMT 42.046635 12.177578 3,675 163 195 -512
2022-05-17 23:02:26 GMT 42.050629 12.176035 3,725 164 195 -512
2022-05-17 23:02:22 GMT 42.052414 12.175348 3,750 164 195 -512
2022-05-17 23:02:19 GMT 42.055477 12.174193 3,750 164 196 -512
2022-05-17 23:02:12 GMT 42.061752 12.171915 3,825 165 195 -448
2022-05-17 23:02:09 GMT 42.064369 12.170999 3,850 166 196 -448
2022-05-17 23:02:05 GMT 42.068390 12.169855 3,875 169 196 -512
2022-05-17 23:02:02 GMT 42.070724 12.169356 3,900 172 196 -448
2022-05-17 23:01:59 GMT 42.073399 12.168891 3,925 175 196 -448
2022-05-17 23:01:52 GMT 42.079147 12.168544 3,975 183 199 -512
2022-05-17 23:01:49 GMT 42.082535 12.168669 4,000 183 199 -576
2022-05-17 23:01:41 GMT 42.089905 12.169106 4,075 183 198 -448
2022-05-17 23:01:38 GMT 42.092010 12.169231 4,100 183 198 -384
2022-05-17 23:01:33 GMT 42.096909 12.169543 4,125 183 198 -384
2022-05-17 23:01:29 GMT 42.101284 12.169849 4,150 183 200 -448
2022-05-17 23:01:25 GMT 42.104965 12.170043 4,200 183 201 -512
2022-05-17 23:01:21 GMT 42.108170 12.170230 4,225 183 202 -576
2022-05-17 23:01:18 GMT 42.110737 12.170424 4,250 183 203 -512
2022-05-17 23:01:14 GMT 42.114784 12.170616 4,275 181 205 -448
2022-05-17 23:01:11 GMT 42.117252 12.170616 4,325 179 206 -448
2022-05-17 23:01:08 GMT 42.120255 12.170604 4,325 178 207 -512
2022-05-17 23:01:04 GMT 42.124607 12.170297 4,375 173 210 -512
2022-05-17 23:01:01 GMT 42.127029 12.169977 4,400 172 211 -512
2022-05-17 23:00:58 GMT 42.130520 12.169402 4,425 172 212 -512
2022-05-17 23:00:49 GMT 42.138977 12.167858 4,550 172 218 -576
2022-05-17 23:00:44 GMT 42.144608 12.166797 4,575 172 219 -640
2022-05-17 23:00:41 GMT 42.147079 12.166360 4,600 172 220 -640
2022-05-17 23:00:37 GMT 42.150677 12.165698 4,625 172 221 -640
2022-05-17 23:00:34 GMT 42.155960 12.164737 4,700 172 223 -768
2022-05-17 23:00:31 GMT 42.157333 12.164484 4,700 172 224 -768
2022-05-17 23:00:28 GMT 42.160858 12.163800 5,250 172 248 -448
2022-05-17 23:00:22 GMT 42.166672 12.162739 4,850 172 226 -896
2022-05-17 23:00:19 GMT 42.169418 12.162240 4,875 172 226 -832
2022-05-17 23:00:13 GMT 42.175919 12.161054 4,975 172 228 -704
2022-05-17 23:00:09 GMT 42.180237 12.160268 5,000 172 230 -512
2022-05-17 23:00:06 GMT 42.183079 12.159757 5,250 172 248 -448
2022-05-17 23:00:00 GMT 42.189606 12.158557 5,100 172 235 -512
2022-05-17 22:59:57 GMT 42.192715 12.157969 5,100 172 236 -512
2022-05-17 22:59:50 GMT 42.200638 12.156497 5,250 172 248 -448
2022-05-17 22:59:47 GMT 42.204121 12.155861 5,175 172 242 -512
2022-05-17 22:59:39 GMT 42.211941 12.154392 5,225 172 246 -448
2022-05-17 22:59:36 GMT 42.215572 12.153689 5,250 172 248 -448
2022-05-17 22:59:29 GMT 42.227234 12.151566 5,325 172 253 -448
2022-05-17 22:59:26 GMT 42.227234 12.151566 5,400 172 255 -448
2022-05-17 22:59:22 GMT 42.232937 12.150496 5,375 172 257 -512
2022-05-17 22:59:19 GMT 42.235519 12.150005 5,425 172 259 -448
2022-05-17 22:59:16 GMT 42.239079 12.149346 5,425 172 260 -448
2022-05-17 22:59:09 GMT 42.247192 12.147820 5,500 172 265 -448
2022-05-17 22:59:06 GMT 42.251324 12.147046 5,500 172 267 -448
2022-05-17 22:59:00 GMT 42.262634 12.144939 5,550 172 271 -448
2022-05-17 22:58:57 GMT 42.262634 12.144939 5,575 171 272 -448
2022-05-17 22:58:50 GMT 42.274784 12.142703 5,625 172 279 -512
2022-05-17 22:58:47 GMT 42.274784 12.142703 5,650 172 278 -512
2022-05-17 22:58:37 GMT 42.288052 12.140212 5,750 172 285 -768
2022-05-17 22:58:29 GMT 42.298828 12.138207 5,875 172 289 -896
2022-05-17 22:58:26 GMT 42.301971 12.137657 5,900 172 290 -960
2022-05-17 22:58:19 GMT 42.311874 12.135835 6,100 172 292 -1280
2022-05-17 22:58:16 GMT 42.315380 12.135166 6,100 172 292 -1280
2022-05-17 22:58:12 GMT 42.321304 12.134087 6,200 172 292 -1280
2022-05-17 22:58:09 GMT 42.325153 12.133314 6,275 171 293 -1216
2022-05-17 22:58:06 GMT 42.328995 12.132652 6,300 171 293 -1216
2022-05-17 22:58:01 GMT 42.337189 12.131091 6,425 172 294 -1088
2022-05-17 22:57:56 GMT 42.343216 12.129992 6,500 172 294 -960
2022-05-17 22:57:53 GMT 42.346756 12.129289 6,550 172 294 -960
2022-05-17 22:57:50 GMT 42.350899 12.128523 6,600 172 294 -960
2022-05-17 22:57:46 GMT 42.356781 12.127471 6,675 172 294 -960
2022-05-17 22:57:41 GMT 42.365067 12.125910 6,775 172 295 -960
2022-05-17 22:57:36 GMT 42.370285 12.124974 6,825 172 295 -960
2022-05-17 22:57:30 GMT 42.378525 12.123413 6,925 172 296 -960
2022-05-17 22:57:26 GMT 42.387543 12.121728 7,000 172 296 -1024
2022-05-17 22:57:23 GMT 42.387543 12.121728 7,025 172 297 -1024
2022-05-17 22:57:20 GMT 42.392075 12.120916 7,100 172 298 -1024
2022-05-17 22:57:15 GMT 42.398193 12.119772 7,175 172 298 -1024
2022-05-17 22:57:12 GMT 42.401966 12.119070 7,225 172 299 -960
2022-05-17 22:57:05 GMT 42.412067 12.117217 7,325 172 299 -960
2022-05-17 22:57:02 GMT 42.415932 12.116515 7,375 172 299 -960
2022-05-17 22:56:58 GMT 42.421333 12.115557 7,450 172 299 -960
2022-05-17 22:56:55 GMT 42.426128 12.114662 7,500 172 299 -1024
2022-05-17 22:56:51 GMT 42.435608 12.112864 7,550 172 299 -1088
2022-05-17 22:56:48 GMT 42.435608 12.112864 7,625 172 300 -1216
2022-05-17 22:56:45 GMT 42.440186 12.112044 7,700 171 300 -1280
2022-05-17 22:56:34 GMT 42.454758 12.109297 7,925 172 300 -1216
2022-05-17 22:56:24 GMT 42.468933 12.106621 8,125 171 300 -1216
2022-05-17 22:56:19 GMT 42.476265 12.105209 8,225 171 300 -1216
2022-05-17 22:56:14 GMT 42.483059 12.103932 8,325 172 301 -1216
2022-05-17 22:56:09 GMT 42.490723 12.102502 8,450 172 302 -1216
2022-05-17 22:56:04 GMT 42.496746 12.101377 8,525 172 302 -1280
2022-05-17 22:55:54 GMT 42.510818 12.098756 8,750 172 304 -1344
2022-05-17 22:55:46 GMT 42.521698 12.096650 8,925 171 306 -1216
2022-05-17 22:55:43 GMT 42.525375 12.095947 8,975 171 307 -1152
2022-05-17 22:55:35 GMT 42.536549 12.093839 9,125 172 306 -896
2022-05-17 22:55:32 GMT 42.540691 12.093073 9,150 172 306 -832
2022-05-17 22:55:23 GMT 42.554005 12.090582 9,300 172 308 -896
2022-05-17 22:55:15 GMT 42.565365 12.088474 9,425 172 311 -960
2022-05-17 22:55:12 GMT 42.568771 12.087832 9,550 172 314 -960
2022-05-17 22:55:07 GMT 42.576675 12.086366 9,550 172 315 -960
2022-05-17 22:55:03 GMT 42.583145 12.085148 9,625 172 319 -960
2022-05-17 22:54:55 GMT 42.594227 12.083045 9,725 171 323 -960
2022-05-17 22:54:52 GMT 42.598743 12.082214 9,800 172 325 -1024
2022-05-17 22:54:45 GMT 42.609741 12.080154 9,900 172 328 -1024
2022-05-17 22:54:41 GMT 42.614849 12.079212 9,975 172 329 -1024
2022-05-17 22:54:35 GMT 42.624905 12.077296 10,075 172 333 -1024
2022-05-17 22:54:31 GMT 42.640594 12.074349 10,300 172 343 -1664
2022-05-17 22:54:24 GMT 42.640594 12.074349 10,275 172 338 -1152
2022-05-17 22:54:21 GMT 42.645573 12.073400 10,500 172 343 -1664
2022-05-17 22:54:12 GMT 42.661880 12.070292 10,575 172 343 -1664
2022-05-17 22:54:04 GMT 42.672501 12.068294 10,775 172 346 -1664
2022-05-17 22:54:00 GMT 42.678497 12.067233 10,875 172 346 -1664
2022-05-17 22:53:56 GMT 42.686680 12.065671 11,025 172 348 -1600
2022-05-17 22:53:51 GMT 42.693336 12.064457 11,125 172 349 -1472
2022-05-17 22:53:46 GMT 42.703205 12.062605 11,250 172 352 -1216
2022-05-17 22:53:41 GMT 42.709583 12.061391 11,325 171 355 -960
2022-05-17 22:53:33 GMT 42.722214 12.058993 11,525 172 360 -1024
2022-05-17 22:53:30 GMT 42.726620 12.058134 11,500 171 361 -1088
2022-05-17 22:53:23 GMT 42.739105 12.055747 11,775 172 366 -1792
2022-05-17 22:53:20 GMT 42.743454 12.054936 11,750 172 366 -2112
2022-05-17 22:53:13 GMT 42.756599 12.052449 14,925 172 375 -1856
2022-05-17 22:53:10 GMT 42.760941 12.051627 12,125 172 367 -1984
2022-05-17 22:53:03 GMT 42.773529 12.049255 14,925 172 375 -1856
2022-05-17 22:53:00 GMT 42.778564 12.048319 12,450 172 370 -1856
2022-05-17 22:52:53 GMT 42.790165 12.046126 12,650 172 372 -1728
2022-05-17 22:52:49 GMT 42.796913 12.044848 12,750 172 373 -1792
2022-05-17 22:52:42 GMT 42.807762 12.042804 14,925 172 375 -1984
2022-05-17 22:52:39 GMT 42.812988 12.041846 13,050 172 375 -2240
2022-05-17 22:52:32 GMT 42.825638 12.039446 13,350 172 374 -2624
2022-05-17 22:52:29 GMT 42.830383 12.038525 13,475 172 374 -2496
2022-05-17 22:52:25 GMT 42.838760 12.036928 13,650 171 375 -1792
2022-05-17 22:52:22 GMT 42.842491 12.036176 14,925 172 382 -2048
2022-05-17 22:52:19 GMT 42.856735 12.033495 13,875 171 377 -1856
2022-05-17 22:52:15 GMT 42.856735 12.033495 13,975 171 378 -1920
2022-05-17 22:52:12 GMT 42.860554 12.032710 14,025 171 378 -1920
2022-05-17 22:52:09 GMT 42.866318 12.031626 14,150 171 379 -1984
2022-05-17 22:52:05 GMT 42.871910 12.030552 14,350 172 380 -1920
2022-05-17 22:52:02 GMT 42.877731 12.029506 14,350 172 380 -1920
2022-05-17 22:51:58 GMT 42.883877 12.028329 14,475 172 381 -1920
2022-05-17 22:51:51 GMT 42.896255 12.026005 14,700 172 382 -1984
2022-05-17 22:51:48 GMT 42.901840 12.024919 14,800 172 382 -2048
2022-05-17 22:51:45 GMT 42.916229 12.022182 15,450 171 385 -1856
2022-05-17 22:51:40 GMT 42.916229 12.022182 15,075 171 384 -1984
2022-05-17 22:51:37 GMT 42.920929 12.021342 15,175 172 383 -2048
2022-05-17 22:51:31 GMT 42.937408 12.018127 15,400 171 385 -1856
2022-05-17 22:51:28 GMT 42.937408 12.018127 15,475 171 385 -1856
2022-05-17 22:51:21 GMT 42.950211 12.015708 15,750 171 387 -1984
2022-05-17 22:51:18 GMT 42.955811 12.014636 15,875 171 387 -2112
2022-05-17 22:51:14 GMT 42.961617 12.013484 15,875 171 387 -2112
2022-05-17 22:51:11 GMT 42.968170 12.012208 16,125 172 388 -2240
2022-05-17 22:51:08 GMT 42.973301 12.011261 16,150 172 388 -2304
2022-05-17 22:51:01 GMT 42.985886 12.008823 16,625 172 389 -2112
2022-05-17 22:50:55 GMT 43.003654 12.005506 17,000 172 390 -2048
2022-05-17 22:50:51 GMT 43.003654 12.005506 16,775 172 389 -2048
2022-05-17 22:50:47 GMT 43.009750 12.004329 16,900 172 390 -2048
2022-05-17 22:50:44 GMT 43.016144 12.003138 17,025 171 390 -2048
2022-05-17 22:50:40 GMT 43.028091 12.000839 17,175 171 391 -1984
2022-05-17 22:50:37 GMT 43.028091 12.000839 17,275 171 394 -1984
2022-05-17 22:50:34 GMT 43.034889 11.999555 17,375 171 392 -1920
2022-05-17 22:50:30 GMT 43.041733 11.998247 17,550 171 393 -1920
2022-05-17 22:50:27 GMT 43.046715 11.997266 17,575 171 394 -1984
2022-05-17 22:50:23 GMT 43.053085 11.996048 17,700 171 394 -2048
2022-05-17 22:50:20 GMT 43.061287 11.994455 17,850 172 395 -2176
2022-05-17 22:50:14 GMT 43.071304 11.992535 18,050 172 395 -2176
2022-05-17 22:50:10 GMT 43.084259 11.990044 18,225 172 396 -2048
2022-05-17 22:50:06 GMT 43.084259 11.990044 18,300 172 396 -2048
2022-05-17 22:50:03 GMT 43.090256 11.988894 18,400 172 396 -2048
2022-05-17 22:49:59 GMT 43.097946 11.987425 18,550 172 397 -2176
2022-05-17 22:49:56 GMT 43.107834 11.985573 18,700 172 397 -2240
2022-05-17 22:49:53 GMT 43.107834 11.985573 18,825 171 399 -1984
2022-05-17 22:49:50 GMT 43.114105 11.984359 18,875 172 398 -2240
2022-05-17 22:49:46 GMT 43.121105 11.983010 19,025 171 398 -2112
2022-05-17 22:49:43 GMT 43.126328 11.981996 19,125 171 399 -1984
2022-05-17 22:49:41 GMT 43.130043 11.981310 19,175 171 400 -1728
2022-05-17 22:49:37 GMT 43.139328 11.979505 19,325 171 401 -1600
2022-05-17 22:49:34 GMT 43.145172 11.978433 19,400 172 403 -1344
2022-05-17 22:49:31 GMT 43.147934 11.977908 19,450 172 404 -1280
2022-05-17 22:49:28 GMT 43.154114 11.976695 19,500 172 406 -1408
2022-05-17 22:49:24 GMT 43.160751 11.975417 19,600 172 407 -1472
2022-05-17 22:49:21 GMT 43.168213 11.974012 19,700 171 408 -1664
2022-05-17 22:49:17 GMT 43.174267 11.972874 19,775 172 409 -1792
2022-05-17 22:49:14 GMT 43.179947 11.971763 19,875 172 410 -1920
2022-05-17 22:49:11 GMT 43.185333 11.970754 20,000 172 411 -2048
2022-05-17 22:49:08 GMT 43.198383 11.968231 20,100 171 413 -1984
2022-05-17 22:49:05 GMT 43.198383 11.968231 20,200 171 413 -1856
2022-05-17 22:49:02 GMT 43.202618 11.967446 20,250 171 414 -1856
2022-05-17 22:48:59 GMT 43.209366 11.966155 20,375 171 415 -1920
2022-05-17 22:48:54 GMT 43.224426 11.963217 20,700 172 414 -2688
2022-05-17 22:48:51 GMT 43.224426 11.963217 20,775 172 413 -2816
2022-05-17 22:48:48 GMT 43.231853 11.961823 20,875 172 413 -2816
2022-05-17 22:48:42 GMT 43.241180 11.960087 22,700 170 409 -1792
2022-05-17 22:48:37 GMT 43.250656 11.958299 21,475 172 411 -2816
2022-05-17 22:48:32 GMT 43.265602 11.955414 21,600 171 410 -2944
2022-05-17 22:48:29 GMT 43.265602 11.955414 21,725 171 410 -2944
2022-05-17 22:48:26 GMT 43.270630 11.954368 21,850 171 409 -2880
2022-05-17 22:48:23 GMT 43.277428 11.953060 22,000 171 408 -2304
2022-05-17 22:48:21 GMT 43.280090 11.952486 22,075 171 408 -2304
2022-05-17 22:48:18 GMT 43.285622 11.951294 22,175 170 409 -1792
2022-05-17 22:48:14 GMT 43.298676 11.948015 22,325 168 411 -1472
2022-05-17 22:48:11 GMT 43.298676 11.948015 22,350 168 412 -1408
2022-05-17 22:48:06 GMT 43.314468 11.943161 22,500 166 415 -1408
2022-05-17 22:48:03 GMT 43.314468 11.943161 22,550 165 416 -1536
2022-05-17 22:47:56 GMT 43.330032 11.937561 22,975 165 418 -2048
2022-05-17 22:47:52 GMT 43.335159 11.935751 22,900 165 418 -2048
2022-05-17 22:47:46 GMT 43.346138 11.931806 23,150 165 419 -2112
2022-05-17 22:47:43 GMT 43.352562 11.929452 23,225 165 419 -2112
2022-05-17 22:47:38 GMT 43.361389 11.926234 23,375 165 421 -1984
2022-05-17 22:47:35 GMT 43.366974 11.924254 23,500 165 422 -1920
2022-05-17 22:47:32 GMT 43.371883 11.922455 23,625 165 422 -1920
2022-05-17 22:47:29 GMT 43.379059 11.919847 23,675 165 423 -1984
2022-05-17 22:47:26 GMT 43.384827 11.917803 23,825 165 423 -1984
2022-05-17 22:47:23 GMT 43.389771 11.916014 23,875 165 423 -1984
2022-05-17 22:47:21 GMT 43.395767 11.913842 24,000 165 424 -1920
2022-05-17 22:47:17 GMT 43.400482 11.912118 24,050 165 425 -1856
2022-05-17 22:47:13 GMT 43.409405 11.908918 24,200 165 427 -1664
2022-05-17 22:47:11 GMT 43.414013 11.907218 25,000 165 432 -1600
2022-05-17 22:47:05 GMT 43.423462 11.903814 24,425 165 430 -1472
2022-05-17 22:47:02 GMT 43.429420 11.901659 24,450 165 431 -1536
2022-05-17 22:47:00 GMT 43.433517 11.900155 24,525 165 432 -1792
2022-05-17 22:46:57 GMT 43.443619 11.896493 24,750 165 434 -1920
2022-05-17 22:46:51 GMT 43.450058 11.894169 24,775 165 434 -1920
2022-05-17 22:46:48 GMT 43.459309 11.890869 24,925 165 435 -1920
2022-05-17 22:46:44 GMT 43.464111 11.889123 25,000 165 436 -1920
2022-05-17 22:46:41 GMT 43.470013 11.887011 25,100 165 436 -1920
2022-05-17 22:46:39 GMT 43.472900 11.885930 25,175 165 444 -1792
2022-05-17 22:46:36 GMT 43.479492 11.883566 25,250 165 438 -1920
2022-05-17 22:46:33 GMT 43.485352 11.881458 25,350 165 438 -1856
2022-05-17 22:46:30 GMT 43.494049 11.878329 25,500 165 439 -1856
2022-05-17 22:46:26 GMT 43.498993 11.876476 25,575 165 440 -1920
2022-05-17 22:46:22 GMT 43.506958 11.873602 25,750 165 441 -1920
2022-05-17 22:46:19 GMT 43.518986 11.869223 25,825 165 444 -1792
2022-05-17 22:46:16 GMT 43.518986 11.869223 25,900 165 442 -1920
2022-05-17 22:46:12 GMT 43.526779 11.866448 26,050 165 443 -1792
2022-05-17 22:46:10 GMT 43.532673 11.864319 26,200 165 444 -1792
2022-05-17 22:46:07 GMT 43.539051 11.861965 26,200 165 445 -1792
2022-05-17 22:46:04 GMT 43.544174 11.860124 26,275 165 447 -1792
2022-05-17 22:46:01 GMT 43.549759 11.858080 26,350 165 447 -1792
2022-05-17 22:45:58 GMT 43.554691 11.856275 26,450 165 448 -1792
2022-05-17 22:45:54 GMT 43.565121 11.852482 26,600 165 449 -1728
2022-05-17 22:45:51 GMT 43.569637 11.850848 26,625 165 449 -1728
2022-05-17 22:45:48 GMT 43.574615 11.849016 26,725 165 451 -1728
2022-05-17 22:45:45 GMT 43.580383 11.846903 26,800 165 451 -1728
2022-05-17 22:45:41 GMT 43.589767 11.843517 26,950 165 454 -1664
2022-05-17 22:45:38 GMT 43.595753 11.841365 27,025 165 455 -1600
2022-05-17 22:45:33 GMT 43.610779 11.835916 27,225 165 457 -1664
2022-05-17 22:45:30 GMT 43.615723 11.834128 27,225 165 459 -1664
2022-05-17 22:45:28 GMT 43.615723 11.834128 27,300 165 459 -1664
2022-05-17 22:45:25 GMT 43.621902 11.831892 27,375 165 460 -1792
2022-05-17 22:45:21 GMT 43.632385 11.828060 27,550 165 461 -2176
2022-05-17 22:45:18 GMT 43.637192 11.826335 27,675 165 461 -2368
2022-05-17 22:45:15 GMT 43.642445 11.824428 27,750 165 461 -2496
2022-05-17 22:45:12 GMT 43.649460 11.821864 27,900 165 461 -2688
2022-05-17 22:45:08 GMT 43.663624 11.816711 28,125 165 460 -2816
2022-05-17 22:45:05 GMT 43.663624 11.816711 28,200 165 460 -2816
2022-05-17 22:45:02 GMT 43.670609 11.814135 28,375 165 460 -2688
2022-05-17 22:45:00 GMT 43.673679 11.812984 28,425 165 460 -2560
2022-05-17 22:44:55 GMT 43.684753 11.808961 28,650 165 460 -2176
2022-05-17 22:44:52 GMT 43.691418 11.806575 28,750 165 461 -1984
2022-05-17 22:44:46 GMT 43.701332 11.802913 28,925 165 462 -1728
2022-05-17 22:44:43 GMT 43.707779 11.800594 29,000 165 464 -1472
2022-05-17 22:44:40 GMT 43.714645 11.798074 29,100 165 466 -1536
2022-05-17 22:44:37 GMT 43.721165 11.795654 29,200 165 467 -1728
2022-05-17 22:44:33 GMT 43.729404 11.792646 29,300 165 468 -1984
2022-05-17 22:44:30 GMT 43.737923 11.789507 29,400 165 468 -2112
2022-05-17 22:44:26 GMT 43.744347 11.787218 29,525 165 469 -2304
2022-05-17 22:44:22 GMT 43.754288 11.783540 29,725 165 469 -2368
2022-05-17 22:44:19 GMT 43.758270 11.782134 29,875 165 469 -2368
2022-05-17 22:44:16 GMT 43.765854 11.779306 29,925 165 469 -2304
2022-05-17 22:44:13 GMT 43.772095 11.777024 30,025 165 470 -2176
2022-05-17 22:44:10 GMT 43.776188 11.775513 30,100 165 470 -2112
2022-05-17 22:44:07 GMT 43.785545 11.772112 30,250 165 471 -1920
2022-05-17 22:44:04 GMT 43.792389 11.769627 30,350 165 472 -1792
2022-05-17 22:44:00 GMT 43.802032 11.766102 30,475 165 474 -1728
2022-05-17 22:43:56 GMT 43.806839 11.764313 30,600 165 475 -1792
2022-05-17 22:43:53 GMT 43.813522 11.761886 30,650 165 476 -1792
2022-05-17 22:43:50 GMT 43.820412 11.759360 30,775 165 478 -1792
2022-05-17 22:43:47 GMT 43.831558 11.755243 30,900 165 480 -1728
2022-05-17 22:43:44 GMT 43.831558 11.755243 30,900 165 480 -1728
2022-05-17 22:43:41 GMT 43.840523 11.751971 31,025 165 481 -1792
2022-05-17 22:43:38 GMT 43.845200 11.750261 31,150 165 482 -1984
2022-05-17 22:43:35 GMT 43.852936 11.747387 31,200 165 483 -2048
2022-05-17 22:43:32 GMT 43.858292 11.745471 31,275 165 483 -2112
2022-05-17 22:43:29 GMT 43.867199 11.742227 31,450 165 484 -2240
2022-05-17 22:43:26 GMT 43.871246 11.740723 31,550 165 484 -2368
2022-05-17 22:43:23 GMT 43.879253 11.737780 31,725 165 485 -2432
2022-05-17 22:43:20 GMT 43.884613 11.735826 31,950 165 485 -2368
2022-05-17 22:43:17 GMT 43.893547 11.732548 31,950 165 486 -2304
2022-05-17 22:43:14 GMT 43.898201 11.730848 32,125 165 486 -2112
2022-05-17 22:43:11 GMT 43.904800 11.728416 32,125 165 486 -2112
2022-05-17 22:43:08 GMT 43.911377 11.726009 32,225 165 487 -2048
2022-05-17 22:43:05 GMT 43.917160 11.723945 32,300 165 488 -1920
2022-05-17 22:43:01 GMT 43.927597 11.720049 32,450 165 490 -1728
2022-05-17 22:42:58 GMT 43.933273 11.718005 32,525 165 491 -1600
2022-05-17 22:42:53 GMT 43.943588 11.714238 32,700 165 493 -1600
2022-05-17 22:42:50 GMT 43.951736 11.711230 32,750 165 494 -1728
2022-05-17 22:42:46 GMT 43.959091 11.708488 32,900 165 496 -2240
2022-05-17 22:42:43 GMT 43.965889 11.705998 33,000 165 496 -2560
2022-05-17 22:42:40 GMT 43.971817 11.703825 33,350 165 495 -3008
2022-05-17 22:42:38 GMT 43.978039 11.701486 33,225 165 495 -3392
2022-05-17 22:42:32 GMT 43.991730 11.696479 33,600 165 492 -3712
2022-05-17 22:42:29 GMT 43.996628 11.694627 33,750 165 491 -3712
2022-05-17 22:42:25 GMT 44.006901 11.690892 34,075 165 489 -3648
2022-05-17 22:42:22 GMT 44.011509 11.689192 34,150 165 489 -3584
2022-05-17 22:42:19 GMT 44.018921 11.686451 34,450 165 487 -3392
2022-05-17 22:42:16 GMT 44.030685 11.682108 34,700 165 486 -3072
2022-05-17 22:42:13 GMT 44.030685 11.682108 34,725 165 486 -3072
2022-05-17 22:42:10 GMT 44.044418 11.676998 34,975 165 485 -2944
2022-05-17 22:42:07 GMT 44.044418 11.676998 35,025 165 485 -2880
2022-05-17 22:42:03 GMT 44.053802 11.673548 35,200 165 485 -2688
2022-05-17 22:42:00 GMT 44.060028 11.671249 35,275 165 485 -2688
2022-05-17 22:41:56 GMT 44.067093 11.668658 35,425 165 485 -2624
2022-05-17 22:41:52 GMT 44.077744 11.664734 35,625 165 485 -2432
2022-05-17 22:41:49 GMT 44.082268 11.663034 35,700 165 485 -2432
2022-05-17 22:41:47 GMT 44.088646 11.660679 35,825 165 485 -2496
2022-05-17 22:41:43 GMT 44.104065 11.654961 36,050 165 484 -2560
2022-05-17 22:41:40 GMT 44.104065 11.654961 36,125 165 484 -2560
2022-05-17 22:41:35 GMT 44.114807 11.651001 36,325 165 484 -2368
2022-05-17 22:41:32 GMT 44.121185 11.648647 36,425 165 484 -2176
2022-05-17 22:41:29 GMT 44.127285 11.646358 36,500 165 484 -2048
2022-05-17 22:41:25 GMT 44.137527 11.642565 36,700 165 484 -1600
2022-05-17 22:41:22 GMT 44.141098 11.641292 36,700 165 484 -1600
2022-05-17 22:41:19 GMT 44.149910 11.637987 36,800 165 485 -1216
2022-05-17 22:41:16 GMT 44.164032 11.632733 36,900 164 486 -448
2022-05-17 22:41:13 GMT 44.164032 11.632733 36,900 164 486 -448
2022-05-17 22:41:10 GMT 44.169571 11.630689 36,925 164 486 -384
2022-05-17 22:41:08 GMT 44.174953 11.628701 36,950 165 487 -320
2022-05-17 22:41:04 GMT 44.181519 11.626282 36,950 165 487 0
2022-05-17 22:41:01 GMT 44.188175 11.623797 36,950 165 487 0
2022-05-17 22:40:58 GMT 44.194016 11.621619 36,950 162 486 0
2022-05-17 22:40:55 GMT 44.199627 11.619516 36,950 165 487 0
2022-05-17 22:40:51 GMT 44.209778 11.615764 36,950 165 487 0
2022-05-17 22:40:48 GMT 44.216248 11.613353 36,950 162 486 0
2022-05-17 22:40:45 GMT 44.221786 11.611343 36,950 165 487 0
2022-05-17 22:40:41 GMT 44.231049 11.607840 36,950 165 487 -64
2022-05-17 22:40:38 GMT 44.237846 11.605314 36,950 165 487 0
2022-05-17 22:40:35 GMT 44.243946 11.603103 36,950 164 486 0
2022-05-17 22:40:32 GMT 44.251766 11.600156 36,950 164 486 0
2022-05-17 22:40:28 GMT 44.259121 11.597409 36,950 164 486 0
2022-05-17 22:40:25 GMT 44.266022 11.594892 36,950 162 486 0
2022-05-17 22:40:22 GMT 44.272297 11.592519 36,950 164 486 0
2022-05-17 22:40:19 GMT 44.278702 11.590184 36,950 164 486 0
2022-05-17 22:40:17 GMT 44.283932 11.588165 36,950 164 486 0
2022-05-17 22:40:14 GMT 44.289322 11.585999 36,950 163 486 0
2022-05-17 22:40:11 GMT 44.296967 11.582925 36,950 163 485 0
2022-05-17 22:40:08 GMT 44.303440 11.580126 36,975 162 485 0
2022-05-17 22:40:05 GMT 44.320129 11.572593 36,950 161 486 0
2022-05-17 22:40:00 GMT 44.325439 11.570108 36,950 161 486 0
2022-05-17 22:39:57 GMT 44.325439 11.570108 36,950 161 487 0
2022-05-17 22:39:54 GMT 44.332031 11.567034 36,975 161 486 0
2022-05-17 22:39:51 GMT 44.339333 11.563579 36,975 161 486 0
2022-05-17 22:39:48 GMT 44.345707 11.560632 36,975 161 486 0
2022-05-17 22:39:45 GMT 44.352676 11.557356 36,975 161 487 0
2022-05-17 22:39:42 GMT 44.356926 11.555407 36,975 161 487 0
2022-05-17 22:39:39 GMT 44.364746 11.551722 36,975 161 487 0
2022-05-17 22:39:35 GMT 44.374603 11.547154 36,975 161 487 0
2022-05-17 22:39:32 GMT 44.379459 11.544822 36,975 161 486 0
2022-05-17 22:39:29 GMT 44.387054 11.541268 36,975 161 486 0
2022-05-17 22:39:25 GMT 44.394470 11.537803 36,975 161 486 0
2022-05-17 22:39:22 GMT 44.400879 11.534794 36,975 161 486 0
2022-05-17 22:39:18 GMT 44.408646 11.531156 36,975 161 487 0
2022-05-17 22:39:15 GMT 44.422577 11.524658 36,975 161 487 0
2022-05-17 22:39:12 GMT 44.422577 11.524658 36,975 161 487 0
2022-05-17 22:39:09 GMT 44.429920 11.521175 36,975 161 487 64
2022-05-17 22:39:04 GMT 44.444538 11.514342 36,975 161 487 0
2022-05-17 22:39:01 GMT 44.444538 11.514342 36,975 161 487 0
2022-05-17 22:38:58 GMT 44.450821 11.511383 36,975 161 487 0
2022-05-17 22:38:54 GMT 44.462219 11.506021 36,950 161 487 0
2022-05-17 22:38:51 GMT 44.466652 11.503958 36,950 161 487 0
2022-05-17 22:38:48 GMT 44.473160 11.500854 36,950 161 487 0
2022-05-17 22:38:44 GMT 44.483139 11.496211 36,950 161 487 0
2022-05-17 22:38:41 GMT 44.487534 11.494119 36,950 161 486 0
2022-05-17 22:38:38 GMT 44.494583 11.490849 36,950 161 486 64
2022-05-17 22:38:34 GMT 44.503738 11.486533 36,950 161 486 64
2022-05-17 22:38:31 GMT 44.510036 11.483526 36,950 161 486 64
2022-05-17 22:38:28 GMT 44.516323 11.480646 36,950 161 486 64
2022-05-17 22:38:24 GMT 44.525070 11.476462 36,950 161 486 0
2022-05-17 22:38:21 GMT 44.531219 11.473612 36,950 161 486 0
2022-05-17 22:38:18 GMT 44.536057 11.471296 36,950 161 486 0
2022-05-17 22:38:16 GMT 44.541786 11.468655 36,950 161 486 0
2022-05-17 22:38:13 GMT 44.548691 11.465345 36,950 161 486 0
2022-05-17 22:38:10 GMT 44.552914 11.463363 36,950 161 486 0
2022-05-17 22:38:07 GMT 44.559753 11.460147 36,950 161 486 0
2022-05-17 22:38:03 GMT 44.569950 11.455324 36,950 161 486 0
2022-05-17 22:38:00 GMT 44.576157 11.452397 36,950 161 486 -64
2022-05-17 22:37:56 GMT 44.582844 11.449228 36,950 161 486 0
2022-05-17 22:37:53 GMT 44.596485 11.442797 36,950 161 486 -64
2022-05-17 22:37:50 GMT 44.596485 11.442797 36,950 161 486 -64
2022-05-17 22:37:47 GMT 44.603703 11.439380 36,950 161 486 0
2022-05-17 22:37:43 GMT 44.618362 11.432386 36,950 161 485 -64
2022-05-17 22:37:40 GMT 44.623810 11.429801 36,950 161 485 0
2022-05-17 22:37:37 GMT 44.623810 11.429801 36,950 161 485 0
2022-05-17 22:37:33 GMT 44.632748 11.425580 36,950 161 485 64
2022-05-17 22:37:30 GMT 44.640152 11.422030 36,950 161 485 64
2022-05-17 22:37:27 GMT 44.645504 11.419484 36,950 161 485 64
2022-05-17 22:37:23 GMT 44.657051 11.414058 36,950 161 485 64
2022-05-17 22:37:20 GMT 44.661346 11.411983 36,925 161 485 64
2022-05-17 22:37:17 GMT 44.667709 11.408967 36,950 161 485 64
2022-05-17 22:37:13 GMT 44.676090 11.405014 36,925 161 485 0
2022-05-17 22:37:10 GMT 44.681721 11.402335 36,925 161 485 0
2022-05-17 22:37:07 GMT 44.688263 11.399231 36,925 161 485 0
2022-05-17 22:37:02 GMT 44.700203 11.393559 36,925 161 485 -64
2022-05-17 22:36:59 GMT 44.704674 11.391415 36,950 161 485 -64
2022-05-17 22:36:56 GMT 44.710648 11.388572 36,950 161 485 -64
2022-05-17 22:36:53 GMT 44.723713 11.382372 36,975 161 483 0
2022-05-17 22:36:50 GMT 44.723713 11.382372 36,950 161 484 -64
2022-05-17 22:36:47 GMT 44.731533 11.378687 36,950 161 484 -64
2022-05-17 22:36:42 GMT 44.742188 11.373596 36,950 161 484 -64
2022-05-17 22:36:39 GMT 44.748432 11.370649 36,950 161 484 -64
2022-05-17 22:36:36 GMT 44.753551 11.368237 36,950 161 484 -64
2022-05-17 22:36:32 GMT 44.763935 11.363347 36,950 161 483 0
2022-05-17 22:36:29 GMT 44.768967 11.360910 36,950 161 483 0
2022-05-17 22:36:26 GMT 44.775513 11.357771 36,950 161 483 0
2022-05-17 22:36:23 GMT 44.782879 11.354236 36,950 161 483 0
2022-05-17 22:36:20 GMT 44.789024 11.351356 36,950 161 483 0
2022-05-17 22:36:17 GMT 44.794006 11.348942 36,950 161 483 0
2022-05-17 22:36:12 GMT 44.811790 11.340503 36,950 161 483 0
2022-05-17 22:36:09 GMT 44.817749 11.337623 36,950 161 484 64
2022-05-17 22:36:06 GMT 44.817749 11.337623 36,950 161 484 64
2022-05-17 22:36:03 GMT 44.825684 11.333836 36,950 161 484 64
2022-05-17 22:36:00 GMT 44.832733 11.330436 36,950 161 484 64
2022-05-17 22:35:57 GMT 44.837036 11.328408 36,950 161 484 64
2022-05-17 22:35:55 GMT 44.841629 11.326234 36,950 161 484 64
2022-05-17 22:35:52 GMT 44.853313 11.320674 36,950 161 484 0
2022-05-17 22:35:49 GMT 44.853313 11.320674 36,950 161 484 0
2022-05-17 22:35:46 GMT 44.870865 11.312321 36,950 161 484 -64
2022-05-17 22:35:42 GMT 44.875240 11.310224 36,950 161 484 -64
2022-05-17 22:35:39 GMT 44.875240 11.310224 36,950 161 484 -64
2022-05-17 22:35:36 GMT 44.881618 11.307209 36,950 161 484 -64
2022-05-17 22:35:33 GMT 44.894440 11.301139 36,975 161 483 0
2022-05-17 22:35:30 GMT 44.894440 11.301139 36,950 161 483 0
2022-05-17 22:35:27 GMT 44.900528 11.298261 36,950 161 483 0
2022-05-17 22:35:25 GMT 44.904877 11.296169 36,950 161 483 0
2022-05-17 22:35:20 GMT 44.922630 11.287715 36,950 161 483 0
2022-05-17 22:35:16 GMT 44.922630 11.287715 36,950 161 483 0
2022-05-17 22:35:13 GMT 44.930283 11.284071 36,950 161 483 0
2022-05-17 22:35:10 GMT 44.938568 11.280082 36,950 161 483 0
2022-05-17 22:35:07 GMT 44.942825 11.278054 36,950 161 483 0
2022-05-17 22:35:05 GMT 44.947861 11.275700 36,950 161 483 0
2022-05-17 22:35:02 GMT 44.955544 11.271973 36,950 161 483 0
2022-05-17 22:34:58 GMT 44.967224 11.266349 36,950 161 483 0
2022-05-17 22:34:53 GMT 44.971436 11.264387 36,950 161 483 0
2022-05-17 22:34:50 GMT 44.980354 11.260048 36,950 161 483 0
2022-05-17 22:34:47 GMT 44.985672 11.257520 36,950 161 483 0
2022-05-17 22:34:44 GMT 44.991528 11.254689 36,950 161 483 -64
2022-05-17 22:34:40 GMT 44.999626 11.250804 36,950 161 483 -64
2022-05-17 22:34:37 GMT 45.007553 11.246992 36,950 161 483 0
2022-05-17 22:34:35 GMT 45.010429 11.245646 36,950 161 482 0
2022-05-17 22:34:32 GMT 45.016201 11.242832 36,950 161 482 0
2022-05-17 22:34:29 GMT 45.023602 11.239282 36,950 161 482 0
2022-05-17 22:34:26 GMT 45.029434 11.236529 36,950 161 482 0
2022-05-17 22:34:23 GMT 45.035019 11.233847 36,950 161 482 0
2022-05-17 22:34:20 GMT 45.042023 11.230512 36,950 161 482 0
2022-05-17 22:34:17 GMT 45.048294 11.227439 36,975 161 482 0
2022-05-17 22:34:14 GMT 45.057072 11.223271 36,950 161 482 64
2022-05-17 22:34:09 GMT 45.067932 11.218022 36,950 161 482 64
2022-05-17 22:34:06 GMT 45.072098 11.216060 36,950 161 482 64
2022-05-17 22:34:03 GMT 45.078579 11.212888 36,950 161 482 64
2022-05-17 22:34:00 GMT 45.083141 11.210744 36,950 161 482 64
2022-05-17 22:33:56 GMT 45.092285 11.206316 36,950 161 482 0
2022-05-17 22:33:54 GMT 45.096954 11.204027 36,950 161 482 0
2022-05-17 22:33:51 GMT 45.103298 11.201030 36,950 161 482 0
2022-05-17 22:33:46 GMT 45.115723 11.195003 36,950 161 482 0
2022-05-17 22:33:43 GMT 45.119919 11.192992 36,950 161 482 0
2022-05-17 22:33:40 GMT 45.125645 11.190245 36,950 161 482 0
2022-05-17 22:33:36 GMT 45.134445 11.185978 36,950 161 482 0
2022-05-17 22:33:33 GMT 45.141815 11.182447 36,950 161 482 0
2022-05-17 22:33:29 GMT 45.148407 11.179243 36,950 161 482 0
2022-05-17 22:33:26 GMT 45.162140 11.172638 36,950 161 482 64
2022-05-17 22:33:23 GMT 45.162140 11.172638 36,950 161 482 0
2022-05-17 22:33:20 GMT 45.167542 11.170014 36,925 161 482 0
2022-05-17 22:33:17 GMT 45.181320 11.163352 36,925 161 482 0
2022-05-17 22:33:14 GMT 45.181320 11.163352 36,925 161 481 0
2022-05-17 22:33:11 GMT 45.187592 11.160278 36,925 161 481 64
2022-05-17 22:33:08 GMT 45.192993 11.157663 36,925 161 481 64
2022-05-17 22:33:05 GMT 45.200455 11.154071 36,925 161 481 64
2022-05-17 22:33:02 GMT 45.212185 11.148443 36,925 161 481 64
2022-05-17 22:32:59 GMT 45.212185 11.148443 36,925 161 481 0
2022-05-17 22:32:56 GMT 45.221741 11.143799 36,925 161 481 0
2022-05-17 22:32:52 GMT 45.239777 11.135036 36,925 161 481 0
2022-05-17 22:32:48 GMT 45.239777 11.135036 36,925 161 481 -64
2022-05-17 22:32:45 GMT 45.244354 11.132835 36,925 161 481 -64
2022-05-17 22:32:42 GMT 45.250580 11.129870 36,925 161 481 -64
2022-05-17 22:32:39 GMT 45.256874 11.126806 36,950 161 481 -64
2022-05-17 22:32:35 GMT 45.263626 11.123526 36,950 161 480 -64
2022-05-17 22:32:32 GMT 45.270885 11.120040 36,950 161 480 -64
2022-05-17 22:32:29 GMT 45.277542 11.116856 36,950 161 480 -64
2022-05-17 22:32:26 GMT 45.283813 11.113783 36,950 161 480 -64
2022-05-17 22:32:23 GMT 45.289135 11.111197 36,950 161 480 0
2022-05-17 22:32:19 GMT 45.303616 11.104230 36,950 161 479 0
2022-05-17 22:32:16 GMT 45.303616 11.104230 36,950 161 479 0
2022-05-17 22:32:13 GMT 45.310089 11.101096 36,950 161 479 -64
2022-05-17 22:32:10 GMT 45.317825 11.097369 36,950 161 480 -64
2022-05-17 22:32:07 GMT 45.322815 11.094884 36,950 161 480 0
2022-05-17 22:32:04 GMT 45.328766 11.092006 36,950 161 480 0
2022-05-17 22:32:01 GMT 45.336712 11.088153 36,950 161 480 0
2022-05-17 22:31:58 GMT 45.343414 11.084870 36,950 161 480 0
2022-05-17 22:31:55 GMT 45.349594 11.081870 36,950 161 480 0
2022-05-17 22:31:52 GMT 45.353897 11.079777 36,950 161 480 0
2022-05-17 22:31:49 GMT 45.370930 11.071472 36,950 161 480 0
2022-05-17 22:31:45 GMT 45.375351 11.069328 36,950 161 480 0
2022-05-17 22:31:42 GMT 45.375351 11.069328 36,950 161 480 0
2022-05-17 22:31:38 GMT 45.383171 11.065510 36,950 161 480 0
2022-05-17 22:31:35 GMT 45.391113 11.061663 36,950 161 480 0
2022-05-17 22:31:32 GMT 45.394958 11.059766 36,950 161 480 0
2022-05-17 22:31:29 GMT 45.403423 11.055663 36,950 161 480 0
2022-05-17 22:31:26 GMT 45.409012 11.052965 36,950 161 480 0
2022-05-17 22:31:24 GMT 45.412994 11.051004 36,950 161 480 0
2022-05-17 22:31:21 GMT 45.418552 11.048294 36,975 161 480 0
2022-05-17 22:31:18 GMT 45.424835 11.045279 36,950 161 480 0
2022-05-17 22:31:15 GMT 45.432007 11.041729 36,975 161 480 0
2022-05-17 22:31:12 GMT 45.436478 11.039560 36,975 161 480 0
2022-05-17 22:31:09 GMT 45.443272 11.036303 36,975 161 480 0
2022-05-17 22:31:06 GMT 45.451401 11.032301 36,975 161 480 0
2022-05-17 22:31:02 GMT 45.466736 11.024846 36,950 161 480 0
2022-05-17 22:30:58 GMT 45.466736 11.024846 36,975 161 479 64
2022-05-17 22:30:55 GMT 45.479813 11.018483 36,950 161 479 0
2022-05-17 22:30:52 GMT 45.479813 11.018483 36,975 161 479 0
2022-05-17 22:30:48 GMT 45.491730 11.012722 36,950 161 481 0
2022-05-17 22:30:44 GMT 45.495529 11.010851 36,950 161 481 0
2022-05-17 22:30:41 GMT 45.502766 11.007363 36,950 161 481 0
2022-05-17 22:30:38 GMT 45.509792 11.003879 36,950 161 480 64
2022-05-17 22:30:34 GMT 45.516815 11.000453 36,975 161 480 64
2022-05-17 22:30:31 GMT 45.523247 10.997314 36,975 161 480 64
2022-05-17 22:30:28 GMT 45.531921 10.993064 36,975 161 480 0
2022-05-17 22:30:25 GMT 45.537872 10.990121 36,950 161 480 0
2022-05-17 22:30:21 GMT 45.544144 10.987047 36,975 161 480 64
2022-05-17 22:30:18 GMT 45.551514 10.983448 36,950 161 480 64
2022-05-17 22:30:15 GMT 45.556904 10.980835 36,950 161 480 64
2022-05-17 22:30:13 GMT 45.562721 10.977951 36,950 161 480 64
2022-05-17 22:30:10 GMT 45.569008 10.974861 36,950 161 480 0
2022-05-17 22:30:07 GMT 45.574905 10.971992 36,950 161 480 0
2022-05-17 22:30:04 GMT 45.580536 10.969246 36,950 161 480 0
2022-05-17 22:30:00 GMT 45.588867 10.965159 36,950 161 480 -64
2022-05-17 22:29:57 GMT 45.597359 10.960991 36,950 161 480 -64
2022-05-17 22:29:54 GMT 45.602806 10.958313 36,950 161 480 0
2022-05-17 22:29:51 GMT 45.610245 10.954642 36,950 160 479 0
2022-05-17 22:29:48 GMT 45.615326 10.952163 36,950 161 480 -128
2022-05-17 22:29:45 GMT 45.619812 10.949953 36,950 160 479 64
2022-05-17 22:29:43 GMT 45.632225 10.943893 36,950 160 479 64
2022-05-17 22:29:40 GMT 45.632225 10.943893 36,950 160 479 0
2022-05-17 22:29:37 GMT 45.638168 10.940976 36,950 160 479 -64
2022-05-17 22:29:33 GMT 45.646889 10.936615 36,950 160 479 -64
2022-05-17 22:29:30 GMT 45.652988 10.933662 36,950 160 479 0
2022-05-17 22:29:27 GMT 45.658401 10.930995 36,950 160 479 64
2022-05-17 22:29:24 GMT 45.664810 10.927846 36,950 160 479 64
2022-05-17 22:29:21 GMT 45.671051 10.924736 36,950 160 479 128
2022-05-17 22:29:18 GMT 45.677383 10.921646 36,950 161 480 -64
2022-05-17 22:29:15 GMT 45.687790 10.916525 36,950 161 480 -64
2022-05-17 22:29:13 GMT 45.687790 10.916525 36,950 161 480 -128
2022-05-17 22:29:10 GMT 45.700565 10.910248 36,950 161 480 -128
2022-05-17 22:29:07 GMT 45.700565 10.910248 36,950 161 480 -64
2022-05-17 22:29:04 GMT 45.708298 10.906476 36,950 160 479 64
2022-05-17 22:29:01 GMT 45.712994 10.904137 36,950 160 479 64
2022-05-17 22:28:58 GMT 45.718906 10.901253 36,950 160 479 0
2022-05-17 22:28:55 GMT 45.726654 10.897433 36,950 160 479 0
2022-05-17 22:28:51 GMT 45.736130 10.892743 36,950 160 479 0
2022-05-17 22:28:48 GMT 45.748001 10.886902 36,950 160 479 0
2022-05-17 22:28:45 GMT 45.748001 10.886902 36,950 160 479 0
2022-05-17 22:28:42 GMT 45.753708 10.884102 36,950 160 479 0
2022-05-17 22:28:39 GMT 45.757732 10.882095 36,950 160 479 0
2022-05-17 22:28:36 GMT 45.770920 10.875594 36,950 160 479 -64
2022-05-17 22:28:33 GMT 45.779377 10.871384 36,975 160 479 -64
2022-05-17 22:28:30 GMT 45.779377 10.871384 36,975 160 479 -64
2022-05-17 22:28:27 GMT 45.782822 10.869667 36,975 160 479 0
2022-05-17 22:28:24 GMT 45.790924 10.865685 36,975 160 479 0
2022-05-17 22:28:21 GMT 45.798477 10.861928 36,975 160 479 0
2022-05-17 22:28:18 GMT 45.804153 10.859181 36,975 160 479 0
2022-05-17 22:28:14 GMT 45.811386 10.855564 36,975 160 479 -64
2022-05-17 22:28:12 GMT 45.815826 10.853420 36,975 161 480 -128
2022-05-17 22:28:09 GMT 45.822235 10.850205 36,975 161 480 -128
2022-05-17 22:28:06 GMT 45.830818 10.845978 37,000 160 479 -64
2022-05-17 22:28:02 GMT 45.842834 10.840022 37,000 160 479 0
2022-05-17 22:27:59 GMT 45.842834 10.840022 37,000 160 479 64
2022-05-17 22:27:56 GMT 45.848648 10.837209 36,975 160 479 64
2022-05-17 22:27:53 GMT 45.855835 10.833658 36,975 160 480 0
2022-05-17 22:27:50 GMT 45.863403 10.829842 36,975 160 480 -64
2022-05-17 22:27:47 GMT 45.866570 10.828331 36,975 160 480 -64
2022-05-17 22:27:44 GMT 45.874100 10.824548 36,975 160 480 0
2022-05-17 22:27:41 GMT 45.881466 10.820915 37,000 160 480 0
2022-05-17 22:27:38 GMT 45.891800 10.815765 36,975 160 480 0
2022-05-17 22:27:35 GMT 45.891800 10.815765 36,975 160 480 0
2022-05-17 22:27:32 GMT 45.907196 10.808135 36,975 160 480 0
2022-05-17 22:27:29 GMT 45.907196 10.808135 36,975 160 480 0
2022-05-17 22:27:25 GMT 45.915634 10.803955 36,975 160 480 64
2022-05-17 22:27:22 GMT 45.921780 10.800934 36,975 160 480 64
2022-05-17 22:27:18 GMT 45.928299 10.797638 36,975 160 480 64
2022-05-17 22:27:15 GMT 45.934616 10.794536 36,975 160 480 64
2022-05-17 22:27:12 GMT 45.941940 10.790919 36,950 160 480 0
2022-05-17 22:27:09 GMT 45.953854 10.785004 36,950 160 480 0
2022-05-17 22:27:06 GMT 45.953854 10.785004 36,950 160 480 0
2022-05-17 22:27:03 GMT 45.958420 10.782746 36,950 160 480 64
2022-05-17 22:27:00 GMT 45.966476 10.778727 36,950 160 480 64
2022-05-17 22:26:57 GMT 45.971786 10.776047 36,950 160 480 64
2022-05-17 22:26:54 GMT 45.978390 10.772781 36,950 160 480 64
2022-05-17 22:26:50 GMT 45.998749 10.762649 36,925 160 480 128
2022-05-17 22:26:46 GMT 45.998749 10.762649 36,925 160 480 64
2022-05-17 22:26:43 GMT 46.008545 10.757759 36,925 160 481 64
2022-05-17 22:26:40 GMT 46.008545 10.757759 36,925 160 481 0
2022-05-17 22:26:37 GMT 46.013767 10.755135 36,925 160 481 0
2022-05-17 22:26:34 GMT 46.021179 10.751462 36,925 160 481 0
2022-05-17 22:26:31 GMT 46.027634 10.748246 36,925 160 480 64
2022-05-17 22:26:28 GMT 46.032993 10.745590 36,925 160 480 64
2022-05-17 22:26:25 GMT 46.042099 10.741078 36,925 160 480 128
2022-05-17 22:26:22 GMT 46.046356 10.738935 36,925 160 479 128
2022-05-17 22:26:19 GMT 46.053772 10.735250 36,925 160 479 64
2022-05-17 22:26:16 GMT 46.060272 10.731968 36,900 160 479 64
2022-05-17 22:26:12 GMT 46.065445 10.729422 36,900 160 480 0
2022-05-17 22:26:10 GMT 46.071678 10.726364 36,900 160 480 -64
2022-05-17 22:26:07 GMT 46.075871 10.724236 36,900 160 479 -64
2022-05-17 22:26:04 GMT 46.084576 10.719910 36,925 160 479 -64
2022-05-17 22:26:01 GMT 46.089787 10.717300 36,925 160 479 -64
2022-05-17 22:25:58 GMT 46.097305 10.713546 36,925 160 479 -64
2022-05-17 22:25:54 GMT 46.110363 10.707001 36,925 160 478 0
2022-05-17 22:25:51 GMT 46.110363 10.707001 36,925 160 477 0
2022-05-17 22:25:48 GMT 46.123627 10.700349 36,925 160 477 0
2022-05-17 22:25:45 GMT 46.123627 10.700349 36,925 160 476 0
2022-05-17 22:25:42 GMT 46.133827 10.695259 36,925 160 476 -64
2022-05-17 22:25:40 GMT 46.133827 10.695259 36,925 160 476 -64
2022-05-17 22:25:37 GMT 46.140244 10.692042 36,925 160 476 -64
2022-05-17 22:25:35 GMT 46.144455 10.689965 36,925 160 476 -64
2022-05-17 22:25:32 GMT 46.148758 10.687822 36,950 160 476 -64
2022-05-17 22:25:30 GMT 46.152969 10.685678 36,950 160 475 -64
2022-05-17 22:25:27 GMT 46.161152 10.681595 36,950 160 475 0
2022-05-17 22:25:23 GMT 46.168739 10.677818 36,950 160 475 0
2022-05-17 22:25:20 GMT 46.174622 10.674826 36,925 160 475 0
2022-05-17 22:25:17 GMT 46.180527 10.671878 36,925 160 475 0
2022-05-17 22:25:15 GMT 46.185638 10.669304 36,925 160 476 0
2022-05-17 22:25:12 GMT 46.193069 10.665581 36,925 160 476 0
2022-05-17 22:25:09 GMT 46.198288 10.662968 36,925 160 476 0
2022-05-17 22:25:06 GMT 46.203377 10.660378 36,925 160 476 64
2022-05-17 22:25:03 GMT 46.210732 10.656670 36,925 160 477 64
2022-05-17 22:25:00 GMT 46.216595 10.653717 36,925 160 477 0
2022-05-17 22:24:57 GMT 46.222321 10.650843 36,925 160 477 0
2022-05-17 22:24:55 GMT 46.227676 10.648164 36,925 160 477 0
2022-05-17 22:24:52 GMT 46.232620 10.645618 36,925 160 477 0
2022-05-17 22:24:49 GMT 46.245831 10.639023 36,925 160 478 -64
2022-05-17 22:24:46 GMT 46.245831 10.639023 36,950 160 477 -64
2022-05-17 22:24:43 GMT 46.252628 10.635590 36,925 160 478 -128
2022-05-17 22:24:40 GMT 46.259609 10.632088 36,950 160 477 -64
2022-05-17 22:24:36 GMT 46.266724 10.628536 36,950 160 477 -64
2022-05-17 22:24:33 GMT 46.273407 10.625119 36,950 160 476 0
2022-05-17 22:24:29 GMT 46.280548 10.621502 36,950 160 476 0
2022-05-17 22:24:26 GMT 46.288651 10.617415 36,950 160 476 64
2022-05-17 22:24:22 GMT 46.295364 10.614029 36,950 160 476 0
2022-05-17 22:24:19 GMT 46.302292 10.610582 36,950 160 476 0
2022-05-17 22:24:16 GMT 46.315472 10.603867 36,950 160 476 0
2022-05-17 22:24:13 GMT 46.315472 10.603867 36,950 160 477 0
2022-05-17 22:24:10 GMT 46.327927 10.597586 36,950 160 478 0
2022-05-17 22:24:07 GMT 46.327927 10.597586 36,950 160 478 0
2022-05-17 22:24:03 GMT 46.335629 10.593636 36,950 160 479 -64
2022-05-17 22:24:00 GMT 46.342102 10.590340 36,950 160 479 -64
2022-05-17 22:23:56 GMT 46.349121 10.586801 36,950 160 479 -64
2022-05-17 22:23:53 GMT 46.356171 10.583183 36,950 160 480 -64
2022-05-17 22:23:50 GMT 46.362396 10.580035 36,950 160 480 -64
2022-05-17 22:23:47 GMT 46.373108 10.574609 36,950 160 480 -64
2022-05-17 22:23:45 GMT 46.373108 10.574609 36,950 160 480 0
2022-05-17 22:23:42 GMT 46.379745 10.571259 36,950 160 480 0
2022-05-17 22:23:39 GMT 46.385880 10.568111 36,950 160 480 64
2022-05-17 22:23:36 GMT 46.393215 10.564384 36,950 160 480 64
2022-05-17 22:23:33 GMT 46.398567 10.561707 36,950 160 480 128
2022-05-17 22:23:30 GMT 46.405228 10.558342 36,950 160 480 128
2022-05-17 22:23:27 GMT 46.411606 10.555115 36,925 160 480 64
2022-05-17 22:23:24 GMT 46.416962 10.552368 36,925 160 480 64
2022-05-17 22:23:21 GMT 46.424404 10.548523 36,925 160 481 64
2022-05-17 22:23:18 GMT 46.428596 10.546394 36,925 160 481 64
2022-05-17 22:23:15 GMT 46.435547 10.542789 36,925 160 482 0
2022-05-17 22:23:12 GMT 46.444794 10.537949 36,925 159 482 -64
2022-05-17 22:23:08 GMT 46.450104 10.535065 36,925 157 482 -64
2022-05-17 22:23:05 GMT 46.456154 10.531631 36,950 156 483 -64
2022-05-17 22:23:02 GMT 46.463562 10.527113 36,950 156 483 -64
2022-05-17 22:22:59 GMT 46.469879 10.523027 36,950 155 483 -64
2022-05-17 22:22:56 GMT 46.474075 10.520233 36,950 154 483 -64
2022-05-17 22:22:54 GMT 46.484039 10.513229 36,950 152 483 -128
2022-05-17 22:22:51 GMT 46.484039 10.513229 36,950 152 483 -128
2022-05-17 22:22:47 GMT 46.499401 10.501213 36,975 150 484 -128
2022-05-17 22:22:44 GMT 46.499401 10.501213 36,975 150 484 -128
2022-05-17 22:22:41 GMT 46.503357 10.497849 36,975 147 484 -128
2022-05-17 22:22:39 GMT 46.509083 10.492905 37,000 147 484 -128
2022-05-17 22:22:36 GMT 46.513973 10.488510 37,000 147 484 -128
2022-05-17 22:22:34 GMT 46.517029 10.485713 37,000 142 486 0
2022-05-17 22:22:31 GMT 46.525658 10.477386 37,000 145 484 -64
2022-05-17 22:22:28 GMT 46.529480 10.473521 37,000 143 485 0
2022-05-17 22:22:25 GMT 46.534653 10.468095 37,000 143 485 0
2022-05-17 22:22:22 GMT 46.540554 10.461731 37,000 142 486 0
2022-05-17 22:22:19 GMT 46.547012 10.454429 37,000 140 486 0
2022-05-17 22:22:16 GMT 46.550282 10.450607 37,000 140 486 0
2022-05-17 22:22:14 GMT 46.553741 10.446457 37,000 139 486 0
2022-05-17 22:22:11 GMT 46.559826 10.438866 37,000 138 487 64
2022-05-17 22:22:08 GMT 46.563828 10.433716 37,000 136 488 0
2022-05-17 22:22:05 GMT 46.573380 10.420666 37,000 136 488 64
2022-05-17 22:22:02 GMT 46.573380 10.420666 37,000 135 488 64
2022-05-17 22:21:59 GMT 46.578400 10.413528 36,975 133 488 64
2022-05-17 22:21:56 GMT 46.583084 10.406531 36,975 132 489 64
2022-05-17 22:21:54 GMT 46.586151 10.401842 36,975 132 489 64
2022-05-17 22:21:51 GMT 46.592194 10.392129 36,975 131 488 128
2022-05-17 22:21:48 GMT 46.595810 10.386200 36,975 128 489 64
2022-05-17 22:21:45 GMT 46.600281 10.378510 36,975 128 489 64
2022-05-17 22:21:42 GMT 46.608101 10.364296 36,950 126 489 64
2022-05-17 22:21:39 GMT 46.613083 10.354752 36,950 126 489 64
2022-05-17 22:21:36 GMT 46.613083 10.354752 36,950 125 489 64
2022-05-17 22:21:33 GMT 46.616959 10.347044 36,950 124 489 64
2022-05-17 22:21:30 GMT 46.620296 10.340057 36,950 121 489 64
2022-05-17 22:21:27 GMT 46.623825 10.332508 36,950 123 488 64
2022-05-17 22:21:24 GMT 46.627747 10.323853 36,925 122 489 64
2022-05-17 22:21:20 GMT 46.633163 10.311406 36,925 121 488 64
2022-05-17 22:21:16 GMT 46.637848 10.300301 36,925 121 489 64
2022-05-17 22:21:13 GMT 46.641403 10.291912 36,925 121 489 0
2022-05-17 22:21:10 GMT 46.645477 10.282332 36,925 121 489 -64
2022-05-17 22:21:05 GMT 46.650230 10.271049 36,925 121 489 -64
2022-05-17 22:21:02 GMT 46.657726 10.253403 36,950 121 488 -128
2022-05-17 22:20:59 GMT 46.660843 10.246056 36,950 121 488 -128
2022-05-17 22:20:56 GMT 46.660843 10.246056 36,950 121 488 -128
2022-05-17 22:20:54 GMT 46.664009 10.238503 36,975 121 487 -64
2022-05-17 22:20:51 GMT 46.667130 10.231224 36,975 121 487 0
2022-05-17 22:20:48 GMT 46.671753 10.220166 36,975 121 487 0
2022-05-17 22:20:45 GMT 46.674179 10.214472 36,975 121 487 64
2022-05-17 22:20:42 GMT 46.679188 10.202660 36,975 121 487 64
2022-05-17 22:20:39 GMT 46.681465 10.197166 36,950 121 487 64
2022-05-17 22:20:35 GMT 46.686401 10.185532 36,950 121 487 0
2022-05-17 22:20:32 GMT 46.690079 10.176842 36,950 121 487 -64
2022-05-17 22:20:29 GMT 46.694046 10.167378 36,950 121 487 -64
2022-05-17 22:20:26 GMT 46.697575 10.159058 36,950 121 487 -64
2022-05-17 22:20:23 GMT 46.700043 10.153221 36,950 121 488 -64
2022-05-17 22:20:19 GMT 46.708233 10.133858 36,975 121 487 -64
2022-05-17 22:20:16 GMT 46.708233 10.133858 36,975 121 487 -64
2022-05-17 22:20:13 GMT 46.712082 10.124638 36,975 121 486 -64
2022-05-17 22:20:10 GMT 46.715309 10.117104 36,975 121 486 -64
2022-05-17 22:20:07 GMT 46.719734 10.106529 36,975 121 486 0
2022-05-17 22:20:04 GMT 46.722572 10.099800 36,975 121 486 0
2022-05-17 22:20:01 GMT 46.729042 10.084419 36,975 121 487 64
2022-05-17 22:19:58 GMT 46.733231 10.074530 36,975 121 487 64
2022-05-17 22:19:55 GMT 46.733231 10.074530 36,975 121 487 64
2022-05-17 22:19:52 GMT 46.736679 10.066154 36,975 121 487 64
2022-05-17 22:19:49 GMT 46.740005 10.058385 36,975 121 487 64
2022-05-17 22:19:46 GMT 46.743523 10.049950 36,950 121 488 64
2022-05-17 22:19:44 GMT 46.749481 10.035736 36,975 121 488 0
2022-05-17 22:19:41 GMT 46.749481 10.035736 36,950 121 488 0
2022-05-17 22:19:38 GMT 46.753063 10.027153 36,950 121 488 0
2022-05-17 22:19:35 GMT 46.757355 10.016986 36,950 121 488 0
2022-05-17 22:19:32 GMT 46.761566 10.006937 36,975 121 488 0
2022-05-17 22:19:29 GMT 46.763958 10.001266 36,950 121 488 0
2022-05-17 22:19:26 GMT 46.767822 9.991997 36,950 121 488 0
2022-05-17 22:19:23 GMT 46.774246 9.976792 36,950 121 488 64
2022-05-17 22:19:20 GMT 46.774246 9.976792 36,950 121 488 0
2022-05-17 22:19:17 GMT 46.777878 9.968033 36,950 121 488 0
2022-05-17 22:19:14 GMT 46.782211 9.957767 36,950 121 488 64
2022-05-17 22:19:11 GMT 46.784115 9.953270 36,950 121 488 64
2022-05-17 22:19:08 GMT 46.788895 9.941756 36,950 121 488 64
2022-05-17 22:19:05 GMT 46.791935 9.934525 36,950 121 488 64
2022-05-17 22:19:02 GMT 46.795567 9.925873 36,950 121 488 64
2022-05-17 22:18:58 GMT 46.799835 9.915630 36,950 121 487 0
2022-05-17 22:18:55 GMT 46.803806 9.906166 36,950 121 487 0
2022-05-17 22:18:52 GMT 46.807438 9.897377 36,950 121 487 0
2022-05-17 22:18:49 GMT 46.810913 9.889102 36,950 121 487 0
2022-05-17 22:18:46 GMT 46.814697 9.880005 36,950 121 487 0
2022-05-17 22:18:43 GMT 46.818054 9.872020 36,950 121 487 0
2022-05-17 22:18:40 GMT 46.822174 9.862105 36,950 121 487 0
2022-05-17 22:18:37 GMT 46.824554 9.856411 36,950 121 486 0
2022-05-17 22:18:34 GMT 46.832657 9.836984 36,950 121 486 0
2022-05-17 22:18:31 GMT 46.832657 9.836984 36,950 121 486 0
2022-05-17 22:18:28 GMT 46.835976 9.828987 36,950 121 486 0
2022-05-17 22:18:25 GMT 46.838440 9.823082 36,950 121 486 0
2022-05-17 22:18:22 GMT 46.845200 9.806973 36,950 121 486 0
2022-05-17 22:18:19 GMT 46.845200 9.806973 36,950 121 486 0
2022-05-17 22:18:15 GMT 46.850006 9.795383 36,950 121 486 0
2022-05-17 22:18:12 GMT 46.857010 9.778569 36,950 121 485 0
2022-05-17 22:18:09 GMT 46.857010 9.778569 36,950 121 485 0
2022-05-17 22:18:05 GMT 46.864651 9.760254 36,950 121 485 0
2022-05-17 22:18:03 GMT 46.864651 9.760254 36,950 121 486 0
2022-05-17 22:18:00 GMT 46.869305 9.749028 36,950 121 485 0
2022-05-17 22:17:57 GMT 46.871658 9.743431 36,950 121 485 0
2022-05-17 22:17:54 GMT 46.874680 9.736153 36,950 121 485 0
2022-05-17 22:17:51 GMT 46.878754 9.726402 36,950 121 485 0
2022-05-17 22:17:48 GMT 46.882141 9.718163 36,950 121 485 0
2022-05-17 22:17:45 GMT 46.884480 9.712548 36,950 121 485 0
2022-05-17 22:17:42 GMT 46.889183 9.701209 36,950 121 485 0
2022-05-17 22:17:39 GMT 46.895554 9.685822 36,950 121 485 0
2022-05-17 22:17:36 GMT 46.899261 9.676826 36,950 121 485 -64
2022-05-17 22:17:33 GMT 46.899261 9.676826 36,950 121 485 -64
2022-05-17 22:17:30 GMT 46.902683 9.668603 36,950 121 485 0
2022-05-17 22:17:27 GMT 46.906219 9.660072 36,950 121 485 0
2022-05-17 22:17:24 GMT 46.909195 9.652931 36,950 121 485 0
2022-05-17 22:17:21 GMT 46.913948 9.641418 36,950 121 485 0
2022-05-17 22:17:18 GMT 46.917480 9.632881 36,950 121 485 0
2022-05-17 22:17:14 GMT 46.921398 9.623390 36,950 121 486 64
2022-05-17 22:17:11 GMT 46.925030 9.614657 36,950 121 486 0
2022-05-17 22:17:08 GMT 46.927963 9.607544 36,950 121 486 0
2022-05-17 22:17:05 GMT 46.932175 9.597313 36,950 121 486 0
2022-05-17 22:17:02 GMT 46.935608 9.589005 36,950 121 486 0
2022-05-17 22:16:59 GMT 46.938435 9.582191 36,950 121 486 0
2022-05-17 22:16:56 GMT 46.943527 9.569778 36,950 121 486 64
2022-05-17 22:16:53 GMT 46.948837 9.556870 36,950 121 486 0
2022-05-17 22:16:50 GMT 46.948837 9.556870 36,950 121 486 0
2022-05-17 22:16:48 GMT 46.951630 9.550209 36,950 121 486 64
2022-05-17 22:16:45 GMT 46.955612 9.540527 36,950 121 486 64
2022-05-17 22:16:42 GMT 46.958221 9.534142 36,950 121 486 0
2022-05-17 22:16:39 GMT 46.963154 9.522259 36,950 121 486 0
2022-05-17 22:16:36 GMT 46.965637 9.516220 36,950 121 486 64
2022-05-17 22:16:34 GMT 46.967529 9.511625 36,950 121 486 0
2022-05-17 22:16:31 GMT 46.974468 9.494793 36,950 121 486 0
2022-05-17 22:16:28 GMT 46.974468 9.494793 36,950 121 486 0
2022-05-17 22:16:25 GMT 46.977951 9.486351 36,950 121 486 0
2022-05-17 22:16:22 GMT 46.982025 9.476463 36,950 121 486 -64
2022-05-17 22:16:19 GMT 46.985035 9.469229 36,950 121 486 -64
2022-05-17 22:16:16 GMT 46.989166 9.459160 36,950 121 486 -64
2022-05-17 22:16:14 GMT 46.991043 9.454559 36,950 121 485 -64
2022-05-17 22:16:11 GMT 46.994858 9.445355 36,950 121 485 -64
2022-05-17 22:16:08 GMT 46.998367 9.436775 36,950 121 485 -64
2022-05-17 22:16:05 GMT 47.002670 9.426338 36,975 121 485 -64
2022-05-17 22:16:02 GMT 47.008850 9.411301 36,975 121 485 -64
2022-05-17 22:15:59 GMT 47.008850 9.411301 36,975 120 484 0
2022-05-17 22:15:56 GMT 47.012268 9.403029 36,975 121 485 -64
2022-05-17 22:15:53 GMT 47.015293 9.395635 36,975 121 485 0
2022-05-17 22:15:50 GMT 47.018143 9.388710 36,975 121 485 0
2022-05-17 22:15:48 GMT 47.024094 9.374290 36,975 120 484 0
2022-05-17 22:15:45 GMT 47.024094 9.374290 36,975 120 484 0
2022-05-17 22:15:43 GMT 47.026371 9.368662 36,975 120 484 0
2022-05-17 22:15:40 GMT 47.029724 9.360492 36,975 120 484 0
2022-05-17 22:15:38 GMT 47.032471 9.353732 36,975 120 484 0
2022-05-17 22:15:35 GMT 47.036453 9.344147 36,975 120 484 0
2022-05-17 22:15:32 GMT 47.038879 9.338173 36,975 120 484 0
2022-05-17 22:15:29 GMT 47.042805 9.328590 36,975 120 484 0
2022-05-17 22:15:26 GMT 47.046158 9.320320 36,975 120 484 0
2022-05-17 22:15:24 GMT 47.047897 9.316063 36,975 120 484 0
2022-05-17 22:15:22 GMT 47.053757 9.301781 36,975 120 484 0
2022-05-17 22:15:19 GMT 47.053757 9.301781 36,975 120 484 0
2022-05-17 22:15:17 GMT 47.056679 9.294715 36,975 120 485 64
2022-05-17 22:15:14 GMT 47.060963 9.284152 36,950 120 485 64
2022-05-17 22:15:11 GMT 47.064777 9.274785 36,950 120 485 64
2022-05-17 22:15:08 GMT 47.067398 9.268410 36,950 120 485 64
2022-05-17 22:15:05 GMT 47.069733 9.262573 36,950 120 485 64
2022-05-17 22:15:03 GMT 47.076691 9.245544 36,950 120 485 0
2022-05-17 22:15:00 GMT 47.076691 9.245544 36,950 120 485 0
2022-05-17 22:14:57 GMT 47.079758 9.237991 36,950 120 485 0
2022-05-17 22:14:54 GMT 47.084381 9.226662 36,950 120 485 0
2022-05-17 22:14:49 GMT 47.088753 9.215910 36,950 120 485 0
2022-05-17 22:14:46 GMT 47.096386 9.197176 36,950 120 485 0
2022-05-17 22:14:43 GMT 47.096386 9.197176 36,950 120 485 0
2022-05-17 22:14:40 GMT 47.102509 9.182098 36,950 120 485 0
2022-05-17 22:14:37 GMT 47.102509 9.182098 36,925 120 485 0
2022-05-17 22:14:34 GMT 47.108398 9.167668 36,950 120 485 0
2022-05-17 22:14:32 GMT 47.108398 9.167668 36,950 120 485 0
2022-05-17 22:14:29 GMT 47.112259 9.158203 36,950 120 485 64
2022-05-17 22:14:26 GMT 47.118851 9.141930 36,925 120 484 0
2022-05-17 22:14:23 GMT 47.118851 9.141930 36,925 120 484 0
2022-05-17 22:14:20 GMT 47.121803 9.134639 36,925 120 484 0
2022-05-17 22:14:17 GMT 47.125389 9.125765 36,925 120 484 0
2022-05-17 22:14:14 GMT 47.128922 9.117073 36,925 120 483 0
2022-05-17 22:14:11 GMT 47.136143 9.099285 36,925 120 484 0
2022-05-17 22:14:08 GMT 47.138306 9.093933 36,925 120 484 0
2022-05-17 22:14:06 GMT 47.138306 9.093933 36,925 120 484 0
2022-05-17 22:14:03 GMT 47.142101 9.084637 36,925 120 483 0
2022-05-17 22:14:00 GMT 47.145035 9.077385 36,925 120 483 0
2022-05-17 22:13:58 GMT 47.147278 9.071823 36,925 120 483 0
2022-05-17 22:13:56 GMT 47.149658 9.066055 36,925 120 483 0
2022-05-17 22:13:54 GMT 47.151924 9.060411 36,925 120 483 0
2022-05-17 22:13:51 GMT 47.155426 9.051773 36,925 120 483 0
2022-05-17 22:13:48 GMT 47.159092 9.042664 36,925 120 483 0
2022-05-17 22:13:45 GMT 47.164993 9.028152 36,925 120 482 0
2022-05-17 22:13:42 GMT 47.164993 9.028152 36,925 120 482 0
2022-05-17 22:13:39 GMT 47.167877 9.021011 36,925 120 482 0
2022-05-17 22:13:37 GMT 47.170120 9.015450 36,950 120 482 0
2022-05-17 22:13:34 GMT 47.174469 9.004807 36,950 120 482 0
2022-05-17 22:13:31 GMT 47.178955 8.993614 36,950 120 482 0
2022-05-17 22:13:28 GMT 47.181393 8.987591 36,950 120 482 0
2022-05-17 22:13:25 GMT 47.184814 8.979126 36,950 120 482 0
2022-05-17 22:13:23 GMT 47.187607 8.972260 36,950 120 482 0
2022-05-17 22:13:20 GMT 47.194427 8.955437 36,950 120 482 0
2022-05-17 22:13:17 GMT 47.194427 8.955437 36,950 120 482 0
2022-05-17 22:13:14 GMT 47.196167 8.951042 36,950 120 482 0
2022-05-17 22:13:12 GMT 47.199501 8.942801 36,950 120 482 0
2022-05-17 22:13:09 GMT 47.202618 8.935124 36,950 120 482 -64
2022-05-17 22:13:06 GMT 47.206879 8.924469 36,950 120 482 -64
2022-05-17 22:13:02 GMT 47.211548 8.912933 36,950 120 481 -64
2022-05-17 22:12:59 GMT 47.213425 8.908195 36,950 120 481 -64
2022-05-17 22:12:57 GMT 47.216354 8.901054 36,950 120 481 -64
2022-05-17 22:12:55 GMT 47.218727 8.895052 36,950 120 481 -64
2022-05-17 22:12:53 GMT 47.220612 8.890411 36,950 120 481 -64
2022-05-17 22:12:51 GMT 47.226883 8.874825 36,975 120 481 -64
2022-05-17 22:12:48 GMT 47.226883 8.874825 36,975 120 481 -64
2022-05-17 22:12:46 GMT 47.230133 8.866671 36,975 120 482 -64
2022-05-17 22:12:43 GMT 47.232414 8.861037 36,975 120 482 -64
2022-05-17 22:12:40 GMT 47.239014 8.844612 36,975 120 482 -64
2022-05-17 22:12:37 GMT 47.239014 8.844612 36,975 120 482 -64
2022-05-17 22:12:34 GMT 47.247215 8.824205 36,975 120 481 -64
2022-05-17 22:12:30 GMT 47.247215 8.824205 36,975 120 481 0
2022-05-17 22:12:27 GMT 47.253799 8.807739 37,000 120 481 0
2022-05-17 22:12:24 GMT 47.253799 8.807739 37,000 120 482 0
2022-05-17 22:12:21 GMT 47.257141 8.799431 37,000 120 481 0
2022-05-17 22:12:18 GMT 47.260948 8.789978 36,975 120 482 0
2022-05-17 22:12:15 GMT 47.263927 8.782513 36,975 120 482 0
2022-05-17 22:12:13 GMT 47.265884 8.777664 36,975 120 482 0
2022-05-17 22:12:11 GMT 47.268814 8.770317 36,975 120 482 0
2022-05-17 22:12:07 GMT 47.276592 8.750962 36,975 120 482 64
2022-05-17 22:12:04 GMT 47.276592 8.750962 36,975 120 482 64
2022-05-17 22:12:01 GMT 47.280487 8.741272 36,975 120 483 64
2022-05-17 22:11:58 GMT 47.283279 8.734337 36,975 120 483 64
2022-05-17 22:11:55 GMT 47.286575 8.726097 36,975 120 483 64
2022-05-17 22:11:53 GMT 47.288742 8.720680 36,975 120 483 64
2022-05-17 22:11:49 GMT 47.293537 8.708707 36,975 120 483 0
2022-05-17 22:11:46 GMT 47.296886 8.700327 36,975 120 484 0
2022-05-17 22:11:44 GMT 47.299118 8.694855 36,975 120 484 64
2022-05-17 22:11:41 GMT 47.302505 8.686340 36,950 120 483 64
2022-05-17 22:11:38 GMT 47.306808 8.675560 36,950 120 483 64
2022-05-17 22:11:35 GMT 47.309875 8.667931 36,950 120 483 64
2022-05-17 22:11:32 GMT 47.312714 8.660748 36,950 120 484 64
2022-05-17 22:11:29 GMT 47.316254 8.651945 36,950 120 484 64
2022-05-17 22:11:27 GMT 47.318489 8.646311 36,950 120 484 64
2022-05-17 22:11:24 GMT 47.321365 8.639168 36,950 120 484 0
2022-05-17 22:11:21 GMT 47.326126 8.627220 36,950 120 484 0
2022-05-17 22:11:18 GMT 47.332035 8.612436 36,950 120 484 0
2022-05-17 22:11:15 GMT 47.332035 8.612436 36,950 120 484 0
2022-05-17 22:11:13 GMT 47.334457 8.606277 36,950 120 484 0
2022-05-17 22:11:11 GMT 47.336838 8.600372 36,950 120 484 0
2022-05-17 22:11:08 GMT 47.339722 8.593094 36,950 120 484 0
2022-05-17 22:11:05 GMT 47.345768 8.577928 36,950 120 484 0
2022-05-17 22:11:03 GMT 47.345768 8.577928 36,950 120 484 0
2022-05-17 22:11:01 GMT 47.347458 8.573662 36,950 120 483 0
2022-05-17 22:10:58 GMT 47.351532 8.563431 36,950 120 483 0
2022-05-17 22:10:55 GMT 47.354233 8.556702 36,950 120 483 0
2022-05-17 22:10:53 GMT 47.361832 8.537613 36,950 120 483 0
2022-05-17 22:10:49 GMT 47.361832 8.537613 36,950 120 483 0
2022-05-17 22:10:47 GMT 47.367645 8.522996 36,950 120 483 0
2022-05-17 22:10:44 GMT 47.367645 8.522996 36,950 120 484 0
2022-05-17 22:10:41 GMT 47.371094 8.514334 36,950 120 484 0
2022-05-17 22:10:38 GMT 47.373871 8.507263 36,950 120 484 0
2022-05-17 22:10:35 GMT 47.376865 8.499756 36,950 120 484 0
2022-05-17 22:10:33 GMT 47.379913 8.492020 36,950 120 484 0
2022-05-17 22:10:31 GMT 47.382614 8.485222 36,950 120 484 0
2022-05-17 22:10:28 GMT 47.385635 8.477600 36,950 120 484 0
2022-05-17 22:10:25 GMT 47.390831 8.464473 36,950 120 484 0
2022-05-17 22:10:23 GMT 47.390831 8.464473 36,950 120 484 0
2022-05-17 22:10:20 GMT 47.394787 8.454472 36,950 120 484 0
2022-05-17 22:10:17 GMT 47.398045 8.446303 36,950 120 484 0
2022-05-17 22:10:14 GMT 47.400745 8.439401 36,950 120 484 0
2022-05-17 22:10:12 GMT 47.402893 8.433998 36,950 120 483 0
2022-05-17 22:10:09 GMT 47.408112 8.420883 36,950 120 483 0
2022-05-17 22:10:07 GMT 47.411957 8.411133 36,950 120 483 0
2022-05-17 22:10:04 GMT 47.411957 8.411133 36,950 120 483 0
2022-05-17 22:10:02 GMT 47.413422 8.407425 36,950 120 483 0
2022-05-17 22:10:00 GMT 47.416626 8.399323 36,950 120 483 0
2022-05-17 22:09:57 GMT 47.419922 8.391083 36,950 120 483 0
2022-05-17 22:09:54 GMT 47.423309 8.382431 36,950 120 483 0
2022-05-17 22:09:52 GMT 47.425049 8.378036 36,950 120 483 0
2022-05-17 22:09:50 GMT 47.428535 8.369188 36,950 120 483 0
2022-05-17 22:09:47 GMT 47.434402 8.354328 36,950 120 483 0
2022-05-17 22:09:44 GMT 47.434402 8.354328 36,950 120 483 0
2022-05-17 22:09:42 GMT 47.437893 8.345454 36,950 120 482 0
2022-05-17 22:09:38 GMT 47.440521 8.338829 36,950 120 482 0
2022-05-17 22:09:36 GMT 47.443222 8.331963 36,950 120 482 0
2022-05-17 22:09:33 GMT 47.449997 8.314728 36,950 120 482 0
2022-05-17 22:09:30 GMT 47.449997 8.314728 36,950 120 482 0
2022-05-17 22:09:27 GMT 47.453861 8.304889 36,950 120 482 0
2022-05-17 22:09:24 GMT 47.459911 8.289607 36,950 120 482 0
2022-05-17 22:09:21 GMT 47.459911 8.289607 36,950 120 482 0
2022-05-17 22:09:18 GMT 47.463264 8.281015 36,950 120 482 0
2022-05-17 22:09:15 GMT 47.471924 8.259043 36,950 120 482 0
2022-05-17 22:09:12 GMT 47.471924 8.259043 36,950 120 482 0
2022-05-17 22:09:08 GMT 47.477554 8.244621 36,950 120 482 0
2022-05-17 22:09:05 GMT 47.477554 8.244621 36,950 120 482 0
2022-05-17 22:09:03 GMT 47.480442 8.237211 36,950 120 482 0
2022-05-17 22:09:00 GMT 47.483795 8.228689 36,950 120 482 0
2022-05-17 22:08:57 GMT 47.487717 8.218735 36,950 120 482 0
2022-05-17 22:08:54 GMT 47.490685 8.211153 36,950 120 482 -64
2022-05-17 22:08:51 GMT 47.494308 8.201912 36,950 120 482 0
2022-05-17 22:08:48 GMT 47.498199 8.192024 36,950 120 482 0
2022-05-17 22:08:45 GMT 47.500443 8.186256 36,950 120 482 0
2022-05-17 22:08:42 GMT 47.503628 8.178194 36,950 120 482 0
2022-05-17 22:08:40 GMT 47.506943 8.169777 36,950 120 482 0
2022-05-17 22:08:37 GMT 47.509399 8.163476 36,950 120 482 0
2022-05-17 22:08:34 GMT 47.516148 8.146362 36,950 120 482 0
2022-05-17 22:08:31 GMT 47.516148 8.146362 36,950 120 482 0
2022-05-17 22:08:28 GMT 47.523548 8.127488 36,950 120 482 0
2022-05-17 22:08:25 GMT 47.523548 8.127488 36,950 120 481 0
2022-05-17 22:08:22 GMT 47.529369 8.112629 36,950 119 482 0
2022-05-17 22:08:19 GMT 47.529369 8.112629 36,950 119 482 0
2022-05-17 22:08:16 GMT 47.532257 8.105164 36,950 119 482 0
2022-05-17 22:08:14 GMT 47.535461 8.096992 36,950 119 482 0
2022-05-17 22:08:11 GMT 47.538391 8.089439 36,950 119 482 0
2022-05-17 22:08:08 GMT 47.542824 8.078191 36,950 119 482 0
2022-05-17 22:08:05 GMT 47.544708 8.073303 36,950 119 482 0
2022-05-17 22:08:03 GMT 47.547337 8.066571 36,950 119 482 0
2022-05-17 22:08:01 GMT 47.550690 8.058049 36,950 119 482 0
2022-05-17 22:07:58 GMT 47.552879 8.052345 36,950 119 482 0
2022-05-17 22:07:56 GMT 47.555054 8.046799 36,950 119 482 0
2022-05-17 22:07:54 GMT 47.557159 8.041374 36,950 119 482 0
2022-05-17 22:07:51 GMT 47.560272 8.033340 36,925 119 482 0
2022-05-17 22:07:48 GMT 47.563770 8.024386 36,950 119 482 0
2022-05-17 22:07:46 GMT 47.566147 8.018329 36,950 119 482 0
2022-05-17 22:07:44 GMT 47.568378 8.012554 36,925 119 482 0
2022-05-17 22:07:41 GMT 47.571854 8.003609 36,925 119 483 0
2022-05-17 22:07:38 GMT 47.577785 7.988399 36,950 119 482 -64
2022-05-17 22:07:36 GMT 47.577785 7.988399 36,925 119 482 0
2022-05-17 22:07:33 GMT 47.580250 7.982060 36,925 119 482 0
2022-05-17 22:07:31 GMT 47.583462 7.973891 36,925 119 482 -64
2022-05-17 22:07:27 GMT 47.590302 7.956299 36,950 119 482 -64
2022-05-17 22:07:24 GMT 47.590302 7.956299 36,950 119 482 -64
2022-05-17 22:07:22 GMT 47.592541 7.950439 36,950 119 483 -64
2022-05-17 22:07:20 GMT 47.594650 7.945107 36,950 119 483 -64
2022-05-17 22:07:17 GMT 47.597988 7.936495 36,950 119 483 -64
2022-05-17 22:07:15 GMT 47.601292 7.927974 36,950 119 483 -64
2022-05-17 22:07:12 GMT 47.607624 7.911635 36,950 119 482 -64
2022-05-17 22:07:09 GMT 47.607624 7.911635 36,950 119 482 0
2022-05-17 22:07:06 GMT 47.610649 7.903888 36,950 119 482 0
2022-05-17 22:07:03 GMT 47.618088 7.884750 36,950 119 482 0
2022-05-17 22:07:00 GMT 47.618088 7.884750 36,950 119 483 0
2022-05-17 22:06:57 GMT 47.621449 7.876141 36,950 119 483 0
2022-05-17 22:06:54 GMT 47.625313 7.866211 36,950 119 482 0
2022-05-17 22:06:51 GMT 47.626942 7.861985 36,950 119 482 0
2022-05-17 22:06:48 GMT 47.630173 7.853714 36,950 119 483 0
2022-05-17 22:06:45 GMT 47.633743 7.844513 36,950 119 483 0
2022-05-17 22:06:43 GMT 47.636860 7.836421 36,950 119 483 0
2022-05-17 22:06:40 GMT 47.640163 7.827970 36,950 119 483 0
2022-05-17 22:06:37 GMT 47.643654 7.819026 36,975 119 482 0
2022-05-17 22:06:34 GMT 47.645920 7.813065 36,975 119 483 0
2022-05-17 22:06:31 GMT 47.649799 7.803040 36,975 119 483 0
2022-05-17 22:06:28 GMT 47.653896 7.792546 36,950 119 483 0
2022-05-17 22:06:25 GMT 47.656132 7.786630 36,950 119 483 0
2022-05-17 22:06:23 GMT 47.659653 7.777634 36,950 119 483 0
2022-05-17 22:06:20 GMT 47.661392 7.773033 36,975 119 484 0
2022-05-17 22:06:17 GMT 47.664459 7.765137 36,950 119 483 0
2022-05-17 22:06:15 GMT 47.667160 7.758133 36,950 119 484 0
2022-05-17 22:06:13 GMT 47.669312 7.752502 36,950 119 484 0
2022-05-17 22:06:10 GMT 47.672424 7.744469 36,950 119 484 0
2022-05-17 22:06:07 GMT 47.675766 7.735748 36,950 119 484 0
2022-05-17 22:06:04 GMT 47.679222 7.726840 36,950 119 484 0
2022-05-17 22:06:02 GMT 47.684715 7.712543 36,950 119 484 0
2022-05-17 22:06:00 GMT 47.688206 7.703529 36,950 119 484 0
2022-05-17 22:05:57 GMT 47.688206 7.703529 36,950 119 484 0
2022-05-17 22:05:54 GMT 47.690186 7.698326 36,975 119 484 -64
2022-05-17 22:05:52 GMT 47.692257 7.692965 36,975 119 484 -64
2022-05-17 22:05:50 GMT 47.694538 7.687049 36,975 119 484 -64
2022-05-17 22:05:47 GMT 47.698353 7.677119 36,975 119 484 0
2022-05-17 22:05:45 GMT 47.700729 7.670992 36,975 119 484 -64
2022-05-17 22:05:43 GMT 47.706390 7.656235 36,975 119 484 -64
2022-05-17 22:05:40 GMT 47.706390 7.656235 36,975 119 484 0
2022-05-17 22:05:37 GMT 47.709339 7.648527 36,975 119 485 64
2022-05-17 22:05:35 GMT 47.711655 7.642502 36,975 119 484 0
2022-05-17 22:05:32 GMT 47.714367 7.635498 36,975 119 484 0
2022-05-17 22:05:29 GMT 47.718292 7.625267 36,975 119 485 64
2022-05-17 22:05:27 GMT 47.720535 7.619431 36,975 119 485 64
2022-05-17 22:05:25 GMT 47.722839 7.613455 36,975 119 485 64
2022-05-17 22:05:23 GMT 47.724609 7.608856 36,950 119 485 64
2022-05-17 22:05:20 GMT 47.727962 7.600074 36,950 119 485 0
2022-05-17 22:05:17 GMT 47.731590 7.590637 36,950 119 485 0
2022-05-17 22:05:14 GMT 47.735783 7.579721 36,950 119 485 0
2022-05-17 22:05:11 GMT 47.739166 7.570953 36,950 119 485 0
2022-05-17 22:05:07 GMT 47.743011 7.560860 36,950 119 486 0
2022-05-17 22:05:05 GMT 47.745255 7.554955 36,950 119 486 64
2022-05-17 22:05:03 GMT 47.746902 7.550697 36,950 119 486 0
2022-05-17 22:05:00 GMT 47.750381 7.541634 36,950 119 486 64
2022-05-17 22:04:57 GMT 47.753632 7.533051 36,950 119 486 64
2022-05-17 22:04:54 GMT 47.756870 7.524719 36,950 119 486 64
2022-05-17 22:04:51 GMT 47.760406 7.515423 36,950 119 486 0
2022-05-17 22:04:48 GMT 47.765121 7.503044 36,950 119 486 64
2022-05-17 22:04:45 GMT 47.767502 7.496864 36,950 119 486 0
2022-05-17 22:04:43 GMT 47.769653 7.491302 36,950 119 486 0
2022-05-17 22:04:40 GMT 47.775955 7.474717 36,950 119 486 0
2022-05-17 22:04:37 GMT 47.775955 7.474717 36,950 119 486 0
2022-05-17 22:04:35 GMT 47.778168 7.468918 36,950 119 486 0
2022-05-17 22:04:33 GMT 47.780869 7.461845 36,950 119 486 0
2022-05-17 22:04:30 GMT 47.786316 7.447701 36,950 119 487 0
2022-05-17 22:04:27 GMT 47.786316 7.447701 36,950 119 487 0
2022-05-17 22:04:25 GMT 47.789474 7.439392 36,950 119 487 0
2022-05-17 22:04:22 GMT 47.791901 7.432938 36,950 119 486 0
2022-05-17 22:04:20 GMT 47.794647 7.425797 36,950 119 486 0
2022-05-17 22:04:17 GMT 47.797649 7.417884 36,950 119 486 0
2022-05-17 22:04:15 GMT 47.800907 7.409363 36,950 119 486 0
2022-05-17 22:04:12 GMT 47.803097 7.403588 36,950 119 486 0
2022-05-17 22:04:09 GMT 47.806450 7.394785 36,950 119 486 0
2022-05-17 22:04:06 GMT 47.809753 7.386108 36,925 119 486 0
2022-05-17 22:04:04 GMT 47.811905 7.380341 36,950 119 486 0
2022-05-17 22:04:01 GMT 47.818497 7.363037 36,950 119 486 0
2022-05-17 22:03:59 GMT 47.818497 7.363037 36,950 119 486 0
2022-05-17 22:03:56 GMT 47.820648 7.357338 36,950 119 486 0
2022-05-17 22:03:54 GMT 47.823303 7.350403 36,950 119 486 0
2022-05-17 22:03:50 GMT 47.830719 7.330833 36,950 119 486 0
2022-05-17 22:03:47 GMT 47.830719 7.330833 36,950 119 485 0
2022-05-17 22:03:45 GMT 47.833878 7.322594 36,950 119 485 0
2022-05-17 22:03:42 GMT 47.836708 7.315134 36,950 119 485 -64
2022-05-17 22:03:40 GMT 47.838364 7.310715 36,950 119 485 0
2022-05-17 22:03:37 GMT 47.841843 7.301651 36,950 119 485 0
2022-05-17 22:03:35 GMT 47.844681 7.294098 36,950 119 485 0
2022-05-17 22:03:32 GMT 47.847382 7.287025 36,950 119 485 0
2022-05-17 22:03:30 GMT 47.853142 7.271822 36,950 119 485 0
2022-05-17 22:03:27 GMT 47.853142 7.271822 36,950 119 485 0
2022-05-17 22:03:24 GMT 47.856262 7.263611 36,950 119 485 0
2022-05-17 22:03:20 GMT 47.860634 7.252033 36,950 119 485 0
2022-05-17 22:03:17 GMT 47.864124 7.242878 36,950 119 485 0
2022-05-17 22:03:15 GMT 47.867245 7.234567 36,950 119 485 -64
2022-05-17 22:03:12 GMT 47.869537 7.228523 36,950 119 485 -64
2022-05-17 22:03:10 GMT 47.875298 7.213370 36,950 119 485 -64
2022-05-17 22:03:07 GMT 47.879791 7.201469 36,950 119 485 0
2022-05-17 22:03:04 GMT 47.879791 7.201469 36,975 119 486 -64
2022-05-17 22:03:01 GMT 47.882561 7.194143 36,950 119 486 -64
2022-05-17 22:02:57 GMT 47.889263 7.176326 36,975 119 486 -64
2022-05-17 22:02:55 GMT 47.889263 7.176326 36,975 119 486 -64
2022-05-17 22:02:52 GMT 47.892517 7.167755 36,975 119 485 -64
2022-05-17 22:02:49 GMT 47.895630 7.159515 36,975 119 485 -64
2022-05-17 22:02:46 GMT 47.898251 7.152452 36,975 119 485 -64
2022-05-17 22:02:44 GMT 47.903091 7.139603 36,975 119 485 -64
2022-05-17 22:02:41 GMT 47.903091 7.139603 36,975 119 486 -64
2022-05-17 22:02:39 GMT 47.905838 7.132393 36,975 119 486 -64
2022-05-17 22:02:36 GMT 47.909134 7.123672 36,975 119 486 0
2022-05-17 22:02:33 GMT 47.911655 7.116957 36,975 119 486 0
2022-05-17 22:02:30 GMT 47.915909 7.105614 36,975 119 486 0
2022-05-17 22:02:27 GMT 47.923016 7.086745 36,975 119 486 0
2022-05-17 22:02:24 GMT 47.925613 7.079933 37,000 119 487 0
2022-05-17 22:02:21 GMT 47.925613 7.079933 36,975 119 487 0
2022-05-17 22:02:18 GMT 47.929047 7.070732 36,975 119 487 0
2022-05-17 22:02:16 GMT 47.932526 7.061462 36,975 119 487 0
2022-05-17 22:02:12 GMT 47.936005 7.052261 36,975 119 487 0
2022-05-17 22:02:10 GMT 47.937836 7.047386 36,975 119 487 0
2022-05-17 22:02:07 GMT 47.941216 7.038363 36,975 119 487 0
2022-05-17 22:02:05 GMT 47.942963 7.033722 36,975 119 487 0
2022-05-17 22:02:02 GMT 47.949551 7.016179 36,975 119 487 0
2022-05-17 22:01:59 GMT 47.949551 7.016179 36,975 119 487 0
2022-05-17 22:01:56 GMT 47.953415 7.005827 36,975 119 487 64
2022-05-17 22:01:54 GMT 47.954994 7.001742 36,975 119 487 64
2022-05-17 22:01:51 GMT 47.958488 6.992375 36,975 119 487 64
2022-05-17 22:01:49 GMT 47.960678 6.986549 36,975 119 487 64
2022-05-17 22:01:46 GMT 47.964294 6.976868 36,975 119 487 0
2022-05-17 22:01:44 GMT 47.966354 6.971375 36,975 119 487 0
2022-05-17 22:01:41 GMT 47.969650 6.962654 36,975 119 487 0
2022-05-17 22:01:39 GMT 47.970886 6.959358 36,975 119 487 0
2022-05-17 22:01:36 GMT 47.975464 6.947136 36,975 119 487 0
2022-05-17 22:01:34 GMT 47.977798 6.940956 36,975 119 487 0
2022-05-17 22:01:31 GMT 47.980598 6.933500 36,975 119 487 0
2022-05-17 22:01:28 GMT 47.983795 6.924957 36,975 119 486 0
2022-05-17 22:01:25 GMT 47.987118 6.915964 36,975 119 486 0
2022-05-17 22:01:22 GMT 47.990234 6.907654 36,975 119 486 0
2022-05-17 22:01:19 GMT 47.994751 6.895611 36,975 119 486 0
2022-05-17 22:01:16 GMT 47.996246 6.891518 36,975 119 486 0
2022-05-17 22:01:14 GMT 47.999084 6.883896 36,975 119 486 0
2022-05-17 22:01:11 GMT 48.002014 6.876103 36,975 119 486 64
2022-05-17 22:01:08 GMT 48.006531 6.863990 36,975 119 486 64
2022-05-17 22:01:05 GMT 48.008926 6.857597 36,975 119 486 64
2022-05-17 22:01:02 GMT 48.012589 6.847778 36,975 119 486 64
2022-05-17 22:00:59 GMT 48.015518 6.839951 36,950 119 486 64
2022-05-17 22:00:56 GMT 48.017796 6.833848 36,950 119 486 64
2022-05-17 22:00:53 GMT 48.022614 6.820930 36,950 119 486 64
2022-05-17 22:00:50 GMT 48.025150 6.814200 36,950 119 486 64
2022-05-17 22:00:47 GMT 48.029480 6.802509 36,950 118 485 0
2022-05-17 22:00:44 GMT 48.031620 6.796734 36,950 118 481 0
2022-05-17 22:00:41 GMT 48.035065 6.787438 36,950 118 485 0
2022-05-17 22:00:38 GMT 48.038361 6.778633 36,950 118 484 0
2022-05-17 22:00:35 GMT 48.040512 6.772860 36,950 118 484 0
2022-05-17 22:00:33 GMT 48.046379 6.756944 36,950 118 484 0
2022-05-17 22:00:30 GMT 48.046379 6.756944 36,950 118 484 0
2022-05-17 22:00:27 GMT 48.053268 6.738493 36,950 118 484 0
2022-05-17 22:00:24 GMT 48.053268 6.738493 36,950 119 483 0
2022-05-17 22:00:22 GMT 48.055408 6.732718 36,950 119 483 0
2022-05-17 22:00:19 GMT 48.062252 6.714266 36,950 118 483 0
2022-05-17 22:00:16 GMT 48.062252 6.714266 36,950 118 483 0
2022-05-17 22:00:14 GMT 48.066879 6.701866 36,950 119 482 0
2022-05-17 22:00:11 GMT 48.066879 6.701866 36,950 119 482 0
2022-05-17 22:00:08 GMT 48.074203 6.682159 36,950 119 481 -64
2022-05-17 22:00:05 GMT 48.074203 6.682159 36,950 119 481 -64
2022-05-17 22:00:02 GMT 48.081528 6.662453 36,975 118 481 0
2022-05-17 21:59:58 GMT 48.081528 6.662453 36,975 118 481 0
2022-05-17 21:59:55 GMT 48.084457 6.654546 36,975 118 481 0
2022-05-17 21:59:53 GMT 48.087204 6.647072 36,975 118 480 0
2022-05-17 21:59:50 GMT 48.089813 6.639999 36,975 118 480 0
2022-05-17 21:59:48 GMT 48.092510 6.632784 36,950 118 481 0
2022-05-17 21:59:45 GMT 48.095165 6.625531 36,950 118 481 0
2022-05-17 21:59:43 GMT 48.098053 6.617752 36,950 118 481 0
2022-05-17 21:59:39 GMT 48.105377 6.598045 36,950 118 481 0
2022-05-17 21:59:36 GMT 48.105377 6.598045 36,950 118 481 0
2022-05-17 21:59:34 GMT 48.110527 6.584191 36,950 118 481 0
2022-05-17 21:59:31 GMT 48.110527 6.584191 36,950 118 480 64
2022-05-17 21:59:28 GMT 48.114166 6.574356 36,950 118 480 0
2022-05-17 21:59:25 GMT 48.121048 6.555669 36,975 118 478 0
2022-05-17 21:59:22 GMT 48.121048 6.555669 36,950 118 480 0
2022-05-17 21:59:19 GMT 48.124214 6.547077 36,950 118 480 0
2022-05-17 21:59:16 GMT 48.126961 6.539612 36,950 118 480 0
2022-05-17 21:59:14 GMT 48.132797 6.523750 36,950 118 479 0
2022-05-17 21:59:11 GMT 48.132797 6.523750 36,975 118 479 0
2022-05-17 21:59:08 GMT 48.134411 6.519259 36,950 118 479 0
2022-05-17 21:59:05 GMT 48.138153 6.509193 36,975 118 478 0
2022-05-17 21:59:03 GMT 48.141533 6.500103 36,975 118 477 0
2022-05-17 21:59:00 GMT 48.143646 6.494293 36,975 118 475 0
2022-05-17 21:58:58 GMT 48.146118 6.487495 36,975 118 476 0
2022-05-17 21:58:54 GMT 48.149734 6.477745 36,975 118 475 0
2022-05-17 21:58:51 GMT 48.153820 6.466581 36,950 118 474 64
2022-05-17 21:58:48 GMT 48.156010 6.460665 36,950 118 474 64
2022-05-17 21:58:46 GMT 48.158943 6.452707 36,950 118 473 64
2022-05-17 21:58:44 GMT 48.162575 6.442831 36,950 118 473 64
2022-05-17 21:58:42 GMT 48.162575 6.442831 36,950 118 473 64
2022-05-17 21:58:39 GMT 48.165298 6.435312 36,950 118 473 64
2022-05-17 21:58:36 GMT 48.169464 6.424044 36,950 118 473 64
2022-05-17 21:58:33 GMT 48.172211 6.416579 36,950 118 472 128
2022-05-17 21:58:30 GMT 48.175278 6.408198 36,900 118 471 256
2022-05-17 21:58:28 GMT 48.177376 6.402500 36,900 118 471 256
2022-05-17 21:58:25 GMT 48.183662 6.385225 36,875 118 470 576
2022-05-17 21:58:23 GMT 48.183662 6.385225 36,875 118 469 64
2022-05-17 21:58:20 GMT 48.185711 6.379587 36,875 118 469 64
2022-05-17 21:58:18 GMT 48.192169 6.362000 36,875 118 469 64
2022-05-17 21:58:15 GMT 48.192169 6.362000 36,875 118 467 256
2022-05-17 21:58:12 GMT 48.193771 6.357563 36,875 118 467 256
2022-05-17 21:58:09 GMT 48.198463 6.344749 36,850 118 467 320
2022-05-17 21:58:06 GMT 48.201004 6.337773 36,825 118 466 640
2022-05-17 21:58:03 GMT 48.203064 6.332210 36,775 118 465 1152
2022-05-17 21:58:00 GMT 48.206268 6.323407 36,750 118 465 1088
2022-05-17 21:57:57 GMT 48.210114 6.312913 36,700 118 465 1216
2022-05-17 21:57:55 GMT 48.213734 6.303117 36,650 118 466 1344
2022-05-17 21:57:53 GMT 48.213734 6.303117 36,600 118 466 1216
2022-05-17 21:57:50 GMT 48.217087 6.294010 36,550 118 467 1024
2022-05-17 21:57:48 GMT 48.219131 6.288335 36,525 118 467 768
2022-05-17 21:57:45 GMT 48.221649 6.281504 36,500 118 467 512
2022-05-17 21:57:43 GMT 48.223789 6.275651 36,500 118 467 384
2022-05-17 21:57:40 GMT 48.227600 6.265235 36,450 118 465 512
2022-05-17 21:57:37 GMT 48.230164 6.258122 36,350 118 464 832
2022-05-17 21:57:34 GMT 48.233288 6.249558 36,350 118 464 1024
2022-05-17 21:57:31 GMT 48.236263 6.241391 36,350 118 479 1600
2022-05-17 21:57:28 GMT 48.238873 6.234235 36,250 118 467 1984
2022-05-17 21:57:26 GMT 48.244492 6.218896 36,050 118 466 1792
2022-05-17 21:57:24 GMT 48.244492 6.218896 36,125 118 466 1856
2022-05-17 21:57:21 GMT 48.246094 6.214459 36,025 118 475 2496
2022-05-17 21:57:18 GMT 48.250305 6.202768 35,650 118 475 2496
2022-05-17 21:57:15 GMT 48.254608 6.190940 35,800 118 471 2496
2022-05-17 21:57:13 GMT 48.254608 6.190940 35,775 118 471 2560
2022-05-17 21:57:10 GMT 48.257721 6.182486 35,175 118 480 960
2022-05-17 21:57:07 GMT 48.260971 6.173471 35,425 118 477 2176
2022-05-17 21:57:04 GMT 48.265182 6.161922 35,325 118 478 1984
2022-05-17 21:57:01 GMT 48.267242 6.156217 35,100 118 480 960
2022-05-17 21:56:58 GMT 48.270714 6.146634 35,225 118 479 1344
2022-05-17 21:56:55 GMT 48.274338 6.136709 35,150 118 480 1024
2022-05-17 21:56:53 GMT 48.276299 6.131238 35,125 118 480 960
2022-05-17 21:56:50 GMT 48.278999 6.123794 35,025 118 480 960
2022-05-17 21:56:47 GMT 48.282398 6.114470 35,025 118 480 576
2022-05-17 21:56:44 GMT 48.285378 6.106158 35,000 118 480 448
2022-05-17 21:56:41 GMT 48.288071 6.098821 34,950 118 480 0
2022-05-17 21:56:38 GMT 48.295441 6.078468 34,950 118 480 0
2022-05-17 21:56:35 GMT 48.295441 6.078468 34,950 118 480 0
2022-05-17 21:56:30 GMT 48.300228 6.065176 34,950 118 481 0
2022-05-17 21:56:27 GMT 48.304138 6.054334 34,950 118 481 0
2022-05-17 21:56:24 GMT 48.306702 6.047410 34,950 118 481 0
2022-05-17 21:56:22 GMT 48.309998 6.038185 34,950 118 481 0
2022-05-17 21:56:18 GMT 48.312984 6.029976 34,950 118 481 0
2022-05-17 21:56:15 GMT 48.316315 6.020649 34,950 118 481 64
2022-05-17 21:56:13 GMT 48.317551 6.017268 34,950 118 481 64
2022-05-17 21:56:10 GMT 48.324646 5.997549 34,950 118 481 0
2022-05-17 21:56:07 GMT 48.324646 5.997549 34,950 118 481 0
2022-05-17 21:56:04 GMT 48.327850 5.988676 34,950 118 481 0
2022-05-17 21:56:01 GMT 48.335140 5.968467 34,950 118 480 0
2022-05-17 21:55:57 GMT 48.335140 5.968467 34,950 118 480 0
2022-05-17 21:55:54 GMT 48.338402 5.959360 34,950 118 481 0
2022-05-17 21:55:52 GMT 48.341660 5.950325 34,950 118 481 0
2022-05-17 21:55:49 GMT 48.344826 5.941580 34,950 118 480 0
2022-05-17 21:55:46 GMT 48.346802 5.936138 34,950 118 480 0
2022-05-17 21:55:44 GMT 48.348953 5.930152 34,975 118 479 0
2022-05-17 21:55:42 GMT 48.350967 5.924589 34,975 118 479 0
2022-05-17 21:55:39 GMT 48.355064 5.913174 34,975 118 479 0
2022-05-17 21:55:36 GMT 48.358139 5.904645 34,975 118 478 0
2022-05-17 21:55:33 GMT 48.360306 5.898602 34,975 118 478 0
2022-05-17 21:55:31 GMT 48.363510 5.889799 34,975 118 478 0
2022-05-17 21:55:28 GMT 48.370289 5.870964 34,975 118 478 0
2022-05-17 21:55:24 GMT 48.370289 5.870964 34,975 118 478 0
2022-05-17 21:55:22 GMT 48.371796 5.866770 34,975 118 478 0
2022-05-17 21:55:19 GMT 48.375504 5.856488 34,975 118 479 0
2022-05-17 21:55:16 GMT 48.378159 5.849022 34,975 117 478 0
2022-05-17 21:55:13 GMT 48.384521 5.830853 34,975 117 479 0
2022-05-17 21:55:10 GMT 48.384521 5.830853 34,975 115 479 64
2022-05-17 21:55:07 GMT 48.388641 5.818458 34,950 115 479 64
2022-05-17 21:55:04 GMT 48.390564 5.812542 34,950 114 481 128
2022-05-17 21:55:01 GMT 48.394310 5.800781 34,950 114 480 128
2022-05-17 21:54:56 GMT 48.398071 5.788457 34,925 113 481 128
2022-05-17 21:54:54 GMT 48.403336 5.770358 34,625 113 482 192
2022-05-17 21:54:51 GMT 48.405899 5.761202 34,925 112 482 256
2022-05-17 21:54:48 GMT 48.407532 5.755246 34,900 111 481 832
2022-05-17 21:54:45 GMT 48.407532 5.755246 34,875 111 481 832
2022-05-17 21:54:42 GMT 48.410000 5.745922 34,875 111 481 704
2022-05-17 21:54:38 GMT 48.413212 5.733562 34,800 110 481 1024
2022-05-17 21:54:35 GMT 48.415512 5.724581 34,725 110 481 1024
2022-05-17 21:54:32 GMT 48.418076 5.714370 34,700 110 481 1024
2022-05-17 21:54:30 GMT 48.420044 5.706552 34,600 110 485 1024
2022-05-17 21:54:26 GMT 48.422520 5.696773 34,600 110 481 1024
2022-05-17 21:54:23 GMT 48.427780 5.675884 34,400 110 481 1024
2022-05-17 21:54:20 GMT 48.429691 5.668150 34,450 110 481 1088
2022-05-17 21:54:17 GMT 48.429691 5.668150 34,450 110 481 1088
2022-05-17 21:54:13 GMT 48.434299 5.649936 34,325 110 481 1088
2022-05-17 21:54:08 GMT 48.436672 5.640395 34,275 110 481 1152
2022-05-17 21:54:05 GMT 48.441101 5.622817 34,150 110 481 1152
2022-05-17 21:54:02 GMT 48.441101 5.622817 34,075 110 481 1088
2022-05-17 21:54:00 GMT 48.443298 5.614084 34,125 110 481 1088
2022-05-17 21:53:57 GMT 48.445129 5.606689 34,075 110 484 1024
2022-05-17 21:53:54 GMT 48.447601 5.596760 34,025 110 482 1088
2022-05-17 21:53:52 GMT 48.450027 5.587182 33,975 110 483 1024
2022-05-17 21:53:49 GMT 48.454056 5.571125 33,900 110 487 1216
2022-05-17 21:53:46 GMT 48.457294 5.558070 33,850 110 487 1088
2022-05-17 21:53:43 GMT 48.457294 5.558070 33,750 110 487 1152
2022-05-17 21:53:40 GMT 48.459000 5.551335 33,750 110 488 1344
2022-05-17 21:53:37 GMT 48.461811 5.540145 33,700 110 488 1344
2022-05-17 21:53:34 GMT 48.463852 5.531898 33,625 110 488 1408
2022-05-17 21:53:32 GMT 48.465721 5.524461 33,575 110 489 1408
2022-05-17 21:53:29 GMT 48.467724 5.516365 33,550 110 488 1408
2022-05-17 21:53:26 GMT 48.470005 5.507258 33,400 110 489 1408
2022-05-17 21:53:23 GMT 48.472797 5.496055 33,350 110 489 1280
2022-05-17 21:53:20 GMT 48.474930 5.487530 33,250 110 489 1152
2022-05-17 21:53:17 GMT 48.479004 5.471191 33,050 110 489 1280
2022-05-17 21:53:11 GMT 48.482014 5.459193 33,150 110 489 1280
2022-05-17 21:53:08 GMT 48.486298 5.441991 33,075 110 490 1408
2022-05-17 21:53:05 GMT 48.486298 5.441991 32,975 110 490 1472
2022-05-17 21:53:02 GMT 48.489231 5.430137 32,925 110 491 1408
2022-05-17 21:53:00 GMT 48.491234 5.422042 32,850 110 491 1280
2022-05-17 21:52:57 GMT 48.492722 5.416187 32,825 110 491 896
2022-05-17 21:52:54 GMT 48.495026 5.406893 32,775 110 490 832
2022-05-17 21:52:52 GMT 48.498959 5.391107 32,725 110 490 832
2022-05-17 21:52:50 GMT 48.498959 5.391107 32,725 110 490 832
2022-05-17 21:52:47 GMT 48.501331 5.381566 32,675 110 490 832
2022-05-17 21:52:44 GMT 48.503567 5.372676 32,600 110 488 768
2022-05-17 21:52:41 GMT 48.505600 5.364427 32,550 110 488 768
2022-05-17 21:52:38 GMT 48.508362 5.353233 32,550 110 488 768
2022-05-17 21:52:35 GMT 48.510361 5.345271 32,500 110 487 768
2022-05-17 21:52:32 GMT 48.512272 5.337549 32,500 110 487 768
2022-05-17 21:52:30 GMT 48.516277 5.321286 32,425 110 487 896
2022-05-17 21:52:28 GMT 48.516277 5.321286 32,425 110 486 896
2022-05-17 21:52:25 GMT 48.518696 5.311601 32,375 110 486 960
2022-05-17 21:52:22 GMT 48.520329 5.304951 32,350 110 486 896
2022-05-17 21:52:20 GMT 48.522354 5.296748 32,300 110 485 832
2022-05-17 21:52:18 GMT 48.524097 5.289700 32,250 110 484 960
2022-05-17 21:52:15 GMT 48.525822 5.282834 32,250 110 484 960
2022-05-17 21:52:12 GMT 48.528900 5.270409 32,200 110 484 832
2022-05-17 21:52:09 GMT 48.530895 5.262307 31,775 110 483 1088
2022-05-17 21:52:07 GMT 48.532562 5.255550 32,100 110 483 1024
2022-05-17 21:52:04 GMT 48.534943 5.245899 32,025 110 483 1600
2022-05-17 21:52:01 GMT 48.537186 5.236957 32,000 110 483 1280
2022-05-17 21:51:59 GMT 48.538670 5.230865 31,950 110 483 1408
2022-05-17 21:51:56 GMT 48.540623 5.222987 31,650 110 484 1472
2022-05-17 21:51:53 GMT 48.543465 5.211423 31,575 110 484 1472
2022-05-17 21:51:50 GMT 48.545326 5.203761 31,725 110 484 1472
2022-05-17 21:51:47 GMT 48.547607 5.194582 31,550 110 485 1216
2022-05-17 21:51:44 GMT 48.549934 5.185113 31,475 110 485 1216
2022-05-17 21:51:41 GMT 48.552448 5.174850 31,475 110 485 1216
2022-05-17 21:51:38 GMT 48.555984 5.160466 31,425 110 485 1152
2022-05-17 21:51:34 GMT 48.558563 5.149982 31,275 110 484 1024
2022-05-17 21:51:31 GMT 48.560921 5.140517 31,250 110 484 1024
2022-05-17 21:51:28 GMT 48.563187 5.131249 31,250 110 484 1024
2022-05-17 21:51:25 GMT 48.565933 5.119981 31,200 110 483 1024
2022-05-17 21:51:20 GMT 48.568741 5.108643 31,075 110 482 1216
2022-05-17 21:51:17 GMT 48.571014 5.099346 31,050 110 482 1280
2022-05-17 21:51:14 GMT 48.573395 5.089561 31,000 110 482 1408
2022-05-17 21:51:11 GMT 48.576187 5.078148 30,925 110 482 1408
2022-05-17 21:51:09 GMT 48.578472 5.068889 30,775 110 484 1216
2022-05-17 21:51:06 GMT 48.582848 5.050892 30,675 110 484 1280
2022-05-17 21:51:03 GMT 48.582848 5.050892 30,675 110 484 1280
2022-05-17 21:51:00 GMT 48.585129 5.041568 30,650 110 484 1216
2022-05-17 21:50:57 GMT 48.586990 5.034051 30,450 110 483 1088
2022-05-17 21:50:54 GMT 48.588821 5.026456 30,550 110 482 1088
2022-05-17 21:50:52 GMT 48.590668 5.019017 30,475 110 483 1088
2022-05-17 21:50:49 GMT 48.593124 5.008850 30,425 110 482 1152
2022-05-17 21:50:46 GMT 48.595413 4.999554 30,400 110 482 1152
2022-05-17 21:50:43 GMT 48.598526 4.986877 30,325 110 482 1152
2022-05-17 21:50:40 GMT 48.601791 4.973337 30,275 110 481 1216
2022-05-17 21:50:37 GMT 48.601791 4.973337 30,175 110 481 1280
2022-05-17 21:50:34 GMT 48.604446 4.962568 30,175 110 481 1280
2022-05-17 21:50:31 GMT 48.606720 4.953285 30,000 110 481 1472
2022-05-17 21:50:28 GMT 48.611526 4.933566 30,000 110 481 1536
2022-05-17 21:50:25 GMT 48.614365 4.921875 29,750 110 482 1600
2022-05-17 21:50:22 GMT 48.614365 4.921875 29,775 110 482 1344
2022-05-17 21:50:19 GMT 48.616287 4.914058 29,775 110 482 1280
2022-05-17 21:50:16 GMT 48.618553 4.904745 29,700 110 482 1216
2022-05-17 21:50:13 GMT 48.620506 4.896578 29,700 110 481 1152
2022-05-17 21:50:10 GMT 48.622787 4.887181 29,625 110 481 960
2022-05-17 21:50:07 GMT 48.625114 4.877785 29,375 110 480 960
2022-05-17 21:50:03 GMT 48.630562 4.855307 29,375 110 479 960
2022-05-17 21:50:00 GMT 48.630562 4.855307 29,475 110 479 960
2022-05-17 21:49:57 GMT 48.635788 4.833703 29,350 110 478 896
2022-05-17 21:49:53 GMT 48.635788 4.833703 29,375 110 475 1088
2022-05-17 21:49:49 GMT 48.638756 4.821480 29,325 110 477 832
2022-05-17 21:49:45 GMT 48.642525 4.805868 29,225 110 475 1088
2022-05-17 21:49:41 GMT 48.644901 4.796038 29,075 110 474 1280
2022-05-17 21:49:38 GMT 48.646763 4.788449 29,100 110 474 1280
2022-05-17 21:49:35 GMT 48.649788 4.775800 29,025 110 474 1280
2022-05-17 21:49:33 GMT 48.650951 4.771030 28,975 109 474 1280
2022-05-17 21:49:30 GMT 48.653000 4.762646 28,800 109 474 1280
2022-05-17 21:49:27 GMT 48.658028 4.741612 28,825 110 473 1216
2022-05-17 21:49:24 GMT 48.658028 4.741612 28,750 110 473 1216
2022-05-17 21:49:21 GMT 48.659912 4.733981 28,725 110 473 1152
2022-05-17 21:49:19 GMT 48.661751 4.726217 28,675 110 472 1088
2022-05-17 21:49:15 GMT 48.664627 4.714402 28,625 110 472 1088
2022-05-17 21:49:11 GMT 48.667328 4.703064 28,550 109 471 1216
2022-05-17 21:49:09 GMT 48.669247 4.695210 28,500 109 471 1216
2022-05-17 21:49:06 GMT 48.671158 4.687331 28,400 109 469 0
2022-05-17 21:49:03 GMT 48.673325 4.678274 28,400 109 471 1152
2022-05-17 21:49:01 GMT 48.675247 4.670246 28,350 110 470 1088
2022-05-17 21:48:59 GMT 48.676666 4.664260 28,300 109 469 1024
2022-05-17 21:48:56 GMT 48.678837 4.655384 28,275 109 468 1088
2022-05-17 21:48:54 GMT 48.679535 4.652276 28,225 109 469 1024
2022-05-17 21:48:51 GMT 48.682388 4.640456 28,175 109 467 1280
2022-05-17 21:48:48 GMT 48.684357 4.632287 27,900 109 466 1600
2022-05-17 21:48:45 GMT 48.687790 4.617990 27,950 109 466 1664
2022-05-17 21:48:43 GMT 48.687790 4.617990 27,925 109 466 1664
2022-05-17 21:48:40 GMT 48.690334 4.607319 27,925 109 466 1664
2022-05-17 21:48:37 GMT 48.692139 4.599891 27,850 109 466 1152
2022-05-17 21:48:34 GMT 48.694565 4.589679 27,750 109 466 1152
2022-05-17 21:48:31 GMT 48.697178 4.578914 27,700 109 465 1152
2022-05-17 21:48:29 GMT 48.698296 4.574216 27,650 109 464 1216
2022-05-17 21:48:26 GMT 48.701157 4.562354 27,600 109 464 1344
2022-05-17 21:48:24 GMT 48.701935 4.558974 27,575 109 464 1344
2022-05-17 21:48:21 GMT 48.706009 4.541931 27,475 109 464 1664
2022-05-17 21:48:19 GMT 48.706009 4.541931 27,400 109 464 1920
2022-05-17 21:48:14 GMT 48.709854 4.526015 27,250 109 464 1856
2022-05-17 21:48:10 GMT 48.712967 4.512986 27,100 109 464 1664
2022-05-17 21:48:07 GMT 48.714870 4.505045 27,050 109 464 1792
2022-05-17 21:48:04 GMT 48.718872 4.488204 26,900 109 464 1472
2022-05-17 21:48:01 GMT 48.718872 4.488204 26,900 109 464 1344
2022-05-17 21:47:59 GMT 48.722214 4.474112 26,825 109 463 1152
2022-05-17 21:47:53 GMT 48.724777 4.463478 26,775 109 462 896
2022-05-17 21:47:50 GMT 48.726883 4.454604 26,725 109 462 960
2022-05-17 21:47:48 GMT 48.732140 4.432550 26,625 109 460 896
2022-05-17 21:47:43 GMT 48.732140 4.432550 26,600 109 459 1024
2022-05-17 21:47:41 GMT 48.733932 4.425025 26,550 109 458 1152
2022-05-17 21:47:37 GMT 48.736130 4.415729 26,500 109 457 1216
2022-05-17 21:47:33 GMT 48.738647 4.405236 26,425 109 456 1216
2022-05-17 21:47:31 GMT 48.740753 4.396338 26,350 109 455 1216
2022-05-17 21:47:28 GMT 48.742813 4.387559 26,300 109 454 1216
2022-05-17 21:47:23 GMT 48.746017 4.374319 26,200 109 453 960
2022-05-17 21:47:20 GMT 48.748108 4.365403 26,150 109 453 832
2022-05-17 21:47:18 GMT 48.750824 4.353896 26,125 109 452 768
2022-05-17 21:47:13 GMT 48.754856 4.336853 26,050 109 449 1216
2022-05-17 21:47:11 GMT 48.754856 4.336853 26,025 109 448 1344
2022-05-17 21:47:07 GMT 48.757790 4.324566 25,950 109 448 1472
2022-05-17 21:47:03 GMT 48.760162 4.314458 25,825 109 446 1792
2022-05-17 21:47:00 GMT 48.762909 4.302908 25,725 109 448 2240
2022-05-17 21:46:57 GMT 48.764305 4.296955 25,600 109 448 2304
2022-05-17 21:46:55 GMT 48.765984 4.289872 25,550 109 448 2496
2022-05-17 21:46:52 GMT 48.767612 4.282861 25,350 109 450 2752
2022-05-17 21:46:49 GMT 48.771698 4.265583 25,025 109 452 2816
2022-05-17 21:46:43 GMT 48.774178 4.255034 24,925 109 453 2752
2022-05-17 21:46:40 GMT 48.776272 4.246144 24,875 109 455 2432
2022-05-17 21:46:36 GMT 48.779068 4.234314 24,725 109 455 2304
2022-05-17 21:46:33 GMT 48.781113 4.225689 24,600 109 456 1920
2022-05-17 21:46:31 GMT 48.783096 4.217130 24,525 109 456 1792
2022-05-17 21:46:27 GMT 48.785629 4.206390 24,425 109 455 1536
2022-05-17 21:46:25 GMT 48.788235 4.195332 24,325 109 455 1408
2022-05-17 21:46:20 GMT 48.790466 4.185791 24,275 109 455 1344
2022-05-17 21:46:16 GMT 48.793076 4.174805 24,125 109 454 1216
2022-05-17 21:46:13 GMT 48.795311 4.165192 24,025 109 452 1152
2022-05-17 21:46:10 GMT 48.797195 4.157198 24,075 109 451 1216
2022-05-17 21:46:06 GMT 48.800804 4.141918 23,925 109 450 1280
2022-05-17 21:46:02 GMT 48.803318 4.131221 23,875 109 449 1344
2022-05-17 21:46:00 GMT 48.804436 4.126523 23,850 109 449 1344
2022-05-17 21:45:55 GMT 48.810196 4.101844 23,650 109 446 1472
2022-05-17 21:45:52 GMT 48.810196 4.101844 23,650 109 446 1472
2022-05-17 21:45:49 GMT 48.812256 4.093202 23,575 109 446 1536
2022-05-17 21:45:46 GMT 48.813995 4.085646 23,500 109 445 1600
2022-05-17 21:45:43 GMT 48.816147 4.076562 23,375 109 444 1728
2022-05-17 21:45:41 GMT 48.817566 4.070435 23,375 109 445 1600
2022-05-17 21:45:39 GMT 48.818634 4.065881 23,325 109 444 1664
2022-05-17 21:45:36 GMT 48.820999 4.055786 23,225 109 444 1728
2022-05-17 21:45:32 GMT 48.823383 4.045571 23,150 109 444 1792
2022-05-17 21:45:30 GMT 48.824825 4.039427 23,075 109 444 1856
2022-05-17 21:45:24 GMT 48.829014 4.021502 22,825 109 443 1664
2022-05-17 21:45:22 GMT 48.830887 4.013461 22,825 109 443 1664
2022-05-17 21:45:20 GMT 48.831665 4.010151 22,775 109 442 1664
2022-05-17 21:45:18 GMT 48.833904 4.000614 22,700 109 442 1664
2022-05-17 21:45:15 GMT 48.834961 3.995995 22,650 109 442 1600
2022-05-17 21:45:13 GMT 48.836655 3.988812 22,575 109 442 1600
2022-05-17 21:45:11 GMT 48.838093 3.982544 22,525 109 441 1344
2022-05-17 21:45:09 GMT 48.841415 3.968248 22,425 109 440 1152
2022-05-17 21:45:06 GMT 48.841415 3.968248 22,425 109 438 896
2022-05-17 21:45:03 GMT 48.843540 3.959198 22,375 109 438 896
2022-05-17 21:45:01 GMT 48.844666 3.954444 22,325 109 436 1024
2022-05-17 21:44:59 GMT 48.845993 3.948669 22,325 109 435 1152
2022-05-17 21:44:56 GMT 48.848557 3.937824 22,250 109 434 1344
2022-05-17 21:44:53 GMT 48.850430 3.929564 22,175 109 433 1600
2022-05-17 21:44:50 GMT 48.852383 3.921180 22,075 109 432 1856
2022-05-17 21:44:44 GMT 48.856388 3.904050 21,875 109 432 2304
2022-05-17 21:44:41 GMT 48.859737 3.889449 21,700 109 433 2624
2022-05-17 21:44:34 GMT 48.862976 3.875639 21,450 109 434 2752
2022-05-17 21:44:31 GMT 48.864578 3.868666 21,350 109 434 2688
2022-05-17 21:44:29 GMT 48.865860 3.863032 21,250 109 435 2432
2022-05-17 21:44:25 GMT 48.868927 3.849792 21,100 109 436 1920
2022-05-17 21:44:22 GMT 48.870392 3.843525 21,025 109 436 1856
2022-05-17 21:44:20 GMT 48.872215 3.835602 20,950 109 435 1664
2022-05-17 21:44:18 GMT 48.873238 3.831193 20,900 109 435 1472
2022-05-17 21:44:13 GMT 48.876919 3.815364 20,725 109 432 1216
2022-05-17 21:44:09 GMT 48.880188 3.801129 20,675 109 430 1280
2022-05-17 21:44:05 GMT 48.881897 3.793680 20,575 109 429 1408
2022-05-17 21:44:02 GMT 48.883621 3.786380 20,550 109 428 1536
2022-05-17 21:44:00 GMT 48.885178 3.779438 20,500 109 426 1792
2022-05-17 21:43:58 GMT 48.887238 3.770635 20,400 109 426 1920
2022-05-17 21:43:55 GMT 48.888794 3.763803 20,300 109 426 2112
2022-05-17 21:43:53 GMT 48.889847 3.759296 20,250 109 426 2048
2022-05-17 21:43:49 GMT 48.892235 3.748940 20,025 109 425 1920
2022-05-17 21:43:45 GMT 48.895119 3.736508 20,000 109 423 1856
2022-05-17 21:43:42 GMT 48.897079 3.728098 19,875 109 423 1792
2022-05-17 21:43:39 GMT 48.899414 3.717957 19,800 109 422 1792
2022-05-17 21:43:35 GMT 48.901749 3.707815 19,650 109 419 1920
2022-05-17 21:43:32 GMT 48.903404 3.700658 19,600 109 420 1728
2022-05-17 21:43:30 GMT 48.904896 3.694081 19,525 109 420 1792
2022-05-17 21:43:24 GMT 48.908249 3.679336 19,375 109 418 2112
2022-05-17 21:43:22 GMT 48.909576 3.673659 18,775 109 418 2240
2022-05-17 21:43:19 GMT 48.911461 3.665458 19,175 109 418 2304
2022-05-17 21:43:13 GMT 48.915604 3.647172 18,925 109 418 2304
2022-05-17 21:43:09 GMT 48.917862 3.637390 18,800 109 417 2176
2022-05-17 21:43:04 GMT 48.921097 3.623103 18,625 109 415 1920
2022-05-17 21:43:02 GMT 48.922306 3.617827 18,550 109 415 1984
2022-05-17 21:42:59 GMT 48.924362 3.608868 18,475 109 414 2176
2022-05-17 21:42:56 GMT 48.926029 3.601492 18,325 109 413 2560
2022-05-17 21:42:52 GMT 48.928757 3.589501 18,100 108 413 2752
2022-05-17 21:42:49 GMT 48.930824 3.580242 18,000 108 414 2688
2022-05-17 21:42:43 GMT 48.934410 3.563184 17,725 105 414 2496
2022-05-17 21:42:41 GMT 48.936035 3.554007 17,625 104 414 2432
2022-05-17 21:42:39 GMT 48.937088 3.547457 17,575 103 415 2368
2022-05-17 21:42:37 GMT 48.937088 3.547457 17,325 102 414 2304
2022-05-17 21:42:32 GMT 48.939064 3.533261 17,300 100 414 2176
2022-05-17 21:42:30 GMT 48.940273 3.522202 17,250 99 414 1984
2022-05-17 21:42:28 GMT 48.940273 3.522202 17,200 98 413 1920
2022-05-17 21:42:24 GMT 48.941437 3.509626 17,075 97 411 1856
2022-05-17 21:42:22 GMT 48.941856 3.504639 17,025 97 410 1792
2022-05-17 21:42:20 GMT 48.942398 3.498441 16,950 97 409 1792
2022-05-17 21:42:18 GMT 48.942837 3.493797 16,900 97 409 1792
2022-05-17 21:42:15 GMT 48.943768 3.483100 16,800 97 407 1664
2022-05-17 21:42:12 GMT 48.944229 3.477534 16,725 97 406 1472
2022-05-17 21:42:10 GMT 48.944870 3.470412 16,675 97 405 1344
2022-05-17 21:42:07 GMT 48.945694 3.460693 16,225 97 396 2624
2022-05-17 21:42:02 GMT 48.946884 3.447466 16,475 97 399 1728
2022-05-17 21:41:59 GMT 48.947491 3.440239 16,400 97 398 2112
2022-05-17 21:41:56 GMT 48.948002 3.434312 16,325 97 397 2176
2022-05-17 21:41:52 GMT 48.949211 3.420145 16,125 97 396 2624
2022-05-17 21:41:50 GMT 48.949726 3.414363 16,025 97 396 2752
2022-05-17 21:41:47 GMT 48.950283 3.407930 15,925 97 396 2752
2022-05-17 21:41:43 GMT 48.951305 3.396221 15,575 97 395 2304
2022-05-17 21:41:41 GMT 48.951633 3.392246 15,650 97 395 2368
2022-05-17 21:41:39 GMT 48.952888 3.377645 15,475 97 394 2240
2022-05-17 21:41:36 GMT 48.953773 3.367599 15,425 97 394 2368
2022-05-17 21:41:33 GMT 48.953773 3.367599 15,300 97 393 2880
2022-05-17 21:41:31 GMT 48.954006 3.364708 15,300 97 393 2496
2022-05-17 21:41:29 GMT 48.955170 3.351253 15,150 97 393 2752
2022-05-17 21:41:27 GMT 48.955170 3.351253 15,050 97 393 2880
2022-05-17 21:41:23 GMT 48.956150 3.339771 14,850 97 393 2816
2022-05-17 21:41:18 GMT 48.957642 3.322660 14,575 97 392 2624
2022-05-17 21:41:11 GMT 48.959244 3.303997 14,325 97 391 2304
2022-05-17 21:41:09 GMT 48.959919 3.296043 14,150 97 390 2176
2022-05-17 21:41:06 GMT 48.959919 3.296043 14,200 97 390 2176
2022-05-17 21:41:01 GMT 48.961128 3.281949 14,000 97 388 2176
2022-05-17 21:40:59 GMT 48.961502 3.277178 13,950 97 387 2176
2022-05-17 21:40:56 GMT 48.962296 3.268216 13,825 97 386 2240
2022-05-17 21:40:51 GMT 48.963970 3.248339 13,550 97 384 2432
2022-05-17 21:40:49 GMT 48.963970 3.248339 13,525 97 383 2432
2022-05-17 21:40:46 GMT 48.964783 3.238502 13,375 97 382 2560
2022-05-17 21:40:41 GMT 48.965744 3.227656 13,200 97 381 2624
2022-05-17 21:40:39 GMT 48.966064 3.223501 13,125 97 381 2688
2022-05-17 21:40:35 GMT 48.967896 3.202092 12,900 97 380 3136
2022-05-17 21:40:32 GMT 48.967896 3.202092 12,725 97 380 3392
2022-05-17 21:40:30 GMT 48.968250 3.198250 12,625 97 380 3520
2022-05-17 21:40:25 GMT 48.969223 3.186528 12,375 97 381 3648
2022-05-17 21:40:21 GMT 48.970184 3.175471 12,125 97 382 3456
2022-05-17 21:40:18 GMT 48.972015 3.153992 11,800 97 381 2624
2022-05-17 21:40:14 GMT 48.972015 3.153992 11,725 97 381 2560
2022-05-17 21:40:11 GMT 48.972519 3.148006 11,650 97 381 2432
2022-05-17 21:40:09 GMT 48.972954 3.142740 11,525 97 380 2176
2022-05-17 21:40:05 GMT 48.973839 3.132115 11,425 97 377 1792
2022-05-17 21:40:00 GMT 48.975468 3.112962 11,275 97 371 1344
2022-05-17 21:39:55 GMT 48.976120 3.104939 11,175 97 367 1024
2022-05-17 21:39:51 GMT 48.976868 3.096313 11,125 97 361 1024
2022-05-17 21:39:49 GMT 48.977371 3.090186 11,100 97 360 1024
2022-05-17 21:39:44 GMT 48.978241 3.079693 11,025 97 353 1024
2022-05-17 21:39:41 GMT 48.978958 3.071257 10,975 97 347 960
2022-05-17 21:39:39 GMT 48.979385 3.066031 10,925 97 347 960
2022-05-17 21:39:34 GMT 48.980309 3.055139 10,850 97 338 1024
2022-05-17 21:39:31 GMT 48.981380 3.042346 10,725 97 332 1024
2022-05-17 21:39:29 GMT 48.981380 3.042346 10,725 97 331 1088
2022-05-17 21:39:24 GMT 48.982357 3.030781 10,650 97 324 1216
2022-05-17 21:39:21 GMT 48.983383 3.018638 10,500 97 318 1728
2022-05-17 21:39:14 GMT 48.984219 3.008158 10,350 97 313 2496
2022-05-17 21:39:11 GMT 48.984779 3.001508 10,225 97 311 2880
2022-05-17 21:39:09 GMT 48.986069 2.986028 9,800 97 308 3200
2022-05-17 21:39:03 GMT 48.986069 2.986028 9,850 97 309 3200
2022-05-17 21:38:59 GMT 48.986984 2.974830 9,625 97 308 3200
2022-05-17 21:38:53 GMT 48.987946 2.964285 9,300 98 306 3264
2022-05-17 21:38:51 GMT 48.988495 2.958351 9,150 98 306 3328
2022-05-17 21:38:49 GMT 48.988861 2.954829 9,050 99 305 3328
2022-05-17 21:38:47 GMT 48.989109 2.952431 8,875 99 305 3392
2022-05-17 21:38:43 GMT 48.990189 2.942434 8,725 99 304 3328
2022-05-17 21:38:40 GMT 48.990971 2.935301 8,550 99 303 3264
2022-05-17 21:38:36 GMT 48.991623 2.928868 8,375 99 302 3136
2022-05-17 21:38:32 GMT 48.993301 2.912926 8,100 98 290 3200
2022-05-17 21:38:29 GMT 48.993301 2.912926 8,000 99 299 2816
2022-05-17 21:38:27 GMT 48.993855 2.907835 7,875 99 297 2752
2022-05-17 21:38:23 GMT 48.994740 2.899523 7,700 99 296 2752
2022-05-17 21:38:19 GMT 48.995636 2.890954 7,500 99 292 2944
2022-05-17 21:38:15 GMT 48.996277 2.884851 7,350 99 291 3072
2022-05-17 21:38:12 GMT 48.996918 2.878700 7,175 98 289 3264
2022-05-17 21:38:09 GMT 48.998417 2.864179 6,900 98 288 3392
2022-05-17 21:38:05 GMT 48.998417 2.864179 6,775 98 288 3520
2022-05-17 21:38:02 GMT 48.999023 2.858035 6,600 98 287 3584
2022-05-17 21:37:59 GMT 49.000000 2.848422 6,300 98 287 3520
2022-05-17 21:37:55 GMT 49.000626 2.842572 6,150 98 285 3456
2022-05-17 21:37:52 GMT 49.001163 2.837508 6,000 98 284 3392
2022-05-17 21:37:50 GMT 49.001495 2.834121 5,775 98 284 3392
2022-05-17 21:37:48 GMT 49.001907 2.830177 5,775 98 284 3392
2022-05-17 21:37:45 GMT 49.002422 2.825221 5,650 98 283 3392
2022-05-17 21:37:41 GMT 49.003235 2.817359 5,450 99 280 2944
2022-05-17 21:37:39 GMT 49.003632 2.813512 5,350 99 279 2752
2022-05-17 21:37:37 GMT 49.004059 2.809753 5,225 99 279 2752
2022-05-17 21:37:30 GMT 49.005569 2.795105 4,950 98 269 2048
2022-05-17 21:37:28 GMT 49.006844 2.780047 4,725 94 259 1600
2022-05-17 21:37:22 GMT 49.006844 2.780047 4,725 94 259 1600
2022-05-17 21:37:19 GMT 49.007076 2.772096 4,625 90 256 1536
2022-05-17 21:37:10 GMT 49.006519 2.758580 4,450 85 244 960
2022-05-17 21:37:08 GMT 49.006424 2.756051 4,425 85 240 640
2022-05-17 21:36:59 GMT 49.005661 2.741511 4,300 85 220 1216
2022-05-17 21:36:57 GMT 49.004890 2.726200 4,150 85 216 1216
2022-05-17 21:36:49 GMT 49.004890 2.726200 4,100 85 206 1216
2022-05-17 21:36:45 GMT 49.004608 2.720454 4,025 85 200 1216
2022-05-17 21:36:39 GMT 49.004051 2.709937 3,875 85 191 1216
2022-05-17 21:36:35 GMT 49.003922 2.707285 3,825 85 187 1216
2022-05-17 21:36:30 GMT 49.003399 2.697866 3,675 85 179 1152
2022-05-17 21:36:28 GMT 49.003399 2.697866 3,600 85 177 1152
2022-05-17 21:36:22 GMT 49.003052 2.690735 3,575 85 164 1408
2022-05-17 21:36:18 GMT 49.002701 2.684856 3,475 85 166 1152
2022-05-17 21:36:09 GMT 49.002144 2.674882 3,225 84 162 1920
2022-05-17 21:36:07 GMT 49.001999 2.673129 3,000 84 161 1856
2022-05-17 21:35:58 GMT 49.001266 2.660593 2,825 84 160 1856
2022-05-17 21:35:48 GMT 49.000763 2.651931 2,575 84 158 1664
2022-05-17 21:35:46 GMT 49.000652 2.649657 2,550 84 158 1728
2022-05-17 21:35:38 GMT 49.000122 2.640944 2,325 85 155 1536
2022-05-17 21:35:36 GMT 48.999954 2.637658 2,200 85 153 1536
2022-05-17 21:35:29 GMT 48.999573 2.630099 2,025 85 151 1984
2022-05-17 21:35:27 GMT 48.999489 2.628913 2,000 85 151 1984
2022-05-17 21:35:26 GMT 48.999443 2.627901 1,950 85 150 2112
2022-05-17 21:35:25 GMT 48.999390 2.626366 1,900 85 150 2176
2022-05-17 21:35:24 GMT 48.999348 2.625877 1,900 85 150 2176
2022-05-17 21:35:23 GMT 48.999210 2.623203 1,800 85 149 2240
2022-05-17 21:35:21 GMT 48.999161 2.622141 1,750 85 149 2304
2022-05-17 21:35:18 GMT 48.999069 2.619878 1,650 85 149 2368
2022-05-17 21:35:17 GMT 48.998978 2.618288 1,600 85 149 2496
2022-05-17 21:35:15 GMT 48.998886 2.616577 1,525 85 149 2496
2022-05-17 21:35:14 GMT 48.998795 2.613831 1,425 85 149 2624
2022-05-17 21:35:13 GMT 48.998795 2.613831 1,425 85 149 2688
2022-05-17 21:35:11 GMT 48.998650 2.610843 1,300 85 150 2752
2022-05-17 21:35:10 GMT 48.998650 2.610843 1,275 85 150 2816
2022-05-17 21:35:09 GMT 48.998512 2.608675 1,175 85 151 2880
2022-05-17 21:35:07 GMT 48.998474 2.607704 1,150 85 151 2880
2022-05-17 21:35:04 GMT 48.998280 2.603471 950 85 152 2880
2022-05-17 21:35:02 GMT 48.998199 2.601999 875 85 153 2880
2022-05-17 21:35:00 GMT 48.998108 2.600520 825 85 153 2816
2022-05-17 21:34:58 GMT 48.997925 2.597562 650 85 154 2752
2022-05-17 21:34:55 GMT 48.997833 2.595731 625 85 154 2816
2022-05-17 21:34:53 GMT 48.997696 2.593126 500 85 156 2880
2022-05-17 21:34:52 GMT 48.997673 2.592051 475 86 158 2688
2022-05-17 21:34:50 GMT 48.997559 2.589745 375 86 159 2240
2022-05-17 21:34:49 GMT 48.997513 2.588618 350 86 159 2048
2022-05-17 21:34:46 GMT 48.997440 2.586341 275 86 159 2048
2022-05-17 21:34:45 GMT 48.997375 2.585168 250 86 159 1472
2022-05-17 21:34:38 GMT 48.997021 2.577667 250 85 118 64
2022-05-17 21:34:36 GMT 48.996883 2.574848 250 85 118 64
2022-05-17 21:34:31 GMT 48.996643 2.570730 250 84 67
2022-05-17 21:34:28 GMT 48.996552 2.568477 250 84 67
2022-05-17 21:34:22 GMT 48.996346 2.565109 0 84 67
2022-05-17 21:34:20 GMT 48.996311 2.564350 0 84 63
2022-05-17 21:34:17 GMT 48.996231 2.562931 0 84 44
2022-05-17 21:34:14 GMT 48.996185 2.562218 0 84 35
2022-05-17 21:34:13 GMT 48.996159 2.561784 0 84 25
2022-05-17 21:34:11 GMT 48.996140 2.561364 0 87 11
2022-05-17 21:34:08 GMT 48.996136 2.561224 0 87 0
2022-05-17 21:33:57 GMT 48.996136 2.561170 0 87 0
2022-05-17 21:33:53 GMT 48.996124 2.561188 0 87 0
2022-05-17 21:33:51 GMT 48.996128 2.561188 0 87 0
2022-05-17 21:33:47 GMT 48.996128 2.561188 0 87 0
2022-05-17 21:33:45 GMT 48.996124 2.561188 0 87 0
2022-05-17 21:33:44 GMT 48.996128 2.561188 0 87 0
2022-05-17 21:33:43 GMT 48.996124 2.561188 0 87 0
2022-05-17 21:33:40 GMT 48.996124 2.561188 0 87 0
2022-05-17 21:33:34 GMT 48.996128 2.561188 0 87 0
2022-05-17 21:33:32 GMT 48.996136 2.561170 0 87 0
2022-05-17 21:33:30 GMT 48.996128 2.561170 0 87 2
2022-05-17 21:33:27 GMT 48.996128 2.561135 0 90 3
2022-05-17 21:33:25 GMT 48.996128 2.561100 0 92 3
2022-05-17 21:33:23 GMT 48.996105 2.561012 0 104 5
2022-05-17 21:33:20 GMT 48.996105 2.560976 0 109 5
2022-05-17 21:33:19 GMT 48.996105 2.560941 0 115 6
2022-05-17 21:33:18 GMT 48.996105 2.560906 0 120 6
2022-05-17 21:33:14 GMT 48.996185 2.560664 0 140 7
2022-05-17 21:33:12 GMT 48.996185 2.560664 0 143 7
2022-05-17 21:33:10 GMT 48.996220 2.560610 0 149 8
2022-05-17 21:33:09 GMT 48.996265 2.560537 0 157 8
2022-05-17 21:33:07 GMT 48.996300 2.560501 0 160 9
2022-05-17 21:33:05 GMT 48.996357 2.560466 0 165 9
2022-05-17 21:33:04 GMT 48.996407 2.560447 0 171 10
2022-05-17 21:33:02 GMT 48.996529 2.560413 0 174 10
2022-05-17 21:33:00 GMT 48.996574 2.560395 0 174 10
2022-05-17 21:32:57 GMT 48.996708 2.560393 0 174 10
2022-05-17 21:32:56 GMT 48.996746 2.560378 0 174 9
2022-05-17 21:32:53 GMT 48.996861 2.560378 0 174 9
2022-05-17 21:32:52 GMT 48.996918 2.560375 0 174 8
2022-05-17 21:32:49 GMT 48.997021 2.560357 0 174 7
2022-05-17 21:32:29 GMT 48.997185 2.560338 0 174 0
2022-05-17 21:31:39 GMT 48.997192 2.560343 0 174 0
2022-05-17 21:30:55 GMT 48.997192 2.560325 0 174 0
2022-05-17 21:30:47 GMT 48.997192 2.560343 0 174 0
2022-05-17 21:30:46 GMT 48.997196 2.560338 0 174 0
2022-05-17 21:30:44 GMT 48.997208 2.560338 0 174 1
2022-05-17 21:30:42 GMT 48.997215 2.560325 0 174 2
2022-05-17 21:30:40 GMT 48.997227 2.560325 0 174 2
2022-05-17 21:30:39 GMT 48.997242 2.560320 0 174 3
2022-05-17 21:30:38 GMT 48.997250 2.560325 0 174 3
2022-05-17 21:30:36 GMT 48.997284 2.560325 0 174 4
2022-05-17 21:30:34 GMT 48.997318 2.560325 0 174 4
2022-05-17 21:30:31 GMT 48.997353 2.560307 0 174 4
2022-05-17 21:30:30 GMT 48.997364 2.560307 0 174 4
2022-05-17 21:30:28 GMT 48.997406 2.560302 0 174 4
2022-05-17 21:30:27 GMT 48.997421 2.560307 0 174 5
2022-05-17 21:30:26 GMT 48.997467 2.560307 0 174 5
2022-05-17 21:30:22 GMT 48.997524 2.560290 0 174 6
2022-05-17 21:30:21 GMT 48.997559 2.560284 0 174 6
2022-05-17 21:30:20 GMT 48.997570 2.560290 0 174 6
2022-05-17 21:30:18 GMT 48.997639 2.560272 0 174 7
2022-05-17 21:30:16 GMT 48.997696 2.560272 0 174 7
2022-05-17 21:30:14 GMT 48.997753 2.560272 0 174 7
2022-05-17 21:30:13 GMT 48.997822 2.560255 0 174 7
2022-05-17 21:30:12 GMT 48.997822 2.560255 0 174 7
2022-05-17 21:30:09 GMT 48.997906 2.560248 0 174 7
2022-05-17 21:30:06 GMT 48.997982 2.560237 0 174 8
2022-05-17 21:30:04 GMT 48.998047 2.560230 0 174 8
2022-05-17 21:30:02 GMT 48.998131 2.560219 0 174 8
2022-05-17 21:29:59 GMT 48.998211 2.560212 0 171 8
2022-05-17 21:29:58 GMT 48.998314 2.560202 0 168 7
2022-05-17 21:29:54 GMT 48.998383 2.560184 0 165 7
2022-05-17 21:29:53 GMT 48.998405 2.560176 0 163 7
2022-05-17 21:29:52 GMT 48.998451 2.560176 0 160 7
2022-05-17 21:29:50 GMT 48.998543 2.560149 0 154 6
2022-05-17 21:29:49 GMT 48.998543 2.560149 0 154 6
2022-05-17 21:29:48 GMT 48.998569 2.560122 0 151 6
2022-05-17 21:29:46 GMT 48.998646 2.560079 0 143 6
2022-05-17 21:29:40 GMT 48.998726 2.560026 0 132 6
2022-05-17 21:29:39 GMT 48.998756 2.559995 0 126 6
2022-05-17 21:29:36 GMT 48.998825 2.559887 0 112 5
2022-05-17 21:29:34 GMT 48.998837 2.559851 0 109 5
2022-05-17 21:29:33 GMT 48.998852 2.559814 0 106 5
2022-05-17 21:29:31 GMT 48.998871 2.559760 0 104 5
2022-05-17 21:29:29 GMT 48.998882 2.559652 0 101 5
2022-05-17 21:29:26 GMT 48.998882 2.559634 0 101 5
2022-05-17 21:29:23 GMT 48.998905 2.559525 0 101 4
2022-05-17 21:29:21 GMT 48.998905 2.559471 0 104 4
2022-05-17 21:29:19 GMT 48.998920 2.559417 0 104 4
2022-05-17 21:29:17 GMT 48.998932 2.559339 0 104 6
2022-05-17 21:29:16 GMT 48.998932 2.559339 0 104 7
2022-05-17 21:29:14 GMT 48.998943 2.559251 0 104 9
2022-05-17 21:29:12 GMT 48.998966 2.559146 0 104 12
2022-05-17 21:29:10 GMT 48.998989 2.558987 0 104 14
2022-05-17 21:29:08 GMT 48.999023 2.558793 0 104 14
2022-05-17 21:29:07 GMT 48.999046 2.558705 0 104 14
2022-05-17 21:29:05 GMT 48.999069 2.558512 0 104 14
2022-05-17 21:29:03 GMT 48.999104 2.558333 0 104 14
2022-05-17 21:29:02 GMT 48.999126 2.558230 0 104 13
2022-05-17 21:29:00 GMT 48.999149 2.558062 0 104 13
2022-05-17 21:28:57 GMT 48.999195 2.557843 0 106 13
2022-05-17 21:28:56 GMT 48.999229 2.557631 0 112 12
2022-05-17 21:28:54 GMT 48.999245 2.557538 0 118 12
2022-05-17 21:28:53 GMT 48.999268 2.557465 0 120 12
2022-05-17 21:28:49 GMT 48.999378 2.557174 0 135 12
2022-05-17 21:28:47 GMT 48.999432 2.557086 0 140 12
2022-05-17 21:28:44 GMT 48.999569 2.556905 0 154 12
2022-05-17 21:28:32 GMT 49.000095 2.556616 0 168 11
2022-05-17 21:28:31 GMT 49.000141 2.556598 0 174 11
2022-05-17 21:28:29 GMT 49.000248 2.556557 0 185 10
2022-05-17 21:28:26 GMT 49.000385 2.556557 0 202 9
2022-05-17 21:28:23 GMT 49.000477 2.556598 0 216 8
2022-05-17 21:28:16 GMT 49.000637 2.556751 0 244 4
2022-05-17 21:28:08 GMT 49.000687 2.556851 0 255 3
2022-05-17 21:28:00 GMT 49.000725 2.557122 0 267 7
2022-05-17 21:27:40 GMT 49.000732 2.558532 0 267 9
2022-05-17 21:27:36 GMT 49.000732 2.558730 0 267 8
2022-05-17 21:27:31 GMT 49.000748 2.558983 0 264 9
2022-05-17 21:27:27 GMT 49.000751 2.559233 0 264 11
2022-05-17 21:26:54 GMT 49.000935 2.562350 0 264 12
2022-05-17 21:26:44 GMT 49.000969 2.563089 0 264 8
2022-05-17 21:26:33 GMT 49.000992 2.563565 0 264 5
2022-05-17 21:25:13 GMT 49.001015 2.563826 0 267 0
2022-05-17 21:24:32 GMT 49.001026 2.563829 0 267 0
2022-05-17 21:23:56 GMT 49.001015 2.563829 0 267 0
2022-05-17 21:23:49 GMT 49.001015 2.563826 0 267 0
2022-05-17 21:23:46 GMT 49.001015 2.563808 0 267 1
2022-05-17 21:23:40 GMT 49.001015 2.563772 0 267 0
2022-05-17 21:23:29 GMT 49.000992 2.563670 0 255 2
2022-05-17 21:23:20 GMT 49.000942 2.563591 0 244 3
2022-05-17 21:23:12 GMT 49.000862 2.563501 0 230 3
2022-05-17 21:23:10 GMT 49.000854 2.563494 0 227 3
2022-05-17 21:23:08 GMT 49.000820 2.563459 0 225 3
2022-05-17 21:23:06 GMT 49.000816 2.563446 0 225 3
2022-05-17 21:23:04 GMT 49.000797 2.563424 0 225 3
2022-05-17 21:23:02 GMT 49.000782 2.563410 0 222 3
2022-05-17 21:23:01 GMT 49.000774 2.563389 0 222 3
2022-05-17 21:22:59 GMT 49.000759 2.563392 0 222 3
2022-05-17 21:22:58 GMT 49.000759 2.563374 0 222 2
2022-05-17 21:22:55 GMT 49.000732 2.563356 0 219 2
2022-05-17 21:22:54 GMT 49.000729 2.563353 0 219 2
2022-05-17 21:22:53 GMT 49.000725 2.563338 0 219 2
2022-05-17 21:22:49 GMT 49.000660 2.563300 0 213 2
2022-05-17 21:22:45 GMT 49.000660 2.563300 0 213 2
2022-05-17 21:22:41 GMT 49.000629 2.563284 0 210 2
2022-05-17 21:22:15 GMT 49.000362 2.563336 0 177 3
2022-05-17 21:22:05 GMT 49.000237 2.563336 0 174 3
2022-05-17 21:22:02 GMT 49.000187 2.563338 0 174 3
2022-05-17 21:22:00 GMT 49.000164 2.563338 0 174 3
2022-05-17 21:21:56 GMT 49.000111 2.563336 0 174 3
2022-05-17 21:21:55 GMT 49.000095 2.563338 0 174 3
2022-05-17 21:21:54 GMT 49.000084 2.563338 0 174 3
2022-05-17 21:21:52 GMT 49.000057 2.563338 0 174 3
2022-05-17 21:21:51 GMT 49.000050 2.563338 0 174 3
2022-05-17 21:21:50 GMT 49.000023 2.563338 0 174 2
2022-05-17 21:21:48 GMT 49.000011 2.563338 0 174 2
2022-05-17 21:21:47 GMT 48.999973 2.563318 0 174 0
2022-05-17 21:21:44 GMT 48.999966 2.563320 0 174 0
2022-05-17 21:21:42 GMT 48.999950 2.563300 0 174 0
2022-05-17 21:21:39 GMT 48.999973 2.563318 0 174 0
2022-05-17 21:21:34 GMT 49.000019 2.563371 0 174 0
2022-05-17 21:21:29 GMT 48.999989 2.563338 0 174 0
We lost coverage of the aircraft here for a total of 86 minutes
2022-05-17 19:55:24 GMT 49.000019 2.563371 0 174 0 0
2022-05-17 19:55:19 GMT 49.000019 2.563371 0 174 0 0
2022-05-17 19:55:18 GMT 49.000019 2.563371 0 174 0 0
2022-05-17 19:55:15 GMT 49.000023 2.563374 0 174 0 0
2022-05-17 19:55:13 GMT 49.000023 2.563374 0 174 0 0
2022-05-17 19:55:08 GMT 49.000019 2.563371 0 174 0 0
2022-05-17 19:55:05 GMT 49.000042 2.563371 0 174 4 0
2022-05-17 19:55:03 GMT 49.000076 2.563371 0 174 4 0
2022-05-17 19:55:02 GMT 49.000099 2.563371 0 174 4 0
2022-05-17 19:54:45 GMT 49.000660 2.563265 0 182 9 0
2022-05-17 19:54:43 GMT 49.000694 2.563248 0 191 9 0
2022-05-17 19:54:41 GMT 49.000786 2.563230 0 210 8 0
2022-05-17 19:54:17 GMT 49.001060 2.565019 0 281 13 0
2022-05-17 19:54:10 GMT 49.000900 2.565572 0 337 13 0
2022-05-17 19:54:07 GMT 49.000759 2.565669 0 351 15 0
2022-05-17 19:54:05 GMT 49.000603 2.565695 0 354 16 0
2022-05-17 19:53:59 GMT 48.999836 2.565783 0 357 15 0
2022-05-17 19:53:55 GMT 48.999836 2.565783 0 354 15 0
2022-05-17 19:53:54 GMT 48.999779 2.565783 0 354 15 0
2022-05-17 19:53:51 GMT 48.999607 2.565801 0 340 13 0
2022-05-17 19:53:48 GMT 48.999409 2.565904 0 315 12 0
2022-05-17 19:53:45 GMT 48.999336 2.565976 0 300 12 0
2022-05-17 19:53:44 GMT 48.999287 2.566065 0 289 12 0
2022-05-17 19:53:41 GMT 48.999229 2.566276 0 272 12 0
2022-05-17 19:53:40 GMT 48.999210 2.566554 0 264 14 0
2022-05-17 19:53:38 GMT 48.999210 2.566554 0 264 14 0
2022-05-17 19:53:37 GMT 48.999245 2.566988 0 264 18 0
2022-05-17 19:53:34 GMT 48.999245 2.566988 0 264 18 0
2022-05-17 19:53:31 GMT 48.999264 2.567368 0 264 21 0
2022-05-17 19:53:29 GMT 48.999275 2.567649 0 264 22 0
2022-05-17 19:53:28 GMT 48.999290 2.567819 0 264 24 0
2022-05-17 19:53:27 GMT 48.999298 2.567966 0 264 25 0
2022-05-17 19:53:25 GMT 48.999310 2.568283 0 264 25 0
2022-05-17 19:53:20 GMT 48.999355 2.569075 0 264 26 0
2022-05-17 19:53:19 GMT 48.999401 2.569868 0 264 26 0
2022-05-17 19:53:16 GMT 48.999401 2.569868 0 264 26 0
2022-05-17 19:53:14 GMT 48.999424 2.570325 0 264 26 0
2022-05-17 19:53:11 GMT 48.999454 2.570873 0 264 26 0
2022-05-17 19:53:05 GMT 48.999504 2.571910 0 264 26 0
2022-05-17 19:52:58 GMT 48.999584 2.573266 0 264 28 0
2022-05-17 19:52:53 GMT 48.999630 2.574126 0 264 28 0
2022-05-17 19:52:52 GMT 48.999641 2.574392 0 264 27 0
2022-05-17 19:52:48 GMT 48.999687 2.575167 0 264 28 0
2022-05-17 19:50:59 GMT 49.000740 2.594921 0 264 16 0
2022-05-17 19:49:34 GMT 48.995968 2.596700 0 50 16 0
2022-05-17 19:49:28 GMT 48.995693 2.595995 0 64 24 0
2022-05-17 19:49:07 GMT 48.994404 2.591400 0 75 41 0
2022-05-17 19:49:05 GMT 48.994308 2.590804 0 78 41 0
2022-05-17 19:49:03 GMT 48.994251 2.590280 0 81 44 0
2022-05-17 19:49:02 GMT 48.994160 2.588900 0 84 52 0
2022-05-17 19:48:59 GMT 48.994137 2.588530 0 84 54 0
2022-05-17 19:48:56 GMT 48.994022 2.586488 0 84 65 0
2022-05-17 19:48:53 GMT 48.994022 2.586488 0 84 65 0
2022-05-17 19:48:52 GMT 48.993999 2.585960 0 84 69 0
2022-05-17 19:48:51 GMT 48.993919 2.584551 0 84 78 0
2022-05-17 19:48:49 GMT 48.993919 2.584551 0 84 78 0
2022-05-17 19:48:46 GMT 48.993832 2.582962 0 84 84 0
2022-05-17 19:48:45 GMT 48.993805 2.582351 0 84 90 0
2022-05-17 19:48:43 GMT 48.993530 2.577843 200 85 108 -64
2022-05-17 19:48:39 GMT 48.993530 2.577843 200 85 124 -128
2022-05-17 19:48:38 GMT 48.993530 2.577089 200 85 124 -128
2022-05-17 19:48:33 GMT 48.993256 2.572491 200 85 134 -128
2022-05-17 19:48:32 GMT 48.993202 2.571379 200 85 134 -192
2022-05-17 19:48:30 GMT 48.993111 2.569717 200 85 133 -640
2022-05-17 19:48:28 GMT 48.993027 2.567843 250 85 133 -640
2022-05-17 19:48:26 GMT 48.992924 2.565958 275 85 133 -704
2022-05-17 19:48:25 GMT 48.992878 2.565019 275 85 133 -704
2022-05-17 19:48:23 GMT 48.992786 2.563212 300 85 132 -640
2022-05-17 19:48:21 GMT 48.992661 2.561364 325 85 132 -640
2022-05-17 19:48:20 GMT 48.992599 2.560031 350 85 132 -640
2022-05-17 19:48:18 GMT 48.992504 2.558513 350 85 132 -640
2022-05-17 19:48:17 GMT 48.992458 2.557429 375 85 132 -640
2022-05-17 19:48:13 GMT 48.992271 2.553743 425 85 132 -704
2022-05-17 19:48:12 GMT 48.992226 2.552803 425 85 132 -640
2022-05-17 19:48:10 GMT 48.992134 2.550996 450 85 132 -704
2022-05-17 19:48:08 GMT 48.992088 2.549912 475 85 132 -704
2022-05-17 19:48:07 GMT 48.991993 2.548178 500 85 132 -640
2022-05-17 19:48:05 GMT 48.991901 2.547166 500 85 132 -640
2022-05-17 19:48:04 GMT 48.991791 2.544955 525 85 131 -640
2022-05-17 19:48:02 GMT 48.991760 2.544130 525 85 131 -640
2022-05-17 19:48:01 GMT 48.991714 2.543263 575 85 131 -640
2022-05-17 19:47:59 GMT 48.991608 2.541433 575 85 132 -640
2022-05-17 19:47:58 GMT 48.991573 2.540588 575 85 132 -640
2022-05-17 19:47:57 GMT 48.991516 2.539602 575 85 132 -640
2022-05-17 19:47:56 GMT 48.991425 2.537842 600 85 132 -640
2022-05-17 19:47:54 GMT 48.991341 2.536469 625 85 132 -640
2022-05-17 19:47:53 GMT 48.991241 2.534673 650 85 132 -640
2022-05-17 19:47:51 GMT 48.991196 2.533898 650 85 132 -704
2022-05-17 19:47:49 GMT 48.991112 2.531987 675 85 132 -704
2022-05-17 19:47:48 GMT 48.991062 2.531048 700 85 132 -704
2022-05-17 19:47:46 GMT 48.990971 2.529241 700 85 132 -704
2022-05-17 19:47:45 GMT 48.990829 2.527348 725 85 132 -704
2022-05-17 19:47:43 GMT 48.990784 2.526350 750 85 132 -704
2022-05-17 19:47:41 GMT 48.990692 2.524461 775 85 132 -640
2022-05-17 19:47:39 GMT 48.990601 2.522560 800 85 132 -704
2022-05-17 19:47:38 GMT 48.990509 2.521221 800 85 132 -704
2022-05-17 19:47:36 GMT 48.990459 2.519844 825 85 132 -704
2022-05-17 19:47:34 GMT 48.990326 2.518052 850 85 132 -704
2022-05-17 19:47:33 GMT 48.990227 2.516231 875 85 132 -704
2022-05-17 19:47:30 GMT 48.990086 2.513339 900 85 132 -704
2022-05-17 19:47:28 GMT 48.989960 2.511362 925 85 132 -704
2022-05-17 19:47:26 GMT 48.989944 2.510448 975 85 132 -704
2022-05-17 19:47:24 GMT 48.989822 2.508404 975 85 132 0
2022-05-17 19:47:22 GMT 48.989731 2.506855 975 85 132 -704
2022-05-17 19:47:21 GMT 48.989685 2.505657 1,000 85 132 -704
2022-05-17 19:47:19 GMT 48.989574 2.504160 1,025 85 132 -704
2022-05-17 19:47:18 GMT 48.989433 2.501269 1,050 85 132 -704
2022-05-17 19:47:16 GMT 48.989433 2.501269 1,050 85 132 -704
2022-05-17 19:47:14 GMT 48.989319 2.499460 1,075 85 132 -640
2022-05-17 19:47:13 GMT 48.989201 2.497366 1,100 85 132 -640
2022-05-17 19:47:11 GMT 48.989155 2.496426 1,125 85 132 -640
2022-05-17 19:47:10 GMT 48.989109 2.495559 1,125 85 132 -640
2022-05-17 19:47:08 GMT 48.988998 2.493474 1,150 85 132 -640
2022-05-17 19:47:07 GMT 48.988968 2.492595 1,150 85 132 -640
2022-05-17 19:47:04 GMT 48.988781 2.489777 1,175 85 133 -640
2022-05-17 19:47:03 GMT 48.988735 2.488909 1,200 85 133 -640
2022-05-17 19:47:02 GMT 48.988689 2.487897 1,225 85 133 -640
2022-05-17 19:47:01 GMT 48.988586 2.485798 1,250 85 133 -640
2022-05-17 19:46:59 GMT 48.988548 2.485295 1,250 85 133 -640
2022-05-17 19:46:58 GMT 48.988403 2.482488 1,275 85 133 -576
2022-05-17 19:46:56 GMT 48.988358 2.481572 1,300 85 133 -576
2022-05-17 19:46:53 GMT 48.988270 2.480308 1,300 85 133 -576
2022-05-17 19:46:51 GMT 48.988174 2.478121 1,325 85 133 -576
2022-05-17 19:46:49 GMT 48.988083 2.476361 1,350 85 133 -576
2022-05-17 19:46:48 GMT 48.987991 2.474530 1,350 85 133 -576
2022-05-17 19:46:46 GMT 48.987946 2.473614 1,375 85 133 -576
2022-05-17 19:46:44 GMT 48.987804 2.471490 1,400 85 133 -576
2022-05-17 19:46:43 GMT 48.987762 2.470515 1,425 85 134 -640
2022-05-17 19:46:41 GMT 48.987671 2.468684 1,425 85 134 -640
2022-05-17 19:46:39 GMT 48.987526 2.466431 1,450 84 135 -640
2022-05-17 19:46:37 GMT 48.987431 2.464913 1,475 84 136 -704
2022-05-17 19:46:36 GMT 48.987385 2.463612 1,500 84 137 -704
2022-05-17 19:46:35 GMT 48.987305 2.462064 1,500 85 138 -768
2022-05-17 19:46:33 GMT 48.987247 2.461010 1,525 85 139 -832
2022-05-17 19:46:32 GMT 48.987122 2.458895 1,550 85 140 -896
2022-05-17 19:46:30 GMT 48.987076 2.457909 1,550 85 141 -896
2022-05-17 19:46:29 GMT 48.987030 2.456994 1,575 85 142 -960
2022-05-17 19:46:27 GMT 48.986893 2.454811 1,600 85 143 -960
2022-05-17 19:46:26 GMT 48.986801 2.452768 1,625 85 144 -960
2022-05-17 19:46:24 GMT 48.986710 2.451712 1,675 85 145 -1024
2022-05-17 19:46:22 GMT 48.986641 2.449734 1,675 85 147 -1024
2022-05-17 19:46:21 GMT 48.986595 2.448867 1,725 85 149 -960
2022-05-17 19:46:19 GMT 48.986500 2.447132 1,725 85 150 -960
2022-05-17 19:46:17 GMT 48.986389 2.445092 1,750 85 152 -896
2022-05-17 19:46:16 GMT 48.986317 2.444024 1,775 85 153 -896
2022-05-17 19:46:15 GMT 48.986176 2.441711 1,800 85 155 -832
2022-05-17 19:46:13 GMT 48.986080 2.439760 1,825 85 158 -704
2022-05-17 19:46:11 GMT 48.985989 2.438098 1,850 85 159 -640
2022-05-17 19:46:10 GMT 48.985897 2.436074 1,850 85 161 -576
2022-05-17 19:46:08 GMT 48.985794 2.433965 1,875 85 164 -640
2022-05-17 19:46:06 GMT 48.985710 2.432749 1,900 85 166 -768
2022-05-17 19:46:05 GMT 48.985615 2.431520 1,925 85 166 -896
2022-05-17 19:46:04 GMT 48.985565 2.429950 1,925 85 167 -896
2022-05-17 19:46:02 GMT 48.985432 2.427617 1,950 85 168 -832
2022-05-17 19:46:00 GMT 48.985291 2.425302 1,975 85 171 -768
2022-05-17 19:45:58 GMT 48.985153 2.422697 2,000 85 174 -704
2022-05-17 19:45:57 GMT 48.985104 2.421473 2,025 85 174 -832
2022-05-17 19:45:55 GMT 48.984966 2.419088 2,050 85 176 -896
2022-05-17 19:45:54 GMT 48.984825 2.416269 2,075 85 177 -896
2022-05-17 19:45:51 GMT 48.984695 2.414034 2,100 85 180 -896
2022-05-17 19:45:50 GMT 48.984604 2.412908 2,125 85 180 -896
2022-05-17 19:45:48 GMT 48.984467 2.410302 2,175 85 182 -960
2022-05-17 19:45:46 GMT 48.984406 2.408897 2,175 85 183 -960
2022-05-17 19:45:44 GMT 48.984238 2.406006 2,225 85 183 -1024
2022-05-17 19:45:43 GMT 48.984173 2.404777 2,225 85 184 -1024
2022-05-17 19:45:41 GMT 48.984009 2.401921 2,275 85 185 -1024
2022-05-17 19:45:40 GMT 48.983940 2.400513 2,275 85 185 -1024
2022-05-17 19:45:38 GMT 48.983803 2.398417 2,325 85 185 -1088
2022-05-17 19:45:37 GMT 48.983505 2.393048 2,375 85 186 -1088
2022-05-17 19:45:35 GMT 48.983505 2.393048 2,375 85 186 -1088
2022-05-17 19:45:33 GMT 48.983429 2.391622 2,425 85 187 -1088
2022-05-17 19:45:32 GMT 48.983368 2.390160 2,450 85 187 -1088
2022-05-17 19:45:31 GMT 48.983231 2.387414 2,450 85 187 -1088
2022-05-17 19:45:29 GMT 48.983139 2.386005 2,475 85 187 -1088
2022-05-17 19:45:28 GMT 48.983009 2.383383 2,525 85 188 -1088
2022-05-17 19:45:26 GMT 48.982918 2.382009 2,525 85 188 -1088
2022-05-17 19:45:23 GMT 48.982635 2.377167 2,600 85 189 -1024
2022-05-17 19:45:21 GMT 48.982590 2.375793 2,625 85 189 -1088
2022-05-17 19:45:19 GMT 48.982403 2.373047 2,650 85 189 -1088
2022-05-17 19:45:17 GMT 48.982265 2.370228 2,700 85 190 -1024
2022-05-17 19:45:16 GMT 48.982178 2.368821 2,700 85 190 -1024
2022-05-17 19:45:15 GMT 48.982132 2.367554 2,750 85 190 -1024
2022-05-17 19:45:13 GMT 48.981949 2.364666 2,750 85 191 -960
2022-05-17 19:45:12 GMT 48.981903 2.363328 2,775 85 191 -960
2022-05-17 19:45:09 GMT 48.981674 2.359314 2,825 85 191 -960
2022-05-17 19:45:08 GMT 48.981583 2.358117 2,850 85 191 -960
2022-05-17 19:45:07 GMT 48.981426 2.355266 2,900 85 192 -896
2022-05-17 19:45:05 GMT 48.981380 2.354038 2,900 85 192 -896
2022-05-17 19:45:04 GMT 48.981194 2.351291 2,925 85 192 -896
2022-05-17 19:45:02 GMT 48.981125 2.349877 2,925 85 193 -896
2022-05-17 19:45:01 GMT 48.980961 2.346882 2,975 85 193 -896
2022-05-17 19:44:58 GMT 48.980759 2.342764 3,025 85 193 -832
2022-05-17 19:44:56 GMT 48.980667 2.341567 3,025 85 193 -832
2022-05-17 19:44:54 GMT 48.980530 2.338891 3,050 84 193 -832
2022-05-17 19:44:52 GMT 48.980354 2.336185 3,100 85 193 -832
2022-05-17 19:44:51 GMT 48.980309 2.334739 3,100 85 193 -832
2022-05-17 19:44:49 GMT 48.980164 2.332200 3,125 85 193 -832
2022-05-17 19:44:48 GMT 48.980076 2.330619 3,150 85 192 -832
2022-05-17 19:44:47 GMT 48.979935 2.328397 3,175 85 192 -768
2022-05-17 19:44:45 GMT 48.979843 2.326789 3,175 85 192 -768
2022-05-17 19:44:44 GMT 48.979706 2.324114 3,225 85 192 -832
2022-05-17 19:44:41 GMT 48.979519 2.320717 3,250 85 192 -832
2022-05-17 19:44:39 GMT 48.979378 2.318477 3,275 85 191 -832
2022-05-17 19:44:38 GMT 48.979240 2.315802 3,300 85 191 -896
2022-05-17 19:44:36 GMT 48.979156 2.314453 3,300 85 191 -896
2022-05-17 19:44:34 GMT 48.978958 2.311321 3,350 85 191 -960
2022-05-17 19:44:32 GMT 48.978867 2.309153 3,375 85 191 -960
2022-05-17 19:44:31 GMT 48.978790 2.307833 3,400 85 191 -1024
2022-05-17 19:44:29 GMT 48.978634 2.305467 3,425 85 191 -1024
2022-05-17 19:44:28 GMT 48.978561 2.304171 3,425 85 192 -1088
2022-05-17 19:44:25 GMT 48.978355 2.299684 3,500 85 192 -1152
2022-05-17 19:44:23 GMT 48.978214 2.297154 3,550 85 192 -1152
2022-05-17 19:44:22 GMT 48.978104 2.295861 3,550 85 192 -1216
2022-05-17 19:44:19 GMT 48.977829 2.290509 3,625 85 193 -1216
2022-05-17 19:44:17 GMT 48.977657 2.287614 3,675 85 194 -1280
2022-05-17 19:44:14 GMT 48.977509 2.284734 3,725 85 194 -1280
2022-05-17 19:44:13 GMT 48.977379 2.282554 3,775 84 194 -1280
2022-05-17 19:44:09 GMT 48.977142 2.277973 3,825 85 195 -1344
2022-05-17 19:44:08 GMT 48.977051 2.276700 3,850 85 195 -1344
2022-05-17 19:44:06 GMT 48.976913 2.274099 3,900 85 196 -1344
2022-05-17 19:44:05 GMT 48.976772 2.271207 3,925 85 196 -1344
2022-05-17 19:44:03 GMT 48.976677 2.269761 3,950 85 197 -1344
2022-05-17 19:44:02 GMT 48.976494 2.266942 4,025 85 197 -1344
2022-05-17 19:44:00 GMT 48.976410 2.265508 4,050 85 198 -1344
2022-05-17 19:43:58 GMT 48.976307 2.263328 4,100 85 198 -1344
2022-05-17 19:43:56 GMT 48.976135 2.260014 4,125 85 199 -1344
2022-05-17 19:43:54 GMT 48.975933 2.257040 4,150 85 199 -1344
2022-05-17 19:43:53 GMT 48.975861 2.255507 4,200 85 199 -1280
2022-05-17 19:43:52 GMT 48.975769 2.253958 4,225 85 200 -1280
2022-05-17 19:43:50 GMT 48.975632 2.251282 4,250 85 201 -1088
2022-05-17 19:43:49 GMT 48.975559 2.249812 4,275 85 201 -1088
2022-05-17 19:43:47 GMT 48.975266 2.244732 4,325 85 201 -1088
2022-05-17 19:43:45 GMT 48.975266 2.244732 4,325 85 201 -1088
2022-05-17 19:43:43 GMT 48.975098 2.242078 4,375 85 201 -1088
2022-05-17 19:43:42 GMT 48.975002 2.240344 4,400 84 201 -1088
2022-05-17 19:43:40 GMT 48.974861 2.238031 4,425 84 201 -1024
2022-05-17 19:43:39 GMT 48.974770 2.236585 4,450 84 201 -960
2022-05-17 19:43:38 GMT 48.974583 2.233188 4,475 84 201 -896
2022-05-17 19:43:36 GMT 48.974537 2.231887 4,500 84 201 -896
2022-05-17 19:43:35 GMT 48.974445 2.230514 4,525 84 201 -896
2022-05-17 19:43:33 GMT 48.974304 2.227695 4,525 84 201 -832
2022-05-17 19:43:32 GMT 48.974213 2.226105 4,575 84 201 -832
2022-05-17 19:43:30 GMT 48.974030 2.223182 4,575 84 201 -768
2022-05-17 19:43:29 GMT 48.973938 2.221774 4,600 84 201 -704
2022-05-17 19:43:27 GMT 48.973801 2.219168 4,600 84 202 -704
2022-05-17 19:43:26 GMT 48.973698 2.217793 4,625 84 202 -640
2022-05-17 19:43:24 GMT 48.973526 2.214872 4,650 84 202 -640
2022-05-17 19:43:22 GMT 48.973389 2.211984 4,675 84 202 -576
2022-05-17 19:43:20 GMT 48.973251 2.209801 4,675 84 202 -576
2022-05-17 19:43:19 GMT 48.973141 2.207746 4,700 84 202 -576
2022-05-17 19:43:17 GMT 48.972977 2.204731 4,700 84 202 -576
2022-05-17 19:43:15 GMT 48.972816 2.202181 4,725 84 203 -576
2022-05-17 19:43:13 GMT 48.972630 2.199217 4,750 85 203 -576
2022-05-17 19:43:11 GMT 48.972443 2.195603 4,775 85 204 -576
2022-05-17 19:43:09 GMT 48.972347 2.194302 4,775 85 205 -576
2022-05-17 19:43:07 GMT 48.972198 2.191350 4,800 84 205 -576
2022-05-17 19:43:06 GMT 48.972107 2.189871 4,800 85 206 -576
2022-05-17 19:43:05 GMT 48.971970 2.187265 4,825 85 206 -576
2022-05-17 19:43:03 GMT 48.971836 2.185123 4,825 85 206 -576
2022-05-17 19:43:00 GMT 48.971603 2.180931 4,850 85 206 -448
2022-05-17 19:42:59 GMT 48.971512 2.178744 4,875 85 206 -448
2022-05-17 19:42:57 GMT 48.971375 2.175997 4,875 85 206 -320
2022-05-17 19:42:54 GMT 48.970963 2.169166 4,900 85 206 -128
2022-05-17 19:42:52 GMT 48.970779 2.165926 4,900 84 205 -64
2022-05-17 19:42:50 GMT 48.970673 2.164379 4,900 84 205 -64
2022-05-17 19:42:48 GMT 48.970596 2.162969 4,900 84 206 -64
2022-05-17 19:42:46 GMT 48.970394 2.159970 4,900 83 206 -64
2022-05-17 19:42:45 GMT 48.970303 2.158524 4,900 83 206 -64
2022-05-17 19:42:44 GMT 48.970001 2.154518 4,900 83 206 -64
2022-05-17 19:42:42 GMT 48.970001 2.154518 4,900 83 206 -128
2022-05-17 19:42:40 GMT 48.969788 2.151658 4,925 83 206 -128
2022-05-17 19:42:39 GMT 48.969452 2.147545 4,925 82 205 -192
2022-05-17 19:42:35 GMT 48.969135 2.144141 4,925 81 206 -256
2022-05-17 19:42:33 GMT 48.968857 2.141348 4,950 81 207 -320
2022-05-17 19:42:30 GMT 48.968487 2.137564 4,950 79 207 -448
2022-05-17 19:42:28 GMT 48.968079 2.134235 4,975 78 208 -576
2022-05-17 19:42:27 GMT 48.967693 2.131420 5,000 77 208 -576
2022-05-17 19:42:25 GMT 48.967552 2.130553 5,000 76 208 -576
2022-05-17 19:42:24 GMT 48.967026 2.127193 5,025 75 208 -576
2022-05-17 19:42:22 GMT 48.966751 2.125714 5,025 71 209 -640
2022-05-17 19:42:20 GMT 48.966206 2.122963 5,050 71 209 -640
2022-05-17 19:42:19 GMT 48.965881 2.121488 5,050 69 210 -640
2022-05-17 19:42:18 GMT 48.964828 2.117403 5,075 68 210 -640
2022-05-17 19:42:16 GMT 48.964417 2.115925 5,100 65 210 -640
2022-05-17 19:42:14 GMT 48.963959 2.114446 5,125 62 210 -640
2022-05-17 19:42:13 GMT 48.962814 2.110854 5,150 62 210 -640
2022-05-17 19:42:11 GMT 48.962814 2.110854 5,150 59 210 -640
2022-05-17 19:42:09 GMT 48.961212 2.106628 5,175 59 210 -576
2022-05-17 19:42:06 GMT 48.959312 2.101858 5,200 58 210 -576
2022-05-17 19:42:04 GMT 48.958374 2.099375 5,225 59 209 -576
2022-05-17 19:42:02 GMT 48.958374 2.099375 5,225 59 209 -576
2022-05-17 19:41:59 GMT 48.955811 2.092966 5,275 59 209 -576
2022-05-17 19:41:57 GMT 48.955811 2.092966 5,275 59 209 -576
2022-05-17 19:41:55 GMT 48.955032 2.090944 5,300 59 209 -576
2022-05-17 19:41:54 GMT 48.954529 2.089726 5,300 58 210 -576
2022-05-17 19:41:53 GMT 48.953030 2.085884 5,325 58 210 -576
2022-05-17 19:41:51 GMT 48.953030 2.085884 5,325 58 210 -576
2022-05-17 19:41:49 GMT 48.951370 2.081909 5,350 57 211 -512
2022-05-17 19:41:47 GMT 48.951077 2.081186 5,350 56 211 -512
2022-05-17 19:41:45 GMT 48.949120 2.076777 5,375 54 213 -512
2022-05-17 19:41:42 GMT 48.948048 2.074464 5,400 52 213 -512
2022-05-17 19:41:41 GMT 48.947536 2.073453 5,425 50 213 -512
2022-05-17 19:41:39 GMT 48.946140 2.070851 5,425 47 213 -576
2022-05-17 19:41:38 GMT 48.945488 2.069839 5,450 42 214 -576
2022-05-17 19:41:36 GMT 48.943954 2.067613 5,450 40 214 -576
2022-05-17 19:41:35 GMT 48.943222 2.066627 5,475 38 214 -576
2022-05-17 19:41:34 GMT 48.941952 2.065141 5,475 33 214 -640
2022-05-17 19:41:31 GMT 48.939880 2.063106 5,500 31 214 -640
2022-05-17 19:41:30 GMT 48.939064 2.062394 5,525 29 214 -640
2022-05-17 19:41:29 GMT 48.938179 2.061743 5,550 25 214 -640
2022-05-17 19:41:28 GMT 48.936413 2.060515 5,550 20 213 -640
2022-05-17 19:41:26 GMT 48.935440 2.060007 5,575 18 213 -640
2022-05-17 19:41:25 GMT 48.933384 2.059069 5,600 14 212 -640
2022-05-17 19:41:22 GMT 48.932316 2.058636 5,600 12 212 -640
2022-05-17 19:41:21 GMT 48.930405 2.058035 5,625 7 210 -704
2022-05-17 19:41:18 GMT 48.928391 2.057683 5,650 4 210 -640
2022-05-17 19:41:17 GMT 48.926449 2.057479 5,675 3 209 -640
2022-05-17 19:41:15 GMT 48.925472 2.057407 5,700 3 209 -640
2022-05-17 19:41:14 GMT 48.924454 2.057331 5,750 2 209 -832
2022-05-17 19:41:12 GMT 48.922028 2.057118 5,750 2 209 -832
2022-05-17 19:41:10 GMT 48.920471 2.057049 5,775 2 210 -1088
2022-05-17 19:41:09 GMT 48.919605 2.056973 5,775 2 211 -1216
2022-05-17 19:41:07 GMT 48.917496 2.056838 5,825 2 211 -1472
2022-05-17 19:41:06 GMT 48.916580 2.056756 5,850 2 212 -1536
2022-05-17 19:41:04 GMT 48.914658 2.056627 5,900 2 212 -1600
2022-05-17 19:41:03 GMT 48.913368 2.056539 5,925 2 212 -1600
2022-05-17 19:41:02 GMT 48.912369 2.056415 5,975 2 213 -1664
2022-05-17 19:41:00 GMT 48.910526 2.056250 6,025 3 213 -1664
2022-05-17 19:40:59 GMT 48.909130 2.056178 6,050 3 213 -1728
2022-05-17 19:40:56 GMT 48.906235 2.055922 6,125 3 213 -1792
2022-05-17 19:40:54 GMT 48.904846 2.055744 6,200 3 213 -1920
2022-05-17 19:40:53 GMT 48.903870 2.055672 6,225 3 213 -1856
2022-05-17 19:40:51 GMT 48.902161 2.055500 6,275 3 214 -1856
2022-05-17 19:40:50 GMT 48.900192 2.055288 6,325 3 214 -1856
2022-05-17 19:40:48 GMT 48.896702 2.054949 6,425 4 214 -1856
2022-05-17 19:40:46 GMT 48.896702 2.054949 6,475 4 214 -1792
2022-05-17 19:40:44 GMT 48.894745 2.054725 6,500 3 214 -1856
2022-05-17 19:40:43 GMT 48.893768 2.054660 6,550 3 214 -1920
2022-05-17 19:40:40 GMT 48.889626 2.054299 6,700 2 214 -2112
2022-05-17 19:40:38 GMT 48.888702 2.054232 6,725 1 214 -2176
2022-05-17 19:40:37 GMT 48.886963 2.054162 6,750 0 213 -2368
2022-05-17 19:40:35 GMT 48.885864 2.054162 6,825 0 212 -2432
2022-05-17 19:40:34 GMT 48.882877 2.054227 6,925 358 211 -2560
2022-05-17 19:40:32 GMT 48.882877 2.054227 6,950 356 209 -2624
2022-05-17 19:40:31 GMT 48.882065 2.054373 7,000 354 209 -2688
2022-05-17 19:40:29 GMT 48.879803 2.054805 7,100 350 208 -2816
2022-05-17 19:40:28 GMT 48.878963 2.055022 7,150 348 208 -2816
2022-05-17 19:40:27 GMT 48.877151 2.055672 7,225 343 206 -2816
2022-05-17 19:40:24 GMT 48.875198 2.056627 7,325 338 205 -2816
2022-05-17 19:40:22 GMT 48.873505 2.057753 7,425 331 203 -2752
2022-05-17 19:40:20 GMT 48.871750 2.059214 7,500 331 203 -2752
2022-05-17 19:40:18 GMT 48.870399 2.060442 7,575 327 201 -2688
2022-05-17 19:40:17 GMT 48.869656 2.061238 7,625 322 201 -2688
2022-05-17 19:40:16 GMT 48.868607 2.062542 7,700 320 200 -2688
2022-05-17 19:40:14 GMT 48.867374 2.064273 7,775 315 199 -2688
2022-05-17 19:40:11 GMT 48.865559 2.067309 7,925 306 198 -2624
2022-05-17 19:40:09 GMT 48.864441 2.069585 8,000 303 197 -2624
2022-05-17 19:40:08 GMT 48.863930 2.070851 8,050 301 196 -2624
2022-05-17 19:40:05 GMT 48.862793 2.073951 8,175 293 195 -2752
2022-05-17 19:40:04 GMT 48.862106 2.076486 8,250 288 194 -2752
2022-05-17 19:40:02 GMT 48.861740 2.078295 8,350 286 194 -2752
2022-05-17 19:40:00 GMT 48.861282 2.080994 8,425 282 192 -2752
2022-05-17 19:39:59 GMT 48.860962 2.083740 8,500 278 192 -2816
2022-05-17 19:39:56 GMT 48.860779 2.086135 8,650 274 192 -2816
2022-05-17 19:39:54 GMT 48.860718 2.088197 8,700 273 192 -2880
2022-05-17 19:39:53 GMT 48.860622 2.092173 8,875 272 191 -2816
2022-05-17 19:39:51 GMT 48.860622 2.092173 8,875 272 191 -2816
2022-05-17 19:39:49 GMT 48.860550 2.094727 8,875 272 191 -2816
2022-05-17 19:39:48 GMT 48.860531 2.096220 9,025 272 191 -2752
2022-05-17 19:39:47 GMT 48.860485 2.098750 9,025 272 191 -2624
2022-05-17 19:39:45 GMT 48.860485 2.100123 9,175 272 192 -2560
2022-05-17 19:39:43 GMT 48.860413 2.102755 9,175 272 192 -2560
2022-05-17 19:39:42 GMT 48.860344 2.105472 9,400 272 192 -2560
2022-05-17 19:39:39 GMT 48.860321 2.108178 9,400 272 192 -2624
2022-05-17 19:39:37 GMT 48.860298 2.110821 9,425 272 192 -2624
2022-05-17 19:39:35 GMT 48.860229 2.113671 9,525 272 192 -2752
2022-05-17 19:39:34 GMT 48.860207 2.114940 9,575 272 192 -2752
2022-05-17 19:39:33 GMT 48.860207 2.117976 9,675 271 192 -2816
2022-05-17 19:39:31 GMT 48.860184 2.119516 9,775 271 192 -2816
2022-05-17 19:39:29 GMT 48.860138 2.122263 9,775 271 192 -2816
2022-05-17 19:39:28 GMT 48.860111 2.123686 9,850 271 192 -2816
2022-05-17 19:39:26 GMT 48.860111 2.125782 9,950 271 192 -2816
2022-05-17 19:39:25 GMT 48.860092 2.127263 9,975 271 192 -2816
2022-05-17 19:39:24 GMT 48.860065 2.129974 10,050 271 192 -2816
2022-05-17 19:39:22 GMT 48.860065 2.131781 10,150 271 192 -2816
2022-05-17 19:39:21 GMT 48.860020 2.134167 10,200 271 192 -2816
2022-05-17 19:39:18 GMT 48.860020 2.136913 10,350 271 191 -2816
2022-05-17 19:39:16 GMT 48.859970 2.139804 10,425 271 191 -2816
2022-05-17 19:39:15 GMT 48.859970 2.142406 10,500 271 191 -2816
2022-05-17 19:39:13 GMT 48.859924 2.143563 10,550 271 191 -2816
2022-05-17 19:39:12 GMT 48.859924 2.146309 10,625 271 191 -2816
2022-05-17 19:39:10 GMT 48.859879 2.147683 10,700 272 191 -2880
2022-05-17 19:39:09 GMT 48.859863 2.150362 10,775 272 191 -2816
2022-05-17 19:39:07 GMT 48.859863 2.151701 10,850 272 191 -2816
2022-05-17 19:39:05 GMT 48.859818 2.154588 10,975 272 191 -2752
2022-05-17 19:39:04 GMT 48.859772 2.158673 11,075 272 191 -2752
2022-05-17 19:39:02 GMT 48.859772 2.158673 11,175 272 191 -2624
2022-05-17 19:39:00 GMT 48.859726 2.161419 11,175 272 191 -2624
2022-05-17 19:38:58 GMT 48.859680 2.165011 11,300 272 191 -2624
2022-05-17 19:38:56 GMT 48.859634 2.166208 11,375 272 191 -2624
2022-05-17 19:38:54 GMT 48.859589 2.169236 11,425 272 191 -2560
2022-05-17 19:38:53 GMT 48.859505 2.173125 11,550 273 192 -2496
2022-05-17 19:38:51 GMT 48.859505 2.173125 11,550 273 192 -2432
2022-05-17 19:38:49 GMT 48.859451 2.175716 11,625 273 192 -2432
2022-05-17 19:38:47 GMT 48.859360 2.178814 11,725 273 193 -2240
2022-05-17 19:38:45 GMT 48.859276 2.181364 11,800 273 194 -2176
2022-05-17 19:38:43 GMT 48.859180 2.184111 11,875 274 195 -1984
2022-05-17 19:38:42 GMT 48.859135 2.185412 11,900 274 196 -1920
2022-05-17 19:38:41 GMT 48.858948 2.189167 12,000 276 198 -1856
2022-05-17 19:38:38 GMT 48.858856 2.190688 12,050 276 200 -1856
2022-05-17 19:38:37 GMT 48.858765 2.192195 12,075 277 200 -1920
2022-05-17 19:38:36 GMT 48.858574 2.194953 12,125 278 201 -1920
2022-05-17 19:38:34 GMT 48.858444 2.196561 12,175 279 203 -1984
2022-05-17 19:38:33 GMT 48.858295 2.197916 12,200 280 203 -1984
2022-05-17 19:38:32 GMT 48.857971 2.200880 12,250 281 204 -2112
2022-05-17 19:38:30 GMT 48.857784 2.202253 12,325 283 205 -2368
2022-05-17 19:38:29 GMT 48.857410 2.205072 12,400 283 204 -2496
2022-05-17 19:38:27 GMT 48.857178 2.206662 12,450 283 205 -2624
2022-05-17 19:38:25 GMT 48.856842 2.208886 12,500 283 205 -2688
2022-05-17 19:38:23 GMT 48.856430 2.211703 12,600 283 205 -2496
2022-05-17 19:38:21 GMT 48.855923 2.214829 12,700 283 205 -2496
2022-05-17 19:38:20 GMT 48.855549 2.217504 12,775 283 206 -2368
2022-05-17 19:38:17 GMT 48.855057 2.220788 12,825 283 207 -2240
2022-05-17 19:38:16 GMT 48.854851 2.222129 12,950 283 208 -2176
2022-05-17 19:38:14 GMT 48.854416 2.225013 12,975 284 208 -2112
2022-05-17 19:38:13 GMT 48.854187 2.226422 12,975 283 209 -2048
2022-05-17 19:38:12 GMT 48.853874 2.228634 13,050 284 209 -2048
2022-05-17 19:38:10 GMT 48.853546 2.230647 13,100 284 209 -2112
2022-05-17 19:38:09 GMT 48.853409 2.231453 13,125 284 209 -2112
2022-05-17 19:38:08 GMT 48.852859 2.235014 13,200 284 208 -2176
2022-05-17 19:38:06 GMT 48.852661 2.236368 13,225 284 209 -2240
2022-05-17 19:38:05 GMT 48.852200 2.239115 13,300 285 209 -2304
2022-05-17 19:38:03 GMT 48.851990 2.240295 13,350 285 208 -2304
2022-05-17 19:38:02 GMT 48.851532 2.243112 13,425 285 208 -2368
2022-05-17 19:38:00 GMT 48.851303 2.244450 13,450 285 207 -2368
2022-05-17 19:37:59 GMT 48.850800 2.247197 13,575 286 208 -2432
2022-05-17 19:37:57 GMT 48.850475 2.249089 13,600 286 207 -2432
2022-05-17 19:37:56 GMT 48.850021 2.251704 13,650 286 207 -2432
2022-05-17 19:37:54 GMT 48.849747 2.253324 13,725 286 206 -2432
2022-05-17 19:37:53 GMT 48.849216 2.256100 13,800 286 206 -2432
2022-05-17 19:37:51 GMT 48.848740 2.258817 13,875 286 205 -2368
2022-05-17 19:37:49 GMT 48.848473 2.260148 13,925 286 205 -2368
2022-05-17 19:37:47 GMT 48.848057 2.262461 13,975 286 204 -2304
2022-05-17 19:37:46 GMT 48.847496 2.265352 14,025 286 204 -2304
2022-05-17 19:37:44 GMT 48.847218 2.266942 14,075 286 203 -2240
2022-05-17 19:37:43 GMT 48.846985 2.268171 14,125 286 203 -2176
2022-05-17 19:37:41 GMT 48.846424 2.271062 14,200 286 204 -1920
2022-05-17 19:37:40 GMT 48.845634 2.275471 14,250 286 204 -1408
2022-05-17 19:37:38 GMT 48.845634 2.275471 14,275 286 205 -1088
2022-05-17 19:37:37 GMT 48.845356 2.276844 14,275 286 207 -768
2022-05-17 19:37:35 GMT 48.844795 2.279808 14,300 287 209 -256
2022-05-17 19:37:34 GMT 48.844666 2.280438 14,300 286 211 0
2022-05-17 19:37:32 GMT 48.844025 2.283889 14,300 286 214 64
2022-05-17 19:37:31 GMT 48.843796 2.285227 14,300 286 215 -64
2022-05-17 19:37:30 GMT 48.843292 2.287903 14,300 286 219 -192
2022-05-17 19:37:28 GMT 48.842926 2.289875 14,300 286 221 -256
2022-05-17 19:37:27 GMT 48.842789 2.290720 14,325 286 221 -320
2022-05-17 19:37:25 GMT 48.842148 2.294312 14,325 286 223 -256
2022-05-17 19:37:23 GMT 48.841583 2.297227 14,325 286 226 -192
2022-05-17 19:37:22 GMT 48.841324 2.298748 14,325 286 227 -192
2022-05-17 19:37:20 GMT 48.840748 2.301997 14,350 286 229 -192
2022-05-17 19:37:19 GMT 48.840466 2.303443 14,350 286 229 -192
2022-05-17 19:37:16 GMT 48.839630 2.308141 14,350 285 231 -192
2022-05-17 19:37:15 GMT 48.839310 2.309875 14,350 286 235 -192
2022-05-17 19:37:13 GMT 48.838852 2.312481 14,350 285 236 -192
2022-05-17 19:37:11 GMT 48.838165 2.316495 14,375 285 240 -192
2022-05-17 19:37:09 GMT 48.837765 2.318910 14,375 285 242 -256
2022-05-17 19:37:07 GMT 48.837021 2.323102 14,375 285 243 -256
2022-05-17 19:37:05 GMT 48.836792 2.324524 14,400 285 244 -256
2022-05-17 19:37:04 GMT 48.836323 2.327150 14,400 285 248 -320
2022-05-17 19:37:03 GMT 48.835876 2.329735 14,400 285 248 -320
2022-05-17 19:37:00 GMT 48.835144 2.334243 14,425 285 251 -448
2022-05-17 19:36:58 GMT 48.834229 2.339806 14,450 285 254 -512
2022-05-17 19:36:57 GMT 48.834229 2.339806 14,450 285 255 -576
2022-05-17 19:36:55 GMT 48.833679 2.343187 14,475 284 256 -768
2022-05-17 19:36:54 GMT 48.833389 2.344931 14,500 284 257 -960
2022-05-17 19:36:52 GMT 48.832878 2.347894 14,525 285 258 -1088
2022-05-17 19:36:51 GMT 48.832226 2.351869 14,550 285 259 -960
2022-05-17 19:36:48 GMT 48.831669 2.355339 14,575 285 260 -832
2022-05-17 19:36:47 GMT 48.831341 2.357218 14,600 285 262 -832
2022-05-17 19:36:45 GMT 48.830750 2.360793 14,625 285 263 -768
2022-05-17 19:36:44 GMT 48.830410 2.362566 14,650 285 263 -768
2022-05-17 19:36:43 GMT 48.829807 2.366253 14,650 286 265 -640
2022-05-17 19:36:41 GMT 48.829479 2.367915 14,675 286 265 -512
2022-05-17 19:36:40 GMT 48.828781 2.371920 14,675 286 267 -384
2022-05-17 19:36:37 GMT 48.828186 2.374948 14,700 287 269 -384
2022-05-17 19:36:35 GMT 48.827477 2.378395 14,700 288 270 -384
2022-05-17 19:36:34 GMT 48.826675 2.382273 14,725 290 272 -384
2022-05-17 19:36:32 GMT 48.826309 2.383892 14,725 290 274 -384
2022-05-17 19:36:31 GMT 48.825851 2.385653 14,725 291 275 -448
2022-05-17 19:36:28 GMT 48.824780 2.389888 14,750 294 278 -448
2022-05-17 19:36:27 GMT 48.823986 2.392562 14,775 296 280 -384
2022-05-17 19:36:25 GMT 48.823105 2.395301 14,775 297 282 -384
2022-05-17 19:36:24 GMT 48.822189 2.397837 14,775 300 285 -448
2022-05-17 19:36:23 GMT 48.821503 2.399738 14,775 302 288 -512
2022-05-17 19:36:21 GMT 48.819809 2.404034 14,800 304 291 -512
2022-05-17 19:36:20 GMT 48.819122 2.405583 14,825 304 293 -512
2022-05-17 19:36:18 GMT 48.816540 2.411427 14,825 305 295 -512
2022-05-17 19:36:16 GMT 48.816540 2.411427 14,850 305 297 -512
2022-05-17 19:36:14 GMT 48.814545 2.415865 14,850 305 300 -576
2022-05-17 19:36:12 GMT 48.813629 2.417837 14,875 305 300 -576
2022-05-17 19:36:11 GMT 48.811325 2.422991 14,900 305 303 -704
2022-05-17 19:36:10 GMT 48.811325 2.422991 14,925 305 304 -704
2022-05-17 19:36:08 GMT 48.809738 2.426570 14,950 305 306 -704
2022-05-17 19:36:06 GMT 48.808483 2.429352 14,950 305 306 -704
2022-05-17 19:36:04 GMT 48.807312 2.431922 14,975 304 314 -128
2022-05-17 19:36:02 GMT 48.803596 2.440266 15,000 304 314 -128
2022-05-17 19:35:59 GMT 48.802711 2.442217 15,000 304 318 64
2022-05-17 19:35:57 GMT 48.801174 2.445759 15,000 304 321 0
2022-05-17 19:35:55 GMT 48.798710 2.451324 15,000 304 326 -64
2022-05-17 19:35:53 GMT 48.797871 2.453131 15,000 304 329 -128
2022-05-17 19:35:52 GMT 48.794861 2.459952 15,000 304 332 -64
2022-05-17 19:35:50 GMT 48.793774 2.462455 15,000 304 335 0
2022-05-17 19:35:48 GMT 48.793774 2.462455 15,000 304 335 0
2022-05-17 19:35:47 GMT 48.792847 2.464529 15,000 304 336 0
2022-05-17 19:35:45 GMT 48.790787 2.469248 15,000 304 339 0
2022-05-17 19:35:42 GMT 48.787582 2.476550 15,000 304 344 -64
2022-05-17 19:35:39 GMT 48.786301 2.479459 15,000 304 344 -64
2022-05-17 19:35:38 GMT 48.785110 2.482206 15,000 304 346 0
2022-05-17 19:35:36 GMT 48.782181 2.488826 15,000 304 351 -64
2022-05-17 19:35:35 GMT 48.782181 2.488826 15,000 304 351 -64
2022-05-17 19:35:33 GMT 48.780369 2.493029 15,000 304 355 -64
2022-05-17 19:35:31 GMT 48.778564 2.497206 15,000 304 355 -64
2022-05-17 19:35:30 GMT 48.777695 2.499178 15,000 304 358 -64
2022-05-17 19:35:29 GMT 48.776871 2.501009 15,000 304 358 -64
2022-05-17 19:35:27 GMT 48.775108 2.505027 15,000 304 360 -64
2022-05-17 19:35:25 GMT 48.773621 2.508474 15,000 304 364 0
2022-05-17 19:35:23 GMT 48.770737 2.515094 15,000 304 367 0
2022-05-17 19:35:21 GMT 48.769730 2.517348 15,000 304 368 0
2022-05-17 19:35:20 GMT 48.766449 2.524904 15,000 304 372 -64
2022-05-17 19:35:18 GMT 48.766449 2.524904 15,000 304 374 -64
2022-05-17 19:35:16 GMT 48.764866 2.528518 15,000 304 376 -64
2022-05-17 19:35:15 GMT 48.763962 2.530658 15,000 304 376 -64
2022-05-17 19:35:14 GMT 48.761745 2.535746 15,000 304 379 -128
2022-05-17 19:35:12 GMT 48.761189 2.536974 15,000 304 381 -128
2022-05-17 19:35:11 GMT 48.760162 2.539391 15,025 304 382 -128
2022-05-17 19:35:10 GMT 48.758240 2.543758 15,025 304 384 -192
2022-05-17 19:35:08 GMT 48.757095 2.546434 15,025 304 386 -256
2022-05-17 19:35:06 GMT 48.755219 2.550800 15,025 304 389 -384
2022-05-17 19:35:05 GMT 48.753834 2.554032 15,050 304 391 -448
2022-05-17 19:35:03 GMT 48.751785 2.558730 15,050 304 393 -576
2022-05-17 19:35:02 GMT 48.750824 2.561012 15,075 304 395 -640
2022-05-17 19:35:00 GMT 48.749039 2.565163 15,075 304 397 -832
2022-05-17 19:34:59 GMT 48.747070 2.569674 15,125 304 399 -960
2022-05-17 19:34:56 GMT 48.745148 2.574181 15,150 303 400 -1088
2022-05-17 19:34:54 GMT 48.743179 2.578829 15,175 303 402 -1216
2022-05-17 19:34:53 GMT 48.740387 2.585238 15,225 303 403 -1344
2022-05-17 19:34:51 GMT 48.738007 2.590822 15,300 303 404 -1536
2022-05-17 19:34:49 GMT 48.738007 2.590822 15,300 303 405 -1536
2022-05-17 19:34:47 GMT 48.735992 2.595520 15,350 303 406 -1472
2022-05-17 19:34:46 GMT 48.735031 2.597844 15,375 303 406 -1472
2022-05-17 19:34:44 GMT 48.733070 2.602459 15,425 303 407 -1472
2022-05-17 19:34:42 GMT 48.730911 2.607492 15,475 303 407 -1472
2022-05-17 19:34:41 GMT 48.729858 2.609903 15,500 303 408 -1472
2022-05-17 19:34:39 GMT 48.728073 2.614183 15,550 303 407 -1472
2022-05-17 19:34:38 GMT 48.725830 2.619465 15,600 303 408 -1472
2022-05-17 19:34:36 GMT 48.724876 2.621829 15,625 303 408 -1472
2022-05-17 19:34:34 GMT 48.722923 2.626455 15,675 303 408 -1472
2022-05-17 19:34:33 GMT 48.721897 2.628913 15,700 303 409 -1472
2022-05-17 19:34:30 GMT 48.719376 2.634888 15,750 303 409 -1472
2022-05-17 19:34:28 GMT 48.717407 2.639606 15,800 303 410 -1472
2022-05-17 19:34:27 GMT 48.715801 2.643441 15,850 303 409 -1472
2022-05-17 19:34:25 GMT 48.713608 2.648761 15,900 303 410 -1472
2022-05-17 19:34:23 GMT 48.712074 2.652403 15,950 303 410 -1472
2022-05-17 19:34:22 GMT 48.711052 2.654861 15,975 303 410 -1472
2022-05-17 19:34:20 GMT 48.708893 2.660100 16,050 303 410 -1536
2022-05-17 19:34:19 GMT 48.706768 2.665196 16,075 303 410 -1536
2022-05-17 19:34:17 GMT 48.703720 2.672636 16,125 303 410 -1536
2022-05-17 19:34:15 GMT 48.703720 2.672636 16,150 302 411 -1536
2022-05-17 19:34:13 GMT 48.701340 2.678340 16,200 302 411 -1536
2022-05-17 19:34:12 GMT 48.700241 2.681016 16,225 303 412 -1536
2022-05-17 19:34:10 GMT 48.698387 2.685434 16,275 303 412 -1536
2022-05-17 19:34:08 GMT 48.696487 2.690031 16,325 303 412 -1536
2022-05-17 19:34:07 GMT 48.693359 2.697577 16,400 302 412 -1536
2022-05-17 19:34:05 GMT 48.693359 2.697577 16,400 302 412 -1536
2022-05-17 19:34:03 GMT 48.691360 2.702420 16,500 302 412 -1536
2022-05-17 19:34:01 GMT 48.689575 2.706792 16,500 302 412 -1536
2022-05-17 19:33:59 GMT 48.687496 2.711816 16,550 302 413 -1536
2022-05-17 19:33:57 GMT 48.685123 2.717598 16,625 302 412 -1472
2022-05-17 19:33:55 GMT 48.683578 2.721370 16,625 302 412 -1472
2022-05-17 19:33:53 GMT 48.680981 2.727717 16,775 302 412 -1472
2022-05-17 19:33:50 GMT 48.678864 2.732849 16,775 302 411 -1472
2022-05-17 19:33:49 GMT 48.677307 2.736652 16,825 302 411 -1536
2022-05-17 19:33:46 GMT 48.674103 2.744469 16,900 302 410 -1472
2022-05-17 19:33:44 GMT 48.672504 2.748317 16,950 302 410 -1472
2022-05-17 19:33:43 GMT 48.671528 2.750702 16,975 302 410 -1472
2022-05-17 19:33:41 GMT 48.669159 2.756442 17,025 302 410 -1472
2022-05-17 19:33:39 GMT 48.667107 2.761471 17,075 303 410 -1472
2022-05-17 19:33:37 GMT 48.663197 2.770868 17,175 303 410 -1472
2022-05-17 19:33:35 GMT 48.663197 2.770868 17,175 303 410 -1472
2022-05-17 19:33:33 GMT 48.661423 2.775175 17,225 303 410 -1472
2022-05-17 19:33:31 GMT 48.659546 2.779611 17,275 303 410 -1472
2022-05-17 19:33:30 GMT 48.656212 2.787708 17,325 303 410 -1472
2022-05-17 19:33:28 GMT 48.654724 2.791178 17,375 303 410 -1472
2022-05-17 19:33:26 GMT 48.652588 2.796302 17,450 303 410 -1472
2022-05-17 19:33:24 GMT 48.650066 2.802381 17,450 303 410 -1472
2022-05-17 19:33:22 GMT 48.650066 2.802381 17,500 303 410 -1536
2022-05-17 19:33:20 GMT 48.648468 2.806303 17,525 303 410 -1536
2022-05-17 19:33:18 GMT 48.645676 2.812993 17,625 302 411 -1472
2022-05-17 19:33:16 GMT 48.644211 2.816514 17,650 302 411 -1472
2022-05-17 19:33:15 GMT 48.643204 2.818979 17,675 302 411 -1472
2022-05-17 19:33:14 GMT 48.640640 2.825106 17,750 302 411 -1472
2022-05-17 19:33:11 GMT 48.639545 2.827823 17,775 302 411 -1536
2022-05-17 19:33:10 GMT 48.638077 2.831374 17,800 302 411 -1536
2022-05-17 19:33:08 GMT 48.636009 2.836280 17,850 302 411 -1600
2022-05-17 19:33:07 GMT 48.635078 2.838593 17,875 302 411 -1664
2022-05-17 19:33:05 GMT 48.633404 2.842640 17,925 302 411 -1664
2022-05-17 19:33:04 GMT 48.631989 2.846093 17,975 302 412 -1792
2022-05-17 19:33:01 GMT 48.629196 2.852783 18,050 302 413 -2048
2022-05-17 19:32:59 GMT 48.627090 2.857854 18,125 302 413 -2176
2022-05-17 19:32:57 GMT 48.625023 2.862878 18,175 302 413 -2176
2022-05-17 19:32:55 GMT 48.621643 2.871094 18,325 303 415 -2304
2022-05-17 19:32:52 GMT 48.620132 2.874756 18,350 303 416 -2432
2022-05-17 19:32:50 GMT 48.618736 2.878057 18,450 303 416 -2432
2022-05-17 19:32:49 GMT 48.617249 2.881743 18,525 303 416 -2560
2022-05-17 19:32:48 GMT 48.616150 2.884263 18,550 302 417 -2560
2022-05-17 19:32:45 GMT 48.611664 2.895179 18,725 302 418 -2624
2022-05-17 19:32:42 GMT 48.609753 2.899740 18,825 302 418 -2688
2022-05-17 19:32:41 GMT 48.608868 2.901908 18,850 302 418 -2752
2022-05-17 19:32:40 GMT 48.606773 2.906968 18,950 302 419 -2752
2022-05-17 19:32:38 GMT 48.604614 2.912292 19,050 302 419 -2816
2022-05-17 19:32:36 GMT 48.601887 2.918894 19,175 302 419 -2944
2022-05-17 19:32:33 GMT 48.600403 2.922504 19,250 302 419 -3136
2022-05-17 19:32:32 GMT 48.599487 2.924758 19,300 302 419 -3136
2022-05-17 19:32:31 GMT 48.596695 2.931519 19,375 302 419 -3200
2022-05-17 19:32:29 GMT 48.596695 2.931519 19,450 302 419 -3200
2022-05-17 19:32:28 GMT 48.595230 2.935084 19,525 302 418 -3200
2022-05-17 19:32:27 GMT 48.594223 2.937505 19,575 302 418 -3072
2022-05-17 19:32:25 GMT 48.591660 2.943702 19,725 302 419 -2944
2022-05-17 19:32:23 GMT 48.590698 2.946097 19,725 302 419 -2624
2022-05-17 19:32:21 GMT 48.588043 2.952505 19,825 302 419 -1984
2022-05-17 19:32:19 GMT 48.586060 2.957418 19,900 302 420 -1600
2022-05-17 19:32:17 GMT 48.584473 2.961238 19,925 302 422 -1408
2022-05-17 19:32:16 GMT 48.583313 2.964068 19,950 302 422 -1088
2022-05-17 19:32:15 GMT 48.582195 2.966815 19,975 302 424 -832
2022-05-17 19:32:12 GMT 48.579163 2.974267 20,000 302 426 -256
2022-05-17 19:32:10 GMT 48.577194 2.979056 20,000 302 427 -64
2022-05-17 19:32:08 GMT 48.574997 2.984408 20,000 302 427 0
2022-05-17 19:32:07 GMT 48.572937 2.989478 20,000 302 427 0
2022-05-17 19:32:04 GMT 48.569412 2.998070 20,000 302 428 -64
2022-05-17 19:32:01 GMT 48.568554 3.000207 20,000 302 427 -64
2022-05-17 19:31:59 GMT 48.565575 3.007580 20,000 302 427 -64
2022-05-17 19:31:57 GMT 48.563480 3.012711 20,000 302 427 -64
2022-05-17 19:31:56 GMT 48.562408 3.015395 20,000 302 427 -64
2022-05-17 19:31:53 GMT 48.559753 3.021874 20,000 302 428 0
2022-05-17 19:31:52 GMT 48.558266 3.025505 20,000 302 428 0
2022-05-17 19:31:50 GMT 48.556137 3.030748 20,000 302 427 0
2022-05-17 19:31:48 GMT 48.552120 3.040611 20,000 302 427 0
2022-05-17 19:31:46 GMT 48.552120 3.040611 20,000 302 427 0
2022-05-17 19:31:44 GMT 48.548950 3.048284 20,000 303 428 0
2022-05-17 19:31:43 GMT 48.548950 3.048284 20,000 303 428 0
2022-05-17 19:31:41 GMT 48.546570 3.053988 20,000 303 428 0
2022-05-17 19:31:39 GMT 48.545425 3.056594 20,000 303 429 0
2022-05-17 19:31:37 GMT 48.542679 3.062932 20,000 304 429 0
2022-05-17 19:31:35 GMT 48.540985 3.066735 20,000 305 430 0
2022-05-17 19:31:33 GMT 48.537086 3.075015 20,000 308 431 0
2022-05-17 19:31:30 GMT 48.535316 3.078485 20,000 309 431 0
2022-05-17 19:31:29 GMT 48.531464 3.085679 20,000 310 431 0
2022-05-17 19:31:27 GMT 48.531464 3.085679 20,000 312 432 0
2022-05-17 19:31:25 GMT 48.528660 3.090483 20,000 313 432 0
2022-05-17 19:31:23 GMT 48.525375 3.095680 20,000 316 432 0
2022-05-17 19:31:20 GMT 48.521988 3.100821 20,000 317 433 0
2022-05-17 19:31:18 GMT 48.519150 3.104764 20,000 318 433 0
2022-05-17 19:31:17 GMT 48.514462 3.111010 20,000 320 434 0
2022-05-17 19:31:15 GMT 48.514462 3.111010 20,000 321 434 0
2022-05-17 19:31:13 GMT 48.511391 3.114696 20,000 323 435 0
2022-05-17 19:31:12 GMT 48.509811 3.116596 20,000 324 436 0
2022-05-17 19:31:09 GMT 48.505417 3.121385 20,000 326 436 0
2022-05-17 19:31:07 GMT 48.501892 3.125104 20,000 328 436 0
2022-05-17 19:31:06 GMT 48.500076 3.126911 20,000 330 437 0
2022-05-17 19:31:04 GMT 48.496765 3.129977 20,000 331 437 0
2022-05-17 19:31:03 GMT 48.494888 3.131667 20,000 331 437 0
2022-05-17 19:31:01 GMT 48.491272 3.134766 20,000 333 438 0
2022-05-17 19:31:00 GMT 48.487610 3.137653 20,000 334 439 0
2022-05-17 19:30:58 GMT 48.485825 3.138991 20,000 335 438 0
2022-05-17 19:30:56 GMT 48.482292 3.141584 20,000 336 438 0
2022-05-17 19:30:54 GMT 48.478523 3.144114 20,000 337 439 0
2022-05-17 19:30:52 GMT 48.470516 3.148884 20,000 340 440 0
2022-05-17 19:30:50 GMT 48.468792 3.149824 20,000 341 440 0
2022-05-17 19:30:47 GMT 48.464882 3.151775 20,000 344 441 0
2022-05-17 19:30:45 GMT 48.461067 3.153510 20,000 345 442 0
2022-05-17 19:30:43 GMT 48.456711 3.155330 20,000 346 441 0
2022-05-17 19:30:41 GMT 48.452454 3.156979 20,000 347 442 0
2022-05-17 19:30:39 GMT 48.448334 3.158428 20,000 347 443 0
2022-05-17 19:30:38 GMT 48.446182 3.159203 20,000 347 443 0
2022-05-17 19:30:35 GMT 48.440643 3.161245 20,000 347 443 0
2022-05-17 19:30:33 GMT 48.436626 3.162689 20,000 347 443 0
2022-05-17 19:30:32 GMT 48.433647 3.163773 20,000 347 443 0
2022-05-17 19:30:30 GMT 48.428970 3.165471 20,000 347 443 0
2022-05-17 19:30:28 GMT 48.427361 3.166014 20,000 347 444 0
2022-05-17 19:30:26 GMT 48.423248 3.167513 20,000 347 444 0
2022-05-17 19:30:25 GMT 48.421326 3.168218 20,000 347 444 0
2022-05-17 19:30:22 GMT 48.414234 3.170784 20,000 347 444 0
2022-05-17 19:30:19 GMT 48.410324 3.172230 20,000 347 444 0
2022-05-17 19:30:18 GMT 48.404663 3.174274 20,000 347 444 -64
2022-05-17 19:30:17 GMT 48.404663 3.174274 20,000 347 444 -64
2022-05-17 19:30:15 GMT 48.399124 3.176246 20,000 347 444 -128
2022-05-17 19:30:13 GMT 48.397057 3.177000 20,025 347 444 -192
2022-05-17 19:30:11 GMT 48.394089 3.178077 20,025 347 444 -192
2022-05-17 19:30:08 GMT 48.385986 3.180965 20,025 347 443 -320
2022-05-17 19:30:05 GMT 48.381741 3.182566 20,050 347 443 -320
2022-05-17 19:30:03 GMT 48.376831 3.184345 20,050 347 443 -448
2022-05-17 19:30:00 GMT 48.371429 3.186317 20,100 347 443 -832
2022-05-17 19:29:58 GMT 48.367218 3.187796 20,100 347 443 -960
2022-05-17 19:29:57 GMT 48.363052 3.189275 20,125 347 443 -1024
2022-05-17 19:29:55 GMT 48.361118 3.190010 20,150 347 443 -1088
2022-05-17 19:29:53 GMT 48.357010 3.191528 20,200 347 443 -1152
2022-05-17 19:29:52 GMT 48.355179 3.192162 20,200 347 443 -1344
2022-05-17 19:29:51 GMT 48.348999 3.194416 20,275 347 443 -1664
2022-05-17 19:29:49 GMT 48.348999 3.194416 20,275 347 443 -1664
2022-05-17 19:29:47 GMT 48.344101 3.196176 20,375 347 443 -1664
2022-05-17 19:29:45 GMT 48.341034 3.197303 20,475 347 443 -1664
2022-05-17 19:29:43 GMT 48.336723 3.198828 20,475 347 442 -1600
2022-05-17 19:29:41 GMT 48.332428 3.200402 20,475 347 442 -1600
2022-05-17 19:29:39 GMT 48.328308 3.201881 20,550 347 442 -1536
2022-05-17 19:29:38 GMT 48.326569 3.202585 20,575 347 442 -1536
2022-05-17 19:29:35 GMT 48.316498 3.206177 20,725 347 440 -1472
2022-05-17 19:29:33 GMT 48.316498 3.206177 20,725 347 440 -1472
2022-05-17 19:29:31 GMT 48.312656 3.207574 20,800 347 438 -1408
2022-05-17 19:29:29 GMT 48.309448 3.208782 20,800 347 437 -1408
2022-05-17 19:29:27 GMT 48.304825 3.210473 20,850 347 436 -1344
2022-05-17 19:29:26 GMT 48.302650 3.211260 20,900 347 435 -1344
2022-05-17 19:29:24 GMT 48.300568 3.212022 20,925 347 434 -1408
2022-05-17 19:29:23 GMT 48.297623 3.213067 21,000 347 433 -1408
2022-05-17 19:29:21 GMT 48.292778 3.214874 21,000 347 433 -1408
2022-05-17 19:29:20 GMT 48.290916 3.215525 21,050 347 433 -1408
2022-05-17 19:29:18 GMT 48.285278 3.217586 21,100 347 433 -1408
2022-05-17 19:29:17 GMT 48.283173 3.218360 21,150 347 433 -1408
2022-05-17 19:29:14 GMT 48.276947 3.220614 21,225 347 432 -1408
2022-05-17 19:29:12 GMT 48.275089 3.221307 21,250 347 432 -1408
2022-05-17 19:29:09 GMT 48.269737 3.223259 21,300 347 432 -1664
2022-05-17 19:29:08 GMT 48.264427 3.225210 21,375 347 432 -1728
2022-05-17 19:29:06 GMT 48.264427 3.225210 21,375 347 432 -1728
2022-05-17 19:29:03 GMT 48.259308 3.227089 21,450 347 433 -1920
2022-05-17 19:29:02 GMT 48.256393 3.228149 21,500 347 433 -2112
2022-05-17 19:29:01 GMT 48.254234 3.228969 21,550 347 434 -2176
2022-05-17 19:29:00 GMT 48.252094 3.229764 21,575 347 434 -2304
2022-05-17 19:28:58 GMT 48.249065 3.230848 21,650 347 435 -2432
2022-05-17 19:28:56 GMT 48.238678 3.234699 21,875 347 436 -2624
2022-05-17 19:28:53 GMT 48.238678 3.234699 21,875 347 436 -2560
2022-05-17 19:28:51 GMT 48.234962 3.236052 21,950 346 438 -2496
2022-05-17 19:28:48 GMT 48.229202 3.238150 22,025 346 438 -2432
2022-05-17 19:28:47 GMT 48.227463 3.238854 22,125 346 439 -2368
2022-05-17 19:28:46 GMT 48.225769 3.239488 22,150 345 440 -2368
2022-05-17 19:28:44 GMT 48.221928 3.241039 22,225 344 440 -2368
2022-05-17 19:28:40 GMT 48.213875 3.244725 22,400 342 441 -2560
2022-05-17 19:28:38 GMT 48.209778 3.246821 22,475 340 441 -2880
2022-05-17 19:28:37 GMT 48.205719 3.248995 22,575 340 440 -2944
2022-05-17 19:28:34 GMT 48.202141 3.251086 22,675 339 441 -3072
2022-05-17 19:28:33 GMT 48.200317 3.252164 22,725 338 441 -3072
2022-05-17 19:28:32 GMT 48.194046 3.256108 22,900 337 441 -3136
2022-05-17 19:28:30 GMT 48.194046 3.256108 22,900 336 442 -3136
2022-05-17 19:28:28 GMT 48.185246 3.262217 23,150 335 441 -3072
2022-05-17 19:28:25 GMT 48.183105 3.263785 23,200 334 441 -3008
2022-05-17 19:28:24 GMT 48.183105 3.263785 23,200 334 441 -2944
2022-05-17 19:28:22 GMT 48.179237 3.266698 23,300 334 443 -2880
2022-05-17 19:28:21 GMT 48.177608 3.267927 23,350 334 443 -2880
2022-05-17 19:28:19 GMT 48.173584 3.270968 23,450 334 443 -2944
2022-05-17 19:28:17 GMT 48.168594 3.274771 23,600 333 444 -3200
2022-05-17 19:28:16 GMT 48.168594 3.274771 23,600 333 444 -3264
2022-05-17 19:28:14 GMT 48.164932 3.277588 23,700 333 444 -3584
2022-05-17 19:28:12 GMT 48.161270 3.280431 23,800 333 444 -3648
2022-05-17 19:28:11 GMT 48.159302 3.281891 23,900 333 444 -3840
2022-05-17 19:28:09 GMT 48.155636 3.284701 24,025 333 444 -3904
2022-05-17 19:28:08 GMT 48.153809 3.286079 24,100 333 444 -4160
2022-05-17 19:28:07 GMT 48.151978 3.287453 24,175 333 444 -4160
2022-05-17 19:28:04 GMT 48.144932 3.292870 24,475 333 442 -5056
2022-05-17 19:28:01 GMT 48.141129 3.295761 24,650 333 442 -5440
2022-05-17 19:28:00 GMT 48.139389 3.297134 24,750 333 442 -5440
2022-05-17 19:27:59 GMT 48.137421 3.298645 24,825 333 442 -5568
2022-05-17 19:27:58 GMT 48.132660 3.302284 25,100 334 440 -5824
2022-05-17 19:27:55 GMT 48.130825 3.303645 25,225 334 440 -5888
2022-05-17 19:27:54 GMT 48.129009 3.305054 25,400 334 440 -6016
2022-05-17 19:27:53 GMT 48.123703 3.309068 25,625 334 440 -6144
2022-05-17 19:27:51 GMT 48.120392 3.311554 25,775 334 439 -6208
2022-05-17 19:27:49 GMT 48.120392 3.311554 25,775 334 438 -6208
2022-05-17 19:27:46 GMT 48.113926 3.316392 26,125 334 437 -5696
2022-05-17 19:27:44 GMT 48.111271 3.318364 26,225 334 438 -4928
2022-05-17 19:27:42 GMT 48.106750 3.321716 26,400 334 438 -4928
2022-05-17 19:27:40 GMT 48.103081 3.324421 26,575 334 439 -4864
2022-05-17 19:27:38 GMT 48.100285 3.326533 26,775 334 439 -4864
2022-05-17 19:27:37 GMT 48.097504 3.328514 26,900 334 439 -4864
2022-05-17 19:27:36 GMT 48.096470 3.329280 27,150 334 440 -5120
2022-05-17 19:27:34 GMT 48.091919 3.332634 27,150 334 440 -5120
2022-05-17 19:27:32 GMT 48.088303 3.335243 27,325 334 439 -5120
2022-05-17 19:27:29 GMT 48.083618 3.338717 27,750 334 439 -5248
2022-05-17 19:27:27 GMT 48.079056 3.342041 27,750 334 439 -5248
2022-05-17 19:27:25 GMT 48.076263 3.344101 27,900 334 439 -5248
2022-05-17 19:27:23 GMT 48.072586 3.346816 28,075 334 438 -5056
2022-05-17 19:27:20 GMT 48.067703 3.350487 28,400 334 440 -4800
2022-05-17 19:27:18 GMT 48.064114 3.353084 28,600 334 440 -4480
2022-05-17 19:27:16 GMT 48.060299 3.355901 28,600 334 440 -4352
2022-05-17 19:27:15 GMT 48.057541 3.357971 28,725 334 441 -4288
2022-05-17 19:27:12 GMT 48.051685 3.362380 28,950 334 442 -4224
2022-05-17 19:27:10 GMT 48.048523 3.364700 29,050 334 442 -4160
2022-05-17 19:27:09 GMT 48.045227 3.367172 29,250 334 444 -3904
2022-05-17 19:27:07 GMT 48.041611 3.369850 29,325 334 444 -3904
2022-05-17 19:27:05 GMT 48.039677 3.371253 29,375 334 444 -3968
2022-05-17 19:27:02 GMT 48.031952 3.377060 29,650 334 447 -4096
2022-05-17 19:27:00 GMT 48.030075 3.378433 29,825 334 448 -3776
2022-05-17 19:26:58 GMT 48.022591 3.384000 29,950 334 451 -3072
2022-05-17 19:26:56 GMT 48.022591 3.384000 29,950 334 452 -2816
2022-05-17 19:26:54 GMT 48.018127 3.387291 30,050 334 453 -2880
2022-05-17 19:26:52 GMT 48.014511 3.390038 30,150 334 453 -3392
2022-05-17 19:26:50 GMT 48.010895 3.392715 30,250 334 453 -3456
2022-05-17 19:26:48 GMT 48.006996 3.395550 30,375 334 452 -3776
2022-05-17 19:26:46 GMT 48.003433 3.398209 30,500 334 451 -3904
2022-05-17 19:26:44 GMT 47.999874 3.400762 30,625 334 449 -4032
2022-05-17 19:26:42 GMT 47.996796 3.403015 30,750 334 448 -4032
2022-05-17 19:26:37 GMT 47.986862 3.410294 31,100 335 444 -3904
2022-05-17 19:26:33 GMT 47.979538 3.415581 31,450 335 443 -3776
2022-05-17 19:26:30 GMT 47.974777 3.419014 31,450 335 440 -3392
2022-05-17 19:26:28 GMT 47.970062 3.422379 31,700 335 439 -3072
2022-05-17 19:26:26 GMT 47.962738 3.427597 31,825 335 437 -2240
2022-05-17 19:26:24 GMT 47.962738 3.427597 31,875 335 437 -1856
2022-05-17 19:26:21 GMT 47.957199 3.431580 31,950 335 437 -1152
2022-05-17 19:26:19 GMT 47.953583 3.434120 32,000 335 437 -768
2022-05-17 19:26:18 GMT 47.951878 3.435340 32,000 335 437 -512
2022-05-17 19:26:17 GMT 47.946476 3.439214 32,050 335 437 -256
2022-05-17 19:26:15 GMT 47.941132 3.442978 32,050 335 437 -256
2022-05-17 19:26:12 GMT 47.941132 3.442978 32,050 335 438 -320
2022-05-17 19:26:10 GMT 47.933628 3.448228 32,075 335 439 -384
2022-05-17 19:26:08 GMT 47.929859 3.450904 32,100 335 439 -448
2022-05-17 19:26:05 GMT 47.929859 3.450904 32,100 335 440 -512
2022-05-17 19:26:03 GMT 47.926041 3.453510 32,100 335 442 -704
2022-05-17 19:26:02 GMT 47.924057 3.454926 32,125 336 442 -768
2022-05-17 19:26:01 GMT 47.920315 3.457524 32,125 336 444 -896
2022-05-17 19:25:59 GMT 47.918289 3.458908 32,150 336 446 -1024
2022-05-17 19:25:57 GMT 47.914402 3.461538 32,175 336 447 -1088
2022-05-17 19:25:56 GMT 47.912495 3.462806 32,200 336 447 -1216
2022-05-17 19:25:54 GMT 47.908817 3.465271 32,225 336 448 -1280
2022-05-17 19:25:52 GMT 47.905014 3.467834 32,275 337 450 -1536
2022-05-17 19:25:51 GMT 47.903278 3.469004 32,300 337 450 -1536
2022-05-17 19:25:49 GMT 47.899612 3.471336 32,350 337 452 -1664
2022-05-17 19:25:48 GMT 47.897690 3.472595 32,475 338 452 -1856
2022-05-17 19:25:45 GMT 47.891739 3.476280 32,475 339 454 -1984
2022-05-17 19:25:42 GMT 47.885494 3.479849 32,600 341 456 -2240
2022-05-17 19:25:40 GMT 47.881439 3.481911 32,675 345 460 -2752
2022-05-17 19:25:39 GMT 47.879349 3.482948 32,700 345 460 -2752
2022-05-17 19:25:37 GMT 47.873669 3.485483 32,925 345 460 -2752
2022-05-17 19:25:34 GMT 47.869446 3.487198 32,925 346 460 -2880
2022-05-17 19:25:32 GMT 47.865372 3.488708 33,025 348 462 -3008
2022-05-17 19:25:30 GMT 47.861195 3.490131 33,125 349 463 -3072
2022-05-17 19:25:29 GMT 47.859100 3.490835 33,350 350 463 -3200
2022-05-17 19:25:26 GMT 47.851746 3.492807 33,350 352 464 -3328
2022-05-17 19:25:24 GMT 47.847885 3.493721 33,450 353 465 -3328
2022-05-17 19:25:22 GMT 47.843830 3.494497 33,550 353 464 -3328
2022-05-17 19:25:19 GMT 47.837173 3.495554 33,700 356 466 -3264
2022-05-17 19:25:18 GMT 47.835114 3.495850 33,825 356 466 -3264
2022-05-17 19:25:14 GMT 47.823997 3.496681 34,075 0 468 -2944
2022-05-17 19:25:11 GMT 47.820511 3.496811 34,125 0 468 -2944
2022-05-17 19:25:08 GMT 47.808792 3.496468 34,300 1 469 -2752
2022-05-17 19:25:06 GMT 47.804764 3.496124 34,575 3 469 -2624
2022-05-17 19:25:01 GMT 47.798538 3.495369 34,575 5 471 -2432
2022-05-17 19:24:59 GMT 47.794113 3.494638 34,625 7 471 -2304
2022-05-17 19:24:57 GMT 47.789658 3.493858 34,725 10 473 -1600
2022-05-17 19:24:55 GMT 47.785175 3.492878 34,800 10 473 -1600
2022-05-17 19:24:54 GMT 47.783157 3.492348 34,825 10 473 -1600
2022-05-17 19:24:51 GMT 47.777260 3.490835 34,925 11 474 -1088
2022-05-17 19:24:49 GMT 47.773071 3.489568 34,925 11 475 -960
2022-05-17 19:24:47 GMT 47.768555 3.488297 34,950 11 476 -384
2022-05-17 19:24:45 GMT 47.763901 3.486892 34,975 11 476 -384
2022-05-17 19:24:43 GMT 47.759125 3.485481 35,000 11 476 -64
2022-05-17 19:24:42 GMT 47.757935 3.485138 35,000 11 476 -64
2022-05-17 19:24:39 GMT 47.752449 3.483511 35,000 11 476 -64
2022-05-17 19:24:38 GMT 47.750015 3.482872 35,000 10 477 0
2022-05-17 19:24:36 GMT 47.743790 3.481046 35,000 10 477 0
2022-05-17 19:24:35 GMT 47.741638 3.480400 35,000 10 477 64
2022-05-17 19:24:33 GMT 47.737656 3.479301 35,000 10 477 64
2022-05-17 19:24:32 GMT 47.735271 3.478581 35,000 10 477 64
2022-05-17 19:24:30 GMT 47.730789 3.477310 35,000 10 477 64
2022-05-17 19:24:27 GMT 47.724197 3.475388 35,000 11 478 64
2022-05-17 19:24:25 GMT 47.720215 3.474220 35,000 11 478 64
2022-05-17 19:24:22 GMT 47.713715 3.472298 35,000 11 478 64
2022-05-17 19:24:20 GMT 47.709015 3.470835 35,000 12 479 0
2022-05-17 19:24:17 GMT 47.702591 3.468796 35,000 13 480 0
2022-05-17 19:24:16 GMT 47.691742 3.464813 35,000 13 480 0
2022-05-17 19:24:12 GMT 47.691742 3.464813 35,000 20 482 0
2022-05-17 19:24:09 GMT 47.686523 3.462547 35,000 20 482 0
2022-05-17 19:24:05 GMT 47.676865 3.457603 35,000 23 482 0
2022-05-17 19:24:03 GMT 47.673916 3.455834 35,000 23 482 0
2022-05-17 19:24:00 GMT 47.668514 3.452454 35,000 25 482 0
2022-05-17 19:23:56 GMT 47.660019 3.446342 35,000 30 482 0
2022-05-17 19:23:54 GMT 47.656128 3.443253 35,000 30 482 0
2022-05-17 19:23:52 GMT 47.652870 3.440481 35,000 30 482 0
2022-05-17 19:23:49 GMT 47.648026 3.436111 35,000 33 483 -64
2022-05-17 19:23:46 GMT 47.642445 3.430692 35,000 37 482 0
2022-05-17 19:23:45 GMT 47.639832 3.427872 35,000 37 482 0
2022-05-17 19:23:43 GMT 47.636066 3.423720 35,000 37 482 0
2022-05-17 19:23:40 GMT 47.631042 3.417709 35,000 41 482 0
2022-05-17 19:23:38 GMT 47.628525 3.414619 35,000 41 482 0
2022-05-17 19:23:37 GMT 47.623825 3.408297 35,000 44 481 0
2022-05-17 19:23:36 GMT 47.623825 3.408297 35,000 44 481 0
2022-05-17 19:23:34 GMT 47.618546 3.400612 35,000 47 481 0
2022-05-17 19:23:32 GMT 47.617027 3.398297 35,000 47 481 0
2022-05-17 19:23:29 GMT 47.613281 3.392166 35,000 49 480 0
2022-05-17 19:23:25 GMT 47.607422 3.381729 35,000 51 480 0
2022-05-17 19:23:24 GMT 47.606277 3.379532 35,000 53 479 0
2022-05-17 19:23:23 GMT 47.603203 3.373437 35,000 55 479 0
2022-05-17 19:23:20 GMT 47.600639 3.368014 35,000 57 477 0
2022-05-17 19:23:19 GMT 47.599430 3.365338 35,000 57 477 0
2022-05-17 19:23:18 GMT 47.598267 3.362591 35,000 59 476 0
2022-05-17 19:23:17 GMT 47.595100 3.354915 35,000 59 476 0
2022-05-17 19:23:15 GMT 47.595100 3.354915 35,000 60 476 0
2022-05-17 19:23:14 GMT 47.590633 3.342872 35,000 67 473 0
2022-05-17 19:23:11 GMT 47.588470 3.336411 35,000 67 473 0
2022-05-17 19:23:08 GMT 47.588470 3.336411 35,000 67 473 0
2022-05-17 19:23:05 GMT 47.585129 3.325356 35,000 68 472 0
2022-05-17 19:23:04 GMT 47.583572 3.319656 35,000 69 472 0
2022-05-17 19:23:02 GMT 47.581329 3.310455 35,000 71 471 0
2022-05-17 19:23:00 GMT 47.581329 3.310455 35,000 72 470 0
2022-05-17 19:22:58 GMT 47.579971 3.304279 35,000 73 470 0
2022-05-17 19:22:57 GMT 47.578766 3.298096 35,000 75 469 0
2022-05-17 19:22:54 GMT 47.577457 3.290757 35,000 75 469 0
2022-05-17 19:22:52 GMT 47.576153 3.282377 35,000 78 467 0
2022-05-17 19:22:49 GMT 47.575516 3.277702 35,000 79 466 0
2022-05-17 19:22:48 GMT 47.574600 3.269669 35,000 81 465 0
2022-05-17 19:22:47 GMT 47.574600 3.269669 35,000 81 465 0
2022-05-17 19:22:45 GMT 47.573914 3.262596 35,000 83 464 0
2022-05-17 19:22:44 GMT 47.573685 3.259781 35,000 84 462 0
2022-05-17 19:22:42 GMT 47.573364 3.255249 35,000 84 462 0
2022-05-17 19:22:41 GMT 47.573090 3.250443 35,000 86 461 0
2022-05-17 19:22:40 GMT 47.572941 3.246953 35,000 87 461 0
2022-05-17 19:22:39 GMT 47.572678 3.238220 35,000 87 461 0
2022-05-17 19:22:37 GMT 47.572678 3.238220 35,000 90 459 0
2022-05-17 19:22:35 GMT 47.572662 3.231952 35,000 92 457 0
2022-05-17 19:22:33 GMT 47.572941 3.218079 35,000 92 456 0
2022-05-17 19:22:31 GMT 47.572941 3.218079 35,000 94 455 0
2022-05-17 19:22:29 GMT 47.573269 3.210684 35,000 95 454 0
2022-05-17 19:22:28 GMT 47.573502 3.207253 35,000 96 452 0
2022-05-17 19:22:26 GMT 47.573776 3.203819 35,000 97 452 0
2022-05-17 19:22:25 GMT 47.574005 3.200798 35,000 98 451 0
2022-05-17 19:22:23 GMT 47.574619 3.194416 35,000 99 450 0
2022-05-17 19:22:21 GMT 47.575272 3.188641 35,000 100 449 0
2022-05-17 19:22:19 GMT 47.575874 3.184063 35,000 101 448 0
2022-05-17 19:22:17 GMT 47.576797 3.177727 35,000 105 444 0
2022-05-17 19:22:16 GMT 47.578674 3.166672 35,000 105 444 0
2022-05-17 19:22:14 GMT 47.578674 3.166672 35,000 106 443 0
2022-05-17 19:22:12 GMT 47.579926 3.160471 35,000 108 441 0
2022-05-17 19:22:10 GMT 47.581600 3.152865 35,000 108 441 0
2022-05-17 19:22:08 GMT 47.582245 3.150124 35,000 110 438 0
2022-05-17 19:22:07 GMT 47.584953 3.139555 35,025 113 435 0
2022-05-17 19:22:03 GMT 47.586227 3.135155 35,025 113 435 0
2022-05-17 19:22:02 GMT 47.587097 3.132339 35,025 115 433 0
2022-05-17 19:21:59 GMT 47.589283 3.125470 35,025 116 431 0
2022-05-17 19:21:58 GMT 47.591537 3.118881 35,025 117 430 0
2022-05-17 19:21:56 GMT 47.593193 3.114272 35,025 119 428 0
2022-05-17 19:21:54 GMT 47.593193 3.114272 35,025 120 426 0
2022-05-17 19:21:52 GMT 47.595474 3.108513 35,025 120 426 0
2022-05-17 19:21:50 GMT 47.596592 3.105750 35,025 121 426 -64
2022-05-17 19:21:48 GMT 47.599476 3.098990 35,025 123 425 0
2022-05-17 19:21:47 GMT 47.600555 3.096497 35,025 127 421 64
2022-05-17 19:21:44 GMT 47.604412 3.088426 35,025 127 421 64
2022-05-17 19:21:43 GMT 47.605637 3.085991 35,000 127 421 64
2022-05-17 19:21:40 GMT 47.614002 3.070679 35,000 129 420 64
2022-05-17 19:21:36 GMT 47.614002 3.070679 35,000 131 419 64
2022-05-17 19:21:34 GMT 47.615910 3.067580 35,000 133 418 64
2022-05-17 19:21:33 GMT 47.617260 3.065397 35,000 133 418 64
2022-05-17 19:21:32 GMT 47.620613 3.060185 35,000 134 417 64
2022-05-17 19:21:31 GMT 47.620613 3.060185 35,000 135 416 0
2022-05-17 19:21:29 GMT 47.623352 3.056122 35,000 135 416 0
2022-05-17 19:21:27 GMT 47.626282 3.052002 35,000 137 415 0
2022-05-17 19:21:26 GMT 47.627037 3.050960 35,000 137 415 0
2022-05-17 19:21:24 GMT 47.630264 3.046646 35,000 139 413 0
2022-05-17 19:21:23 GMT 47.631500 3.045067 35,000 140 413 0
2022-05-17 19:21:17 GMT 47.641281 3.033635 35,000 145 408 -64
2022-05-17 19:21:14 GMT 47.645748 3.029198 35,025 146 406 -64
2022-05-17 19:21:12 GMT 47.648575 3.026527 35,025 149 405 -64
2022-05-17 19:21:11 GMT 47.650452 3.024902 35,025 150 403 0
2022-05-17 19:21:09 GMT 47.655441 3.020828 35,025 152 402 0
2022-05-17 19:21:08 GMT 47.655441 3.020828 35,025 153 402 -64
2022-05-17 19:21:06 GMT 47.658646 3.018494 35,000 154 400 0
2022-05-17 19:21:05 GMT 47.661949 3.016170 35,000 156 399 0
2022-05-17 19:21:03 GMT 47.663727 3.014992 35,000 156 399 0
2022-05-17 19:21:01 GMT 47.667118 3.012789 35,000 156 399 0
2022-05-17 19:21:00 GMT 47.668701 3.011733 35,000 156 399 0
2022-05-17 19:20:59 GMT 47.672195 3.009430 35,000 156 399 0
2022-05-17 19:20:56 GMT 47.674564 3.007859 35,000 156 399 0
2022-05-17 19:20:55 GMT 47.677231 3.006134 35,000 156 399 0
2022-05-17 19:20:54 GMT 47.678757 3.005113 35,000 156 399 0
2022-05-17 19:20:53 GMT 47.682358 3.002701 35,000 156 399 0
2022-05-17 19:20:49 GMT 47.687393 2.999405 35,000 156 399 0
2022-05-17 19:20:47 GMT 47.689774 2.997894 35,000 156 399 0
2022-05-17 19:20:46 GMT 47.692490 2.996028 35,000 156 399 0
2022-05-17 19:20:44 GMT 47.696026 2.993704 35,000 156 399 0
2022-05-17 19:20:42 GMT 47.699379 2.991521 35,000 156 399 0
2022-05-17 19:20:40 GMT 47.704311 2.988281 35,000 155 399 0
2022-05-17 19:20:37 GMT 47.707664 2.986098 35,000 155 399 0
2022-05-17 19:20:34 GMT 47.717022 2.979901 35,000 155 399 0
2022-05-17 19:20:31 GMT 47.718044 2.979196 35,000 155 399 0
2022-05-17 19:20:30 GMT 47.719627 2.978140 35,000 155 399 0
2022-05-17 19:20:28 GMT 47.723213 2.975816 35,000 155 399 0
2022-05-17 19:20:27 GMT 47.725121 2.974548 35,000 155 398 0
2022-05-17 19:20:26 GMT 47.728287 2.972436 35,000 155 398 0
2022-05-17 19:20:22 GMT 47.732475 2.969689 35,000 155 398 0
2022-05-17 19:20:20 GMT 47.739971 2.964689 35,000 156 398 0
2022-05-17 19:20:18 GMT 47.739971 2.964689 35,000 156 398 0
2022-05-17 19:20:16 GMT 47.742996 2.962717 35,000 156 398 0
2022-05-17 19:20:14 GMT 47.747589 2.959648 35,000 156 398 0
2022-05-17 19:20:11 GMT 47.750866 2.957505 35,000 156 398 0
2022-05-17 19:20:10 GMT 47.753586 2.955734 35,000 156 398 0
2022-05-17 19:20:09 GMT 47.755241 2.954618 35,000 156 398 0
2022-05-17 19:20:07 GMT 47.757847 2.952928 35,000 156 398 0
2022-05-17 19:20:04 GMT 47.769718 2.945111 35,000 156 398 0
2022-05-17 19:20:00 GMT 47.769718 2.945111 35,000 156 398 0
2022-05-17 19:19:58 GMT 47.773041 2.942894 35,000 156 398 0
2022-05-17 19:19:52 GMT 47.783360 2.936096 35,000 156 398 0
2022-05-17 19:19:49 GMT 47.788971 2.932388 35,000 156 398 0
2022-05-17 19:19:46 GMT 47.793228 2.929573 35,000 156 398 0
2022-05-17 19:19:43 GMT 47.804352 2.922226 35,000 156 398 0
2022-05-17 19:19:39 GMT 47.804352 2.922226 35,000 156 398 0
2022-05-17 19:19:37 GMT 47.808449 2.919546 35,000 156 398 0
2022-05-17 19:19:33 GMT 47.814594 2.915462 35,000 156 398 0
2022-05-17 19:19:29 GMT 47.820648 2.911447 35,000 155 397 0
2022-05-17 19:19:27 GMT 47.824951 2.908630 35,000 155 397 0
2022-05-17 19:19:24 GMT 47.837265 2.900461 35,000 155 397 0
2022-05-17 19:19:20 GMT 47.840652 2.898193 35,000 155 397 0
2022-05-17 19:19:14 GMT 47.846695 2.894211 35,000 155 397 0
2022-05-17 19:19:10 GMT 47.853653 2.889542 35,000 155 396 0
2022-05-17 19:19:07 GMT 47.857841 2.886799 35,000 155 396 0
2022-05-17 19:19:04 GMT 47.863056 2.883277 35,000 155 396 0
2022-05-17 19:19:02 GMT 47.866287 2.881165 35,000 155 396 0
2022-05-17 19:19:00 GMT 47.871387 2.877714 35,000 155 396 0
2022-05-17 19:18:58 GMT 47.874069 2.875946 35,000 155 396 0
2022-05-17 19:18:53 GMT 47.882401 2.870453 35,000 155 396 0
2022-05-17 19:18:50 GMT 47.886936 2.867432 35,000 155 396 0
2022-05-17 19:18:48 GMT 47.890846 2.864826 35,000 155 396 0
2022-05-17 19:18:44 GMT 47.896622 2.860953 35,000 155 396 0
2022-05-17 19:18:41 GMT 47.901554 2.857713 35,000 155 396 0
2022-05-17 19:18:38 GMT 47.907074 2.854042 35,000 155 396 0
2022-05-17 19:18:36 GMT 47.910446 2.851797 35,000 156 396 0
2022-05-17 19:18:32 GMT 47.917477 2.847149 35,000 155 395 0
2022-05-17 19:18:30 GMT 47.920807 2.844910 35,000 155 395 0
2022-05-17 19:18:28 GMT 47.923805 2.842924 35,000 155 395 0
2022-05-17 19:18:25 GMT 47.929092 2.839417 35,000 155 395 0
2022-05-17 19:18:21 GMT 47.934860 2.835640 35,000 155 395 0
2022-05-17 19:18:19 GMT 47.938980 2.832893 35,000 155 394 64
2022-05-17 19:18:17 GMT 47.941360 2.831314 35,000 155 394 64
2022-05-17 19:18:14 GMT 47.949280 2.826096 35,000 156 393 64
2022-05-17 19:18:09 GMT 47.956440 2.821303 35,000 155 392 64
2022-05-17 19:18:06 GMT 47.960724 2.818474 35,000 155 392 64
2022-05-17 19:18:03 GMT 47.964478 2.816002 35,000 155 392 64
2022-05-17 19:17:59 GMT 47.972778 2.810458 34,975 155 390 64
2022-05-17 19:17:57 GMT 47.975246 2.808838 34,975 155 390 0
2022-05-17 19:17:53 GMT 47.985855 2.801788 35,000 155 389 0
2022-05-17 19:17:50 GMT 47.985855 2.801788 35,000 155 389 0
2022-05-17 19:17:47 GMT 47.991913 2.797711 35,000 155 389 -64
2022-05-17 19:17:44 GMT 47.997116 2.794304 35,000 155 389 0
2022-05-17 19:17:39 GMT 48.005676 2.788605 35,000 155 388 0
2022-05-17 19:17:36 GMT 48.010986 2.785034 35,000 155 388 0
2022-05-17 19:17:33 GMT 48.014210 2.782851 35,000 155 388 64
2022-05-17 19:17:29 GMT 48.021614 2.777921 35,000 155 390 64
2022-05-17 19:17:27 GMT 48.024872 2.775808 35,000 155 390 64
2022-05-17 19:17:24 GMT 48.031528 2.771372 35,000 155 394 0
2022-05-17 19:17:21 GMT 48.033920 2.769722 35,000 155 392 0
2022-05-17 19:17:18 GMT 48.039581 2.765949 35,000 155 392 0
2022-05-17 19:17:16 GMT 48.042095 2.764259 35,000 155 393 0
2022-05-17 19:17:13 GMT 48.047470 2.760727 35,000 155 397 -64
2022-05-17 19:17:09 GMT 48.055454 2.755385 35,000 155 397 -64
2022-05-17 19:17:07 GMT 48.058136 2.753586 35,000 155 398 -64
2022-05-17 19:17:03 GMT 48.063766 2.749809 35,000 155 400 -64
2022-05-17 19:16:59 GMT 48.071007 2.744962 35,025 155 404 -64
2022-05-17 19:16:57 GMT 48.076313 2.741441 35,025 155 405 -64
2022-05-17 19:16:54 GMT 48.079945 2.738976 35,025 155 407 -64
2022-05-17 19:16:48 GMT 48.089207 2.732779 35,025 155 411 -64
2022-05-17 19:16:46 GMT 48.093395 2.729962 35,025 155 413 -64
2022-05-17 19:16:43 GMT 48.099262 2.726018 35,025 155 414 -64
2022-05-17 19:16:38 GMT 48.107315 2.720525 35,025 155 419 0
2022-05-17 19:16:36 GMT 48.110947 2.718130 35,025 155 427 64
2022-05-17 19:16:33 GMT 48.116344 2.714468 35,000 155 424 64
2022-05-17 19:16:31 GMT 48.119884 2.712074 35,000 155 434 64
2022-05-17 19:16:28 GMT 48.124958 2.708693 35,000 155 429 64
2022-05-17 19:16:26 GMT 48.128777 2.706088 34,975 155 433 64
2022-05-17 19:16:23 GMT 48.134216 2.702431 34,975 155 434 64
2022-05-17 19:16:18 GMT 48.143097 2.696388 34,975 155 439 0
2022-05-17 19:16:16 GMT 48.146698 2.693974 34,975 155 443 -64
2022-05-17 19:16:14 GMT 48.157791 2.686569 34,975 155 444 -128
2022-05-17 19:16:11 GMT 48.157791 2.686569 35,000 155 444 -128
2022-05-17 19:16:08 GMT 48.163597 2.682616 35,000 155 444 0
2022-05-17 19:16:05 GMT 48.167587 2.679960 35,000 155 444 0
2022-05-17 19:16:02 GMT 48.173466 2.675966 35,000 155 444 0
2022-05-17 19:15:58 GMT 48.181473 2.670617 35,000 155 444 0
2022-05-17 19:15:55 GMT 48.186035 2.667582 35,000 155 444 0
2022-05-17 19:15:53 GMT 48.190613 2.664466 35,000 155 444 64
2022-05-17 19:15:48 GMT 48.200500 2.657846 35,000 155 444 64
2022-05-17 19:15:46 GMT 48.205307 2.654572 35,000 155 444 64
2022-05-17 19:15:43 GMT 48.208786 2.652212 35,000 155 444 0
2022-05-17 19:15:40 GMT 48.213734 2.648862 35,000 155 444 0
2022-05-17 19:15:37 GMT 48.220779 2.644113 35,000 155 444 0
2022-05-17 19:15:33 GMT 48.230076 2.637875 35,000 155 444 0
2022-05-17 19:15:29 GMT 48.235706 2.634044 35,000 155 444 0
2022-05-17 19:15:26 GMT 48.241425 2.630169 35,000 155 444 64
2022-05-17 19:15:23 GMT 48.247952 2.625732 35,000 155 444 64
2022-05-17 19:15:18 GMT 48.257263 2.619465 35,000 155 444 64
2022-05-17 19:15:16 GMT 48.265919 2.613590 34,975 155 444 64
2022-05-17 19:15:13 GMT 48.265919 2.613590 34,975 155 444 64
2022-05-17 19:15:07 GMT 48.277325 2.605928 34,975 155 444 0
2022-05-17 19:15:04 GMT 48.280350 2.603832 34,975 155 444 0
2022-05-17 19:15:02 GMT 48.286057 2.599957 34,975 155 444 0
2022-05-17 19:14:59 GMT 48.297775 2.591999 34,975 155 445 0
2022-05-17 19:14:56 GMT 48.297775 2.591999 34,975 154 444 0
2022-05-17 19:14:53 GMT 48.309219 2.583900 34,975 153 445 0
2022-05-17 19:14:50 GMT 48.309219 2.583900 34,975 153 445 0
2022-05-17 19:14:47 GMT 48.313110 2.581012 34,975 152 445 64
2022-05-17 19:14:45 GMT 48.316753 2.578245 34,975 152 445 64
2022-05-17 19:14:42 GMT 48.327042 2.570006 34,975 151 446 64
2022-05-17 19:14:40 GMT 48.327042 2.570006 34,975 150 446 0
2022-05-17 19:14:37 GMT 48.330917 2.566716 34,975 149 447 0
2022-05-17 19:14:35 GMT 48.335514 2.562778 34,975 149 447 0
2022-05-17 19:14:32 GMT 48.340714 2.558054 34,975 148 448 0
2022-05-17 19:14:28 GMT 48.347900 2.551363 34,975 147 449 0
2022-05-17 19:14:25 GMT 48.353252 2.546154 34,975 146 450 0
2022-05-17 19:14:22 GMT 48.358109 2.541293 39,000 143 450 0
2022-05-17 19:14:18 GMT 48.365295 2.533828 34,975 143 450 64
2022-05-17 19:14:15 GMT 48.370148 2.528590 34,975 144 451 0
2022-05-17 19:14:12 GMT 48.374619 2.523747 34,975 143 450 0
2022-05-17 19:14:10 GMT 48.379944 2.517841 34,975 143 450 0
2022-05-17 19:14:06 GMT 48.384979 2.512348 34,975 143 450 0
2022-05-17 19:14:04 GMT 48.389145 2.507774 34,975 143 450 0
2022-05-17 19:14:02 GMT 48.393333 2.503148 34,975 143 450 0
2022-05-17 19:13:57 GMT 48.405899 2.489389 34,950 143 450 0
2022-05-17 19:13:54 GMT 48.410339 2.484530 34,950 143 450 64
2022-05-17 19:13:51 GMT 48.410339 2.484530 34,950 143 450 64
2022-05-17 19:13:47 GMT 48.417297 2.476854 34,950 143 451 64
2022-05-17 19:13:44 GMT 48.425220 2.468093 34,950 143 451 64
2022-05-17 19:13:42 GMT 48.431042 2.461733 34,950 143 451 0
2022-05-17 19:13:39 GMT 48.431042 2.461733 34,950 143 451 0
2022-05-17 19:13:36 GMT 48.435471 2.456853 34,950 143 451 0
2022-05-17 19:13:34 GMT 48.439465 2.452481 34,950 143 450 0
2022-05-17 19:13:31 GMT 48.443096 2.448433 34,950 143 450 0
2022-05-17 19:13:28 GMT 48.449112 2.441852 34,950 143 450 0
2022-05-17 19:13:26 GMT 48.452267 2.438314 34,950 143 450 0
2022-05-17 19:13:23 GMT 48.457668 2.432388 34,950 143 450 0
2022-05-17 19:13:21 GMT 48.462044 2.427545 34,950 143 450 -64
2022-05-17 19:13:17 GMT 48.468002 2.420968 34,950 143 450 -64
2022-05-17 19:13:14 GMT 48.472889 2.415619 34,950 143 450 0
2022-05-17 19:13:12 GMT 48.476532 2.411569 34,975 143 450 -64
2022-05-17 19:13:09 GMT 48.481594 2.406006 34,975 143 450 0
2022-05-17 19:13:06 GMT 48.486252 2.400874 34,950 143 450 0
2022-05-17 19:13:03 GMT 48.491547 2.395020 34,950 143 450 0
2022-05-17 19:13:01 GMT 48.493931 2.392418 34,950 143 450 0
2022-05-17 19:12:57 GMT 48.501801 2.383752 34,950 143 450 0
2022-05-17 19:12:53 GMT 48.507710 2.377239 34,950 143 450 0
2022-05-17 19:12:51 GMT 48.510956 2.373681 34,975 143 450 0
2022-05-17 19:12:48 GMT 48.516129 2.368047 34,950 143 450 -64
2022-05-17 19:12:45 GMT 48.520790 2.362856 34,950 143 450 -64
2022-05-17 19:12:42 GMT 48.527031 2.355989 34,975 143 450 -64
2022-05-17 19:12:39 GMT 48.531315 2.351291 34,975 143 450 -64
2022-05-17 19:12:36 GMT 48.541077 2.340510 35,000 143 450 -64
2022-05-17 19:12:33 GMT 48.541077 2.340510 34,975 143 450 -64
2022-05-17 19:12:29 GMT 48.547943 2.332905 35,000 143 450 -64
2022-05-17 19:12:26 GMT 48.553658 2.326572 34,975 143 450 -64
2022-05-17 19:12:23 GMT 48.561447 2.317904 35,000 143 450 -64
2022-05-17 19:12:21 GMT 48.561447 2.317904 35,000 143 450 -64
2022-05-17 19:12:18 GMT 48.566647 2.312188 35,000 143 450 -64
2022-05-17 19:12:15 GMT 48.572327 2.305900 35,000 143 450 -64
2022-05-17 19:12:12 GMT 48.577446 2.300190 35,000 143 450 -64
2022-05-17 19:12:09 GMT 48.588364 2.288114 35,000 143 450 -64
2022-05-17 19:12:06 GMT 48.588364 2.288114 35,000 143 450 -64
2022-05-17 19:12:03 GMT 48.592392 2.283677 35,000 143 450 -64
2022-05-17 19:12:00 GMT 48.596786 2.278748 35,000 143 450 -64
2022-05-17 19:11:56 GMT 48.603607 2.271207 35,000 143 451 0
2022-05-17 19:11:53 GMT 48.609329 2.264803 35,025 143 451 0
2022-05-17 19:11:51 GMT 48.611755 2.262099 35,025 143 452 0
2022-05-17 19:11:48 GMT 48.616550 2.256823 35,025 143 452 0
2022-05-17 19:11:46 GMT 48.623337 2.249239 35,025 143 452 -64
2022-05-17 19:11:41 GMT 48.628235 2.243817 35,025 143 452 -64
2022-05-17 19:11:38 GMT 48.635033 2.236224 35,025 143 453 -64
2022-05-17 19:11:35 GMT 48.638199 2.232754 35,025 143 453 -64
2022-05-17 19:11:32 GMT 48.643250 2.227126 35,025 143 453 -64
2022-05-17 19:11:29 GMT 48.648251 2.221551 35,025 143 453 -64
2022-05-17 19:11:26 GMT 48.656937 2.211914 35,025 143 453 -64
2022-05-17 19:11:24 GMT 48.656937 2.211914 35,050 143 453 0
2022-05-17 19:11:21 GMT 48.667198 2.200518 35,025 143 457 64
2022-05-17 19:11:18 GMT 48.667198 2.200518 35,050 143 454 -64
2022-05-17 19:11:15 GMT 48.672367 2.194736 35,050 143 454 -64
2022-05-17 19:11:13 GMT 48.675766 2.190905 35,050 143 454 -64
2022-05-17 19:11:11 GMT 48.682655 2.183244 35,050 143 454 -64
2022-05-17 19:11:05 GMT 48.689346 2.175786 35,050 143 454 0
2022-05-17 19:11:02 GMT 48.694431 2.170089 35,050 143 455 0
2022-05-17 19:10:59 GMT 48.699272 2.164740 35,050 143 455 0
2022-05-17 19:10:55 GMT 48.706676 2.156501 35,050 143 455 0
2022-05-17 19:10:51 GMT 48.712681 2.149779 35,050 143 456 0
2022-05-17 19:10:48 GMT 48.723221 2.138038 35,050 143 456 64
2022-05-17 19:10:45 GMT 48.723221 2.138038 35,050 143 457 64
2022-05-17 19:10:43 GMT 48.726646 2.134239 35,050 143 457 64
2022-05-17 19:10:40 GMT 48.731094 2.129235 35,050 143 457 64
2022-05-17 19:10:37 GMT 48.737309 2.122313 35,050 143 457 64
2022-05-17 19:10:35 GMT 48.740662 2.118601 35,050 143 458 64
2022-05-17 19:10:32 GMT 48.745651 2.113037 35,025 143 459 64
2022-05-17 19:10:30 GMT 48.754578 2.102942 35,025 143 459 64
2022-05-17 19:10:26 GMT 48.758629 2.098461 35,025 143 459 64
2022-05-17 19:10:24 GMT 48.758629 2.098461 35,050 143 460 -64
2022-05-17 19:10:21 GMT 48.763794 2.092679 35,025 143 459 0
2022-05-17 19:10:18 GMT 48.769089 2.086769 35,025 143 459 0
2022-05-17 19:10:15 GMT 48.775852 2.079163 35,025 143 460 0
2022-05-17 19:10:11 GMT 48.781765 2.072513 35,025 143 460 -64
2022-05-17 19:10:09 GMT 48.784279 2.069694 35,025 143 460 0
2022-05-17 19:10:07 GMT 48.786793 2.066875 35,050 143 460 0
2022-05-17 19:10:04 GMT 48.793961 2.058852 35,050 143 460 0
2022-05-17 19:10:01 GMT 48.798431 2.053880 35,050 143 460 0
2022-05-17 19:09:58 GMT 48.803226 2.048517 35,025 143 460 64
2022-05-17 19:09:55 GMT 48.808731 2.042330 35,025 143 460 64
2022-05-17 19:09:52 GMT 48.813080 2.037400 35,025 143 461 64
2022-05-17 19:09:50 GMT 48.818436 2.031414 35,025 143 461 64
2022-05-17 19:09:46 GMT 48.827663 2.021051 35,025 143 461 64
2022-05-17 19:09:44 GMT 48.827663 2.021051 35,025 143 461 64
2022-05-17 19:09:41 GMT 48.832626 2.015428 35,025 143 461 64
2022-05-17 19:09:38 GMT 48.837250 2.010287 35,025 143 461 0
2022-05-17 19:09:35 GMT 48.844940 2.001624 35,025 143 461 0
2022-05-17 19:09:33 GMT 48.844940 2.001624 35,025 143 461 0
2022-05-17 19:09:30 GMT 48.851685 1.994019 35,025 143 461 0
2022-05-17 19:09:28 GMT 48.856567 1.988525 35,025 143 461 0
2022-05-17 19:09:25 GMT 48.860962 1.983596 35,025 143 461 0
2022-05-17 19:09:23 GMT 48.863369 1.980864 35,000 143 461 64
2022-05-17 19:09:20 GMT 48.868607 1.975004 35,000 143 461 64
2022-05-17 19:09:18 GMT 48.878731 1.963589 35,000 143 461 0
2022-05-17 19:09:14 GMT 48.878731 1.963589 35,000 143 461 0
2022-05-17 19:09:11 GMT 48.884720 1.956904 35,000 143 461 0
2022-05-17 19:09:09 GMT 48.888062 1.953102 35,000 143 461 0
2022-05-17 19:09:06 GMT 48.900703 1.938942 35,025 143 461 -64
2022-05-17 19:09:02 GMT 48.900703 1.938942 35,025 143 462 0
2022-05-17 19:08:59 GMT 48.904770 1.934368 35,025 143 462 0
2022-05-17 19:08:56 GMT 48.909943 1.928523 35,025 143 462 -64
2022-05-17 19:08:52 GMT 48.917137 1.920367 35,025 143 462 -64
2022-05-17 19:08:48 GMT 48.928356 1.907718 35,025 143 462 -64
2022-05-17 19:08:45 GMT 48.933472 1.901902 35,025 143 462 -64
2022-05-17 19:08:42 GMT 48.933472 1.901902 35,025 143 461 -64
2022-05-17 19:08:39 GMT 48.944183 1.889860 35,025 143 461 0
2022-05-17 19:08:36 GMT 48.944183 1.889860 35,025 143 461 0
2022-05-17 19:08:34 GMT 48.952610 1.880325 35,025 143 461 0
2022-05-17 19:08:32 GMT 48.952610 1.880325 35,025 143 461 0
2022-05-17 19:08:29 GMT 48.955719 1.876831 35,025 143 461 0
2022-05-17 19:08:26 GMT 48.960983 1.870845 35,025 143 461 64
2022-05-17 19:08:24 GMT 48.964371 1.867042 35,025 143 461 64
2022-05-17 19:08:22 GMT 48.966934 1.864155 35,025 143 462 -64
2022-05-17 19:08:19 GMT 48.973095 1.857195 35,025 143 461 0
2022-05-17 19:08:17 GMT 48.979202 1.850281 35,025 143 461 0
2022-05-17 19:08:15 GMT 48.979202 1.850281 35,025 143 462 0
2022-05-17 19:08:13 GMT 48.982956 1.846055 35,025 143 462 -64
2022-05-17 19:08:10 GMT 48.988174 1.840140 35,025 143 462 0
2022-05-17 19:08:07 GMT 48.993530 1.834083 35,025 143 462 0
2022-05-17 19:08:03 GMT 49.000259 1.826477 35,025 143 461 0
2022-05-17 19:08:00 GMT 49.005524 1.820561 35,025 143 461 64
2022-05-17 19:07:55 GMT 49.012989 1.812094 35,025 143 461 64
2022-05-17 19:07:53 GMT 49.016762 1.807829 35,025 143 461 64
2022-05-17 19:07:51 GMT 49.021820 1.802110 35,025 143 460 64
2022-05-17 19:07:48 GMT 49.025299 1.798096 35,025 143 460 64
2022-05-17 19:07:45 GMT 49.030289 1.792391 35,025 143 460 64
2022-05-17 19:07:43 GMT 49.040455 1.780869 35,025 143 461 0
2022-05-17 19:07:40 GMT 49.040455 1.780869 35,025 143 460 0
2022-05-17 19:07:36 GMT 49.045715 1.774855 35,025 143 461 0
2022-05-17 19:07:34 GMT 49.050232 1.769738 35,025 143 461 0
2022-05-17 19:07:31 GMT 49.061123 1.757451 35,000 143 460 64
2022-05-17 19:07:27 GMT 49.067734 1.749862 35,025 143 460 64
2022-05-17 19:07:24 GMT 49.067734 1.749862 35,025 143 460 64
2022-05-17 19:07:22 GMT 49.070297 1.746967 35,000 143 459 0
2022-05-17 19:07:20 GMT 49.073975 1.742851 35,000 143 459 0
2022-05-17 19:07:17 GMT 49.078583 1.737600 35,000 143 459 0
2022-05-17 19:07:14 GMT 49.088104 1.726755 35,000 143 459 0
2022-05-17 19:07:12 GMT 49.088104 1.726755 35,000 143 459 0
2022-05-17 19:07:09 GMT 49.092175 1.722107 35,000 143 459 64
2022-05-17 19:07:07 GMT 49.095612 1.718234 35,000 143 459 64
2022-05-17 19:07:04 GMT 49.099625 1.713650 35,000 143 459 0
2022-05-17 19:07:02 GMT 49.104511 1.708085 35,000 143 458 0
2022-05-17 19:07:00 GMT 49.107010 1.705275 35,000 143 458 0
2022-05-17 19:06:58 GMT 49.113262 1.698110 35,000 143 458 0
2022-05-17 19:06:53 GMT 49.118912 1.691683 35,000 143 458 0
2022-05-17 19:06:50 GMT 49.128765 1.680475 35,000 143 457 -64
2022-05-17 19:06:47 GMT 49.128765 1.680475 35,000 143 457 0
2022-05-17 19:06:44 GMT 49.139378 1.668404 35,000 143 457 -128
2022-05-17 19:06:42 GMT 49.142357 1.665007 35,000 143 457 -64
2022-05-17 19:06:39 GMT 49.147015 1.659658 35,025 143 455 64
2022-05-17 19:06:37 GMT 49.147015 1.659658 35,025 143 456 0
2022-05-17 19:06:33 GMT 49.152180 1.653804 35,025 143 455 64
2022-05-17 19:06:31 GMT 49.157227 1.648020 35,000 143 455 64
2022-05-17 19:06:28 GMT 49.160660 1.644076 35,025 143 455 64
2022-05-17 19:06:26 GMT 49.164230 1.640062 35,000 143 455 0
2022-05-17 19:06:24 GMT 49.168613 1.635011 35,000 143 455 -64
2022-05-17 19:06:22 GMT 49.175125 1.627526 35,000 143 455 -64
2022-05-17 19:06:17 GMT 49.184162 1.617231 35,025 143 455 0
2022-05-17 19:06:15 GMT 49.188538 1.612244 35,025 143 455 0
2022-05-17 19:06:12 GMT 49.188538 1.612244 35,025 143 455 -64
2022-05-17 19:06:09 GMT 49.194489 1.605412 35,025 143 455 -64
2022-05-17 19:06:07 GMT 49.197647 1.601821 35,025 143 455 -64
2022-05-17 19:06:04 GMT 49.204784 1.593596 35,025 143 454 0
2022-05-17 19:05:59 GMT 49.210556 1.587018 35,025 143 454 0
2022-05-17 19:05:56 GMT 49.214722 1.582172 35,025 143 454 64
2022-05-17 19:05:54 GMT 49.218052 1.578345 35,025 143 453 64
2022-05-17 19:05:52 GMT 49.221588 1.574297 35,025 143 454 64
2022-05-17 19:05:50 GMT 49.225128 1.570250 35,025 143 454 64
2022-05-17 19:05:46 GMT 49.235275 1.558541 35,000 143 452 64
2022-05-17 19:05:44 GMT 49.235275 1.558541 35,000 143 453 64
2022-05-17 19:05:42 GMT 49.239979 1.553192 35,000 143 453 64
2022-05-17 19:05:38 GMT 49.248779 1.543086 35,000 143 453 64
2022-05-17 19:05:36 GMT 49.248779 1.543086 35,000 143 453 64
2022-05-17 19:05:33 GMT 49.255573 1.535267 35,000 143 452 64
2022-05-17 19:05:29 GMT 49.262604 1.527240 34,975 143 450 0
2022-05-17 19:05:26 GMT 49.265442 1.524001 34,975 143 452 64
2022-05-17 19:05:24 GMT 49.268692 1.520198 34,975 143 452 128
2022-05-17 19:05:21 GMT 49.277035 1.510692 34,975 143 452 64
2022-05-17 19:05:16 GMT 49.288811 1.497104 34,975 143 452 64
2022-05-17 19:05:13 GMT 49.288811 1.497104 34,975 143 452 64
2022-05-17 19:05:11 GMT 49.291260 1.494281 34,975 143 451 0
2022-05-17 19:05:07 GMT 49.297119 1.487521 34,975 143 452 0
2022-05-17 19:05:04 GMT 49.305058 1.478456 34,975 143 451 0
2022-05-17 19:05:02 GMT 49.305058 1.478456 34,975 143 451 0
2022-05-17 19:04:58 GMT 49.311901 1.470578 34,975 143 450 0
2022-05-17 19:04:56 GMT 49.316345 1.465407 34,975 143 450 0
2022-05-17 19:04:54 GMT 49.318977 1.462410 34,975 143 450 0
2022-05-17 19:04:52 GMT 49.322205 1.458717 34,975 143 450 0
2022-05-17 19:04:50 GMT 49.324795 1.455688 34,975 142 449 0
2022-05-17 19:04:48 GMT 49.329033 1.450846 34,975 142 449 0
2022-05-17 19:04:45 GMT 49.334244 1.444843 34,975 142 448 0
2022-05-17 19:04:41 GMT 49.340485 1.437691 34,975 142 448 0
2022-05-17 19:04:38 GMT 49.346210 1.431042 34,975 142 448 0
2022-05-17 19:04:33 GMT 49.352783 1.423504 34,975 142 446 0
2022-05-17 19:04:30 GMT 49.358368 1.417025 34,975 143 447 0
2022-05-17 19:04:28 GMT 49.361897 1.412972 34,975 143 447 0
2022-05-17 19:04:26 GMT 49.365437 1.408924 34,975 143 447 0
2022-05-17 19:04:23 GMT 49.374977 1.397866 34,975 143 447 0
2022-05-17 19:04:20 GMT 49.374977 1.397866 34,975 143 447 0
2022-05-17 19:04:18 GMT 49.379726 1.392445 34,975 143 447 -64
2022-05-17 19:04:14 GMT 49.391087 1.379290 34,975 143 447 -64
2022-05-17 19:04:11 GMT 49.391087 1.379290 34,975 143 447 -64
2022-05-17 19:04:08 GMT 49.395264 1.374488 34,975 143 447 -64
2022-05-17 19:04:03 GMT 49.403503 1.364910 35,000 143 447 -64
2022-05-17 19:04:00 GMT 49.408539 1.359136 35,000 142 446 -64
2022-05-17 19:03:58 GMT 49.415131 1.351530 35,000 142 446 -64
2022-05-17 19:03:56 GMT 49.415131 1.351530 35,000 142 446 -64
2022-05-17 19:03:53 GMT 49.420898 1.344839 35,000 142 446 -64
2022-05-17 19:03:50 GMT 49.424278 1.340910 35,000 142 446 -64
2022-05-17 19:03:46 GMT 49.430832 1.333393 35,000 142 446 -64
2022-05-17 19:03:43 GMT 49.441177 1.321403 35,000 142 446 -64
2022-05-17 19:03:40 GMT 49.441177 1.321403 35,000 142 446 -64
2022-05-17 19:03:37 GMT 49.446808 1.314796 35,000 142 446 0
2022-05-17 19:03:33 GMT 49.452023 1.308783 35,000 142 446 0
2022-05-17 19:03:30 GMT 49.457336 1.302675 35,000 142 446 0
2022-05-17 19:03:28 GMT 49.461273 1.298049 35,000 142 446 0
2022-05-17 19:03:26 GMT 49.465393 1.293279 35,000 142 446 0
2022-05-17 19:03:23 GMT 49.468597 1.289520 35,000 142 446 0
2022-05-17 19:03:21 GMT 49.472599 1.284881 35,000 142 446 0
2022-05-17 19:03:19 GMT 49.475998 1.281021 35,000 142 445 0
2022-05-17 19:03:16 GMT 49.480049 1.276270 35,000 142 446 0
2022-05-17 19:03:13 GMT 49.490803 1.263725 35,000 142 446 0
2022-05-17 19:03:10 GMT 49.490803 1.263725 35,000 142 446 0
2022-05-17 19:03:07 GMT 49.498672 1.254610 35,025 142 446 64
2022-05-17 19:03:05 GMT 49.498672 1.254610 35,025 142 446 0
2022-05-17 19:03:02 GMT 49.503845 1.248611 35,025 142 446 0
2022-05-17 19:02:59 GMT 49.511948 1.239214 35,025 142 446 0
2022-05-17 19:02:57 GMT 49.511948 1.239214 35,025 142 446 0
2022-05-17 19:02:55 GMT 49.515007 1.235665 35,025 142 446 64
2022-05-17 19:02:52 GMT 49.519756 1.230098 35,025 142 446 64
2022-05-17 19:02:50 GMT 49.523987 1.225192 35,025 142 446 64
2022-05-17 19:02:48 GMT 49.531586 1.216302 35,000 142 446 64
2022-05-17 19:02:45 GMT 49.531586 1.216302 35,000 142 446 64
2022-05-17 19:02:42 GMT 49.537212 1.209758 35,000 142 446 64
2022-05-17 19:02:39 GMT 49.547516 1.197799 35,000 142 446 64
2022-05-17 19:02:36 GMT 49.547516 1.197799 35,000 142 446 64
2022-05-17 19:02:33 GMT 49.551739 1.192833 35,000 142 446 0
2022-05-17 19:02:31 GMT 49.554428 1.189704 35,000 142 446 0
2022-05-17 19:02:29 GMT 49.557632 1.186017 35,000 142 446 0
2022-05-17 19:02:27 GMT 49.560257 1.182886 35,000 142 446 0
2022-05-17 19:02:25 GMT 49.563515 1.179100 35,000 142 446 0
2022-05-17 19:02:23 GMT 49.571850 1.169376 35,000 142 447 0
2022-05-17 19:02:21 GMT 49.576084 1.164477 35,000 142 447 0
2022-05-17 19:02:18 GMT 49.576084 1.164477 35,000 142 447 0
2022-05-17 19:02:15 GMT 49.580246 1.159564 35,000 142 447 0
2022-05-17 19:02:13 GMT 49.586281 1.152525 35,000 142 447 0
2022-05-17 19:02:08 GMT 49.591400 1.146512 35,000 142 447 0
2022-05-17 19:02:06 GMT 49.595901 1.141277 35,000 142 447 0
2022-05-17 19:02:04 GMT 49.598572 1.138124 35,000 142 447 0
2022-05-17 19:02:02 GMT 49.601784 1.134338 35,000 142 447 0
2022-05-17 19:02:00 GMT 49.606247 1.129134 35,000 142 447 0
2022-05-17 19:01:57 GMT 49.610184 1.124581 35,000 142 447 0
2022-05-17 19:01:54 GMT 49.615906 1.117859 35,000 142 447 0
2022-05-17 19:01:52 GMT 49.617645 1.115835 35,000 142 447 0
2022-05-17 19:01:50 GMT 49.622589 1.110053 35,000 142 448 0
2022-05-17 19:01:48 GMT 49.628548 1.103012 35,000 142 447 0
2022-05-17 19:01:46 GMT 49.628548 1.103012 35,000 142 448 0
2022-05-17 19:01:44 GMT 49.634506 1.096035 35,000 142 447 0
2022-05-17 19:01:42 GMT 49.634506 1.096035 35,000 142 448 0
2022-05-17 19:01:40 GMT 49.639069 1.090764 35,000 142 448 0
2022-05-17 19:01:36 GMT 49.645542 1.083118 35,000 142 448 0
2022-05-17 19:01:34 GMT 49.648636 1.079551 35,000 142 448 0
2022-05-17 19:01:31 GMT 49.653168 1.074203 35,000 142 448 0
2022-05-17 19:01:28 GMT 49.657318 1.069385 35,000 142 449 0
2022-05-17 19:01:26 GMT 49.667049 1.057954 35,000 142 449 0
2022-05-17 19:01:23 GMT 49.667049 1.057954 35,000 142 450 0
2022-05-17 19:01:19 GMT 49.673611 1.050234 35,000 142 450 0
2022-05-17 19:01:17 GMT 49.676926 1.046303 35,000 142 450 0
2022-05-17 19:01:15 GMT 49.680920 1.041697 35,000 142 451 0
2022-05-17 19:01:12 GMT 49.684204 1.037847 35,000 142 451 0
2022-05-17 19:01:09 GMT 49.694275 1.025993 35,000 142 451 0
2022-05-17 19:01:07 GMT 49.694275 1.025993 35,000 142 451 -64
2022-05-17 19:01:04 GMT 49.698761 1.020717 35,000 142 451 -64
2022-05-17 19:01:01 GMT 49.703110 1.015585 35,000 142 451 0
2022-05-17 19:00:59 GMT 49.709831 1.007699 35,000 142 451 0
2022-05-17 19:00:57 GMT 49.709831 1.007699 35,000 142 451 0
2022-05-17 19:00:55 GMT 49.713741 1.003096 35,000 142 451 0
2022-05-17 19:00:53 GMT 49.715424 1.001129 35,000 142 451 0
2022-05-17 19:00:51 GMT 49.717884 0.998197 35,000 142 451 0
2022-05-17 19:00:49 GMT 49.722771 0.992481 35,000 142 451 0
2022-05-17 19:00:46 GMT 49.727234 0.987252 35,000 142 451 0
2022-05-17 19:00:43 GMT 49.733368 0.980024 35,000 142 450 0
2022-05-17 19:00:39 GMT 49.742798 0.968893 35,000 142 450 0
2022-05-17 19:00:37 GMT 49.742798 0.968893 35,000 142 450 0
2022-05-17 19:00:34 GMT 49.748283 0.962417 35,000 142 450 0
2022-05-17 19:00:31 GMT 49.755962 0.953361 35,000 142 450 0
2022-05-17 19:00:29 GMT 49.759361 0.949352 35,000 142 450 0
2022-05-17 19:00:27 GMT 49.759361 0.949352 35,000 142 450 0
2022-05-17 19:00:25 GMT 49.762245 0.945938 35,000 142 450 -64
2022-05-17 19:00:23 GMT 49.769093 0.937846 35,000 142 450 -64
2022-05-17 19:00:21 GMT 49.769093 0.937846 35,000 142 450 0
2022-05-17 19:00:19 GMT 49.774586 0.931314 35,000 142 450 0
2022-05-17 19:00:15 GMT 49.778915 0.926249 35,000 142 449 0
2022-05-17 19:00:13 GMT 49.781986 0.922629 35,000 142 448 0
2022-05-17 19:00:10 GMT 49.787434 0.916171 35,000 142 448 0
2022-05-17 19:00:07 GMT 49.792507 0.910158 35,000 142 448 64
2022-05-17 19:00:05 GMT 49.799423 0.901963 35,000 142 445 0
2022-05-17 19:00:02 GMT 49.799423 0.901963 35,000 142 445 0
2022-05-17 19:00:00 GMT 49.803352 0.897390 35,000 142 444 0
2022-05-17 18:59:57 GMT 49.811371 0.887869 35,000 142 443 0
2022-05-17 18:59:51 GMT 49.819016 0.878834 35,000 142 440 0
2022-05-17 18:59:48 GMT 49.822159 0.875046 35,000 142 440 0
2022-05-17 18:59:46 GMT 49.831936 0.863540 34,725 142 438 -64
2022-05-17 18:59:43 GMT 49.831936 0.863540 35,000 142 437 -64
2022-05-17 18:59:40 GMT 49.835194 0.859680 35,000 142 435 -64
2022-05-17 18:59:38 GMT 49.839386 0.854693 35,000 142 434 0
2022-05-17 18:59:35 GMT 49.847488 0.845152 35,000 142 433 64
2022-05-17 18:59:33 GMT 49.847488 0.845152 35,000 142 431 128
2022-05-17 18:59:31 GMT 49.850418 0.841683 35,000 142 433 64
2022-05-17 18:59:29 GMT 49.853676 0.837856 35,000 142 431 128
2022-05-17 18:59:27 GMT 49.856934 0.833996 35,000 142 430 192
2022-05-17 18:59:25 GMT 49.864849 0.824643 35,000 142 429 192
2022-05-17 18:59:23 GMT 49.864849 0.824643 34,975 142 428 192
2022-05-17 18:59:20 GMT 49.868713 0.820040 34,975 142 428 320
2022-05-17 18:59:17 GMT 49.872711 0.815301 34,950 142 427 320
2022-05-17 18:59:15 GMT 49.874817 0.812771 34,950 142 426 384
2022-05-17 18:59:13 GMT 49.883331 0.802744 34,925 142 422 192
2022-05-17 18:59:10 GMT 49.883331 0.802744 34,925 142 425 384
2022-05-17 18:59:07 GMT 49.887333 0.797993 34,900 142 424 384
2022-05-17 18:59:05 GMT 49.893387 0.790793 34,875 142 423 256
2022-05-17 18:59:01 GMT 49.897064 0.786413 34,850 142 422 192
2022-05-17 18:58:59 GMT 49.900085 0.782848 34,850 142 419 192
2022-05-17 18:58:56 GMT 49.904743 0.777357 34,850 142 420 192
2022-05-17 18:58:54 GMT 49.908142 0.773307 34,850 142 420 192
2022-05-17 18:58:51 GMT 49.913864 0.766513 34,825 142 418 256
2022-05-17 18:58:48 GMT 49.918152 0.761397 34,825 142 417 320
2022-05-17 18:58:45 GMT 49.923225 0.755384 34,800 142 417 384
2022-05-17 18:58:42 GMT 49.930489 0.746699 34,775 142 415 576
2022-05-17 18:58:40 GMT 49.933914 0.742661 34,750 142 415 640
2022-05-17 18:58:37 GMT 49.933914 0.742661 34,725 142 415 640
2022-05-17 18:58:34 GMT 49.938354 0.737420 34,700 142 414 448
2022-05-17 18:58:32 GMT 49.941467 0.733699 34,675 142 414 448
2022-05-17 18:58:30 GMT 49.943756 0.730962 34,675 142 412 384
2022-05-17 18:58:28 GMT 49.948242 0.725676 34,650 142 413 384
2022-05-17 18:58:25 GMT 49.953552 0.719388 34,625 142 412 320
2022-05-17 18:58:22 GMT 49.957115 0.715151 34,600 142 411 320
2022-05-17 18:58:20 GMT 49.961334 0.710064 34,575 142 410 320
2022-05-17 18:58:17 GMT 49.963402 0.707653 34,600 142 410 320
2022-05-17 18:58:15 GMT 49.967545 0.702754 34,575 142 410 320
2022-05-17 18:58:13 GMT 49.969940 0.699872 34,575 142 408 448
2022-05-17 18:58:11 GMT 49.973328 0.695825 34,550 142 408 448
2022-05-17 18:58:09 GMT 49.977879 0.690431 34,500 142 407 704
2022-05-17 18:58:06 GMT 49.983582 0.683610 34,475 142 407 896
2022-05-17 18:58:02 GMT 49.987049 0.679445 34,450 142 407 1088
2022-05-17 18:58:00 GMT 49.989563 0.676476 34,375 142 407 1088
2022-05-17 18:57:57 GMT 49.997753 0.666677 34,325 142 407 1088
2022-05-17 18:57:55 GMT 49.997753 0.666677 34,325 142 407 1088
2022-05-17 18:57:52 GMT 50.002365 0.661184 34,250 142 407 1088
2022-05-17 18:57:49 GMT 50.010727 0.651229 34,175 142 407 1152
2022-05-17 18:57:46 GMT 50.010727 0.651229 34,150 142 407 1152
2022-05-17 18:57:44 GMT 50.013519 0.647832 34,125 142 407 1152
2022-05-17 18:57:42 GMT 50.017090 0.643568 34,075 142 408 1152
2022-05-17 18:57:40 GMT 50.020519 0.639434 34,025 142 408 1152
2022-05-17 18:57:37 GMT 50.023453 0.635945 34,000 142 408 1152
2022-05-17 18:57:35 GMT 50.031925 0.625775 33,900 142 409 1216
2022-05-17 18:57:32 GMT 50.031925 0.625775 33,825 142 409 1216
2022-05-17 18:57:30 GMT 50.034252 0.623029 33,800 142 409 1280
2022-05-17 18:57:27 GMT 50.039417 0.616793 33,775 142 409 1216
2022-05-17 18:57:25 GMT 50.044029 0.611300 33,700 142 409 1088
2022-05-17 18:57:22 GMT 50.050186 0.603959 33,625 142 408 960
2022-05-17 18:57:20 GMT 50.050186 0.603959 33,625 142 408 960
2022-05-17 18:57:17 GMT 50.057529 0.595192 33,500 142 408 768
2022-05-17 18:57:13 GMT 50.064369 0.586952 33,525 142 407 704
2022-05-17 18:57:10 GMT 50.064369 0.586952 33,525 142 407 640
2022-05-17 18:57:07 GMT 50.069000 0.581408 33,475 142 407 640
2022-05-17 18:57:05 GMT 50.071167 0.578786 33,450 142 407 704
2022-05-17 18:57:03 GMT 50.079639 0.568617 33,150 142 405 960
2022-05-17 18:57:00 GMT 50.083878 0.563483 33,375 142 405 896
2022-05-17 18:56:57 GMT 50.083878 0.563483 33,350 142 405 1024
2022-05-17 18:56:55 GMT 50.087276 0.559412 33,300 142 405 1088
2022-05-17 18:56:51 GMT 50.092987 0.552641 33,175 142 406 1088
2022-05-17 18:56:48 GMT 50.097282 0.547461 33,100 142 405 576
2022-05-17 18:56:46 GMT 50.099472 0.544862 33,125 142 405 1024
2022-05-17 18:56:44 GMT 50.108688 0.533876 33,125 142 405 832
2022-05-17 18:56:41 GMT 50.112881 0.528828 33,050 142 405 448
2022-05-17 18:56:38 GMT 50.112881 0.528828 33,050 142 405 448
2022-05-17 18:56:35 GMT 50.115810 0.525339 33,050 142 402 384
2022-05-17 18:56:33 GMT 50.119442 0.521034 33,025 142 402 448
2022-05-17 18:56:30 GMT 50.124470 0.514947 33,000 142 401 768
2022-05-17 18:56:28 GMT 50.126038 0.513105 32,975 142 401 896
2022-05-17 18:56:26 GMT 50.129105 0.509419 32,950 142 400 960
2022-05-17 18:56:24 GMT 50.132446 0.505371 32,875 142 400 1216
2022-05-17 18:56:22 GMT 50.136948 0.499952 32,825 142 401 1472
2022-05-17 18:56:19 GMT 50.140114 0.496092 32,775 142 401 1600
2022-05-17 18:56:17 GMT 50.142242 0.493590 32,750 142 401 1664
2022-05-17 18:56:15 GMT 50.145630 0.489470 32,650 142 402 1856
2022-05-17 18:56:13 GMT 50.147964 0.486651 32,650 142 402 1856
2022-05-17 18:56:11 GMT 50.152962 0.480652 32,075 142 407 1408
2022-05-17 18:56:08 GMT 50.158905 0.473424 32,350 142 406 1984
2022-05-17 18:56:06 GMT 50.158905 0.473424 32,300 142 404 2112
2022-05-17 18:56:03 GMT 50.166916 0.463811 32,250 142 405 2048
2022-05-17 18:56:01 GMT 50.166916 0.463811 32,200 142 406 1984
2022-05-17 18:55:58 GMT 50.171310 0.458535 32,100 142 407 1792
2022-05-17 18:55:56 GMT 50.173676 0.455636 32,000 142 407 1472
2022-05-17 18:55:53 GMT 50.177681 0.450811 32,000 142 407 1472
2022-05-17 18:55:51 GMT 50.181152 0.446681 31,925 142 407 1280
2022-05-17 18:55:49 GMT 50.184082 0.443139 31,925 142 407 1152
2022-05-17 18:55:47 GMT 50.186199 0.440567 31,800 142 407 960
2022-05-17 18:55:45 GMT 50.192062 0.433589 31,800 142 407 960
2022-05-17 18:55:43 GMT 50.192062 0.433589 31,800 142 407 960
2022-05-17 18:55:41 GMT 50.196720 0.427947 31,675 142 407 1216
2022-05-17 18:55:39 GMT 50.199646 0.424419 31,700 142 407 1216
2022-05-17 18:55:36 GMT 50.208023 0.414372 31,625 142 406 1408
2022-05-17 18:55:33 GMT 50.208023 0.414372 31,600 142 406 1536
2022-05-17 18:55:31 GMT 50.211617 0.409983 31,475 142 407 1792
2022-05-17 18:55:29 GMT 50.213852 0.407311 31,500 142 407 1600
2022-05-17 18:55:27 GMT 50.220043 0.399813 31,400 142 407 1728
2022-05-17 18:55:25 GMT 50.220043 0.399813 31,375 142 407 1728
2022-05-17 18:55:23 GMT 50.222260 0.397098 31,350 142 407 1792
2022-05-17 18:55:20 GMT 50.227119 0.391202 31,225 142 407 1920
2022-05-17 18:55:17 GMT 50.231773 0.385635 31,125 142 409 2048
2022-05-17 18:55:15 GMT 50.234024 0.382859 31,050 142 409 2048
2022-05-17 18:55:13 GMT 50.243042 0.371945 30,900 142 410 1984
2022-05-17 18:55:10 GMT 50.243042 0.371945 30,850 142 411 1856
2022-05-17 18:55:07 GMT 50.250443 0.362994 30,775 142 411 1792
2022-05-17 18:55:05 GMT 50.250443 0.362994 30,725 142 412 1792
2022-05-17 18:55:03 GMT 50.252769 0.360173 30,675 142 412 1728
2022-05-17 18:55:00 GMT 50.257050 0.354960 30,625 142 414 1984
2022-05-17 18:54:58 GMT 50.260345 0.350984 30,200 142 414 1600
2022-05-17 18:54:56 GMT 50.263245 0.347480 30,450 142 412 1920
2022-05-17 18:54:54 GMT 50.266434 0.343684 30,400 142 414 1856
2022-05-17 18:54:52 GMT 50.269669 0.339760 30,325 142 414 1984
2022-05-17 18:54:49 GMT 50.273483 0.335083 30,225 142 414 1472
2022-05-17 18:54:46 GMT 50.279488 0.327808 30,125 142 414 1408
2022-05-17 18:54:43 GMT 50.283539 0.322909 30,050 142 414 1472
2022-05-17 18:54:41 GMT 50.284981 0.321202 30,000 142 414 1536
2022-05-17 18:54:39 GMT 50.294388 0.309770 29,950 142 414 1792
2022-05-17 18:54:36 GMT 50.294388 0.309770 29,875 142 414 1920
2022-05-17 18:54:33 GMT 50.298622 0.304648 29,775 142 415 2176
2022-05-17 18:54:31 GMT 50.300674 0.302124 29,550 142 418 2176
2022-05-17 18:54:28 GMT 50.307049 0.294404 29,550 142 416 2304
2022-05-17 18:54:25 GMT 50.309143 0.291860 29,050 142 417 2240
2022-05-17 18:54:23 GMT 50.313858 0.286078 29,400 142 418 2176
2022-05-17 18:54:20 GMT 50.321804 0.276440 29,225 142 418 1984
2022-05-17 18:54:15 GMT 50.325390 0.272060 29,125 142 419 1728
2022-05-17 18:54:13 GMT 50.328873 0.267792 29,075 142 419 1664
2022-05-17 18:54:10 GMT 50.333588 0.262154 28,875 142 416 1088
2022-05-17 18:54:08 GMT 50.336472 0.258612 28,950 142 419 1536
2022-05-17 18:54:06 GMT 50.338657 0.255952 28,850 142 419 1536
2022-05-17 18:54:04 GMT 50.345078 0.248132 28,825 142 419 1600
2022-05-17 18:54:02 GMT 50.345078 0.248132 28,825 142 419 1600
2022-05-17 18:53:59 GMT 50.350388 0.241699 28,725 142 419 1472
2022-05-17 18:53:57 GMT 50.353554 0.237839 28,675 142 419 1408
2022-05-17 18:53:54 GMT 50.360119 0.229896 28,600 142 418 1344
2022-05-17 18:53:52 GMT 50.360119 0.229896 28,525 142 418 1472
2022-05-17 18:53:49 GMT 50.365284 0.223512 28,425 142 417 1600
2022-05-17 18:53:46 GMT 50.369987 0.217871 28,425 142 417 1600
2022-05-17 18:53:44 GMT 50.372314 0.215050 28,300 142 417 1728
2022-05-17 18:53:42 GMT 50.375572 0.211041 28,300 142 417 1792
2022-05-17 18:53:40 GMT 50.379158 0.206662 28,250 142 418 1792
2022-05-17 18:53:37 GMT 50.384232 0.200500 27,900 142 418 1408
2022-05-17 18:53:34 GMT 50.392044 0.190960 28,025 142 418 1344
2022-05-17 18:53:31 GMT 50.392044 0.190960 28,025 142 418 1280
2022-05-17 18:53:29 GMT 50.395962 0.186174 27,975 142 417 1088
2022-05-17 18:53:27 GMT 50.398243 0.183427 27,975 142 417 1024
2022-05-17 18:53:24 GMT 50.402992 0.177637 27,900 142 416 1088
2022-05-17 18:53:22 GMT 50.406143 0.173757 27,800 142 416 1088
2022-05-17 18:53:19 GMT 50.415115 0.162771 27,775 142 414 1280
2022-05-17 18:53:17 GMT 50.415115 0.162771 27,475 142 414 1472
2022-05-17 18:53:14 GMT 50.418076 0.159228 27,675 142 414 1472
2022-05-17 18:53:11 GMT 50.423523 0.152547 27,575 142 414 1600
2022-05-17 18:53:08 GMT 50.426422 0.148966 27,425 141 413 1728
2022-05-17 18:53:05 GMT 50.432041 0.142154 27,425 141 413 1728
2022-05-17 18:53:03 GMT 50.434937 0.138558 27,375 141 413 1792
2022-05-17 18:53:01 GMT 50.437134 0.135884 27,325 142 414 1856
2022-05-17 18:52:59 GMT 50.444843 0.126417 27,250 142 414 1920
2022-05-17 18:52:57 GMT 50.444843 0.126417 26,975 142 416 2112
2022-05-17 18:52:54 GMT 50.449173 0.121139 27,075 141 415 2112
2022-05-17 18:52:52 GMT 50.455765 0.113044 26,900 142 416 2112
2022-05-17 18:52:49 GMT 50.455765 0.113044 26,850 142 416 2112
2022-05-17 18:52:46 GMT 50.461212 0.106466 26,625 142 416 1984
2022-05-17 18:52:43 GMT 50.465561 0.101045 26,700 142 416 1920
2022-05-17 18:52:41 GMT 50.467575 0.098588 26,625 142 417 1792
2022-05-17 18:52:38 GMT 50.473564 0.091305 26,475 142 417 1664
2022-05-17 18:52:35 GMT 50.477524 0.086406 26,450 142 417 1664
2022-05-17 18:52:33 GMT 50.481537 0.081530 26,350 141 416 1600
2022-05-17 18:52:30 GMT 50.486343 0.075676 26,075 141 416 1664
2022-05-17 18:52:27 GMT 50.495636 0.064256 25,900 141 416 1856
2022-05-17 18:52:24 GMT 50.495636 0.064256 26,050 141 416 1728
2022-05-17 18:52:21 GMT 50.498108 0.061220 25,525 141 417 1920
2022-05-17 18:52:18 GMT 50.502319 0.056016 25,825 141 417 1600
2022-05-17 18:52:16 GMT 50.506760 0.050595 25,750 141 416 1856
2022-05-17 18:52:13 GMT 50.509735 0.046981 25,625 141 416 1856
2022-05-17 18:52:11 GMT 50.513321 0.042535 25,750 141 416 1920
2022-05-17 18:52:09 GMT 50.516922 0.038091 25,625 141 416 1920
2022-05-17 18:52:06 GMT 50.525005 0.028134 25,500 141 417 1920
2022-05-17 18:52:03 GMT 50.525005 0.028134 25,525 141 417 1920
2022-05-17 18:52:01 GMT 50.531895 0.019671 25,400 141 417 1920
2022-05-17 18:51:59 GMT 50.531895 0.019671 25,375 141 417 1920
2022-05-17 18:51:56 GMT 50.536652 0.013805 25,275 141 417 1856
2022-05-17 18:51:53 GMT 50.540222 0.009396 25,200 141 417 1856
2022-05-17 18:51:51 GMT 50.543381 0.005493 25,125 141 417 1792
2022-05-17 18:51:49 GMT 50.552006 -0.005270 25,025 141 417 1408
2022-05-17 18:51:46 GMT 50.552006 -0.005270 24,975 141 417 1664
2022-05-17 18:51:44 GMT 50.554871 -0.008890 24,900 141 417 1600
2022-05-17 18:51:41 GMT 50.559269 -0.014253 24,850 141 417 1536
2022-05-17 18:51:39 GMT 50.567871 -0.024936 24,750 141 416 1216
2022-05-17 18:51:36 GMT 50.567871 -0.024936 24,750 141 416 1216
2022-05-17 18:51:33 GMT 50.571259 -0.029128 24,675 141 415 1088
2022-05-17 18:51:31 GMT 50.576843 -0.036067 24,575 141 412 896
2022-05-17 18:51:29 GMT 50.576843 -0.036067 24,575 141 413 960
2022-05-17 18:51:27 GMT 50.581520 -0.041793 24,575 141 413 960
2022-05-17 18:51:23 GMT 50.586224 -0.047657 24,525 141 412 896
2022-05-17 18:51:21 GMT 50.589714 -0.051962 24,475 141 410 896
2022-05-17 18:51:19 GMT 50.596710 -0.060642 24,425 142 404 640
2022-05-17 18:51:17 GMT 50.596710 -0.060642 24,425 141 408 640
2022-05-17 18:51:14 GMT 50.598358 -0.062665 24,425 141 408 640
2022-05-17 18:51:12 GMT 50.601398 -0.066438 24,400 141 406 640
2022-05-17 18:51:10 GMT 50.606186 -0.072278 24,300 142 404 640
2022-05-17 18:51:08 GMT 50.607880 -0.074375 24,325 142 399 704
2022-05-17 18:51:05 GMT 50.616947 -0.085441 24,300 142 399 704
2022-05-17 18:51:02 GMT 50.616947 -0.085441 24,275 142 399 704
2022-05-17 18:51:00 GMT 50.619736 -0.088830 24,250 142 398 768
2022-05-17 18:50:58 GMT 50.622391 -0.092010 24,175 143 390 768
2022-05-17 18:50:56 GMT 50.625595 -0.095841 24,200 143 395 768
2022-05-17 18:50:53 GMT 50.630264 -0.101262 24,150 143 393 832
2022-05-17 18:50:51 GMT 50.636581 -0.108707 24,125 143 390 768
2022-05-17 18:50:49 GMT 50.636581 -0.108707 24,100 143 390 768
2022-05-17 18:50:47 GMT 50.642735 -0.115950 24,025 143 388 768
2022-05-17 18:50:44 GMT 50.642735 -0.115950 24,050 143 388 704
2022-05-17 18:50:42 GMT 50.645435 -0.119068 24,025 143 387 704
2022-05-17 18:50:40 GMT 50.649994 -0.124247 24,000 144 384 704
2022-05-17 18:50:37 GMT 50.658600 -0.133715 23,950 145 379 704
2022-05-17 18:50:34 GMT 50.660019 -0.135161 23,900 146 378 704
2022-05-17 18:50:30 GMT 50.664059 -0.139333 23,875 147 374 768
2022-05-17 18:50:28 GMT 50.666107 -0.141486 23,850 147 374 768
2022-05-17 18:50:26 GMT 50.668900 -0.144233 23,825 147 372 768
2022-05-17 18:50:24 GMT 50.672607 -0.147870 23,800 148 370 768
2022-05-17 18:50:22 GMT 50.674942 -0.150097 23,775 148 368 896
2022-05-17 18:50:20 GMT 50.678604 -0.153660 23,750 148 368 1024
2022-05-17 18:50:18 GMT 50.680756 -0.155664 23,725 148 366 1088
2022-05-17 18:50:15 GMT 50.685745 -0.160489 23,650 148 365 1408
2022-05-17 18:50:13 GMT 50.688545 -0.163193 23,550 148 364 1536
2022-05-17 18:50:10 GMT 50.692932 -0.167393 23,525 148 363 1472
2022-05-17 18:50:08 GMT 50.697189 -0.171476 23,450 148 363 1536
2022-05-17 18:50:05 GMT 50.699299 -0.173492 23,400 148 362 1472
2022-05-17 18:50:03 GMT 50.708282 -0.182114 23,275 148 360 1280
2022-05-17 18:50:00 GMT 50.711838 -0.185506 23,225 148 360 1280
2022-05-17 18:49:57 GMT 50.711838 -0.185506 23,225 148 360 1280
2022-05-17 18:49:55 GMT 50.713917 -0.187531 23,100 148 358 1024
2022-05-17 18:49:52 GMT 50.723087 -0.196304 23,100 148 357 1024
2022-05-17 18:49:49 GMT 50.723087 -0.196304 23,075 148 356 1088
2022-05-17 18:49:47 GMT 50.725182 -0.198364 23,025 148 356 1216
2022-05-17 18:49:44 GMT 50.732483 -0.205400 22,850 148 354 1664
2022-05-17 18:49:42 GMT 50.732483 -0.205400 22,900 148 354 1664
2022-05-17 18:49:39 GMT 50.736027 -0.208817 22,850 148 354 1856
2022-05-17 18:49:37 GMT 50.739426 -0.212097 22,750 148 354 2112
2022-05-17 18:49:35 GMT 50.742188 -0.214753 22,650 148 354 2240
2022-05-17 18:49:33 GMT 50.745056 -0.217514 22,575 148 354 2176
2022-05-17 18:49:31 GMT 50.750107 -0.222399 21,550 148 353 2048
2022-05-17 18:49:29 GMT 50.750107 -0.222399 22,425 148 353 1984
2022-05-17 18:49:27 GMT 50.752880 -0.224991 22,375 148 353 1920
2022-05-17 18:49:25 GMT 50.755066 -0.227127 22,350 148 353 1856
2022-05-17 18:49:23 GMT 50.758186 -0.230179 22,150 148 353 1984
2022-05-17 18:49:21 GMT 50.761368 -0.233163 22,150 148 352 1920
2022-05-17 18:49:18 GMT 50.765671 -0.237320 22,100 148 352 1920
2022-05-17 18:49:16 GMT 50.768379 -0.239944 21,975 148 352 1984
2022-05-17 18:49:13 GMT 50.772430 -0.243835 21,950 148 352 1984
2022-05-17 18:49:11 GMT 50.774712 -0.246048 21,900 148 352 2048
2022-05-17 18:49:09 GMT 50.780624 -0.251694 21,775 148 351 1984
2022-05-17 18:49:07 GMT 50.780624 -0.251694 21,725 148 351 1984
2022-05-17 18:49:05 GMT 50.784721 -0.255661 21,650 148 351 1984
2022-05-17 18:49:02 GMT 50.788925 -0.259738 21,600 148 351 2048
2022-05-17 18:48:59 GMT 50.791443 -0.262187 21,400 148 351 2240
2022-05-17 18:48:57 GMT 50.794868 -0.265503 21,025 148 351 2304
2022-05-17 18:48:55 GMT 50.797073 -0.267606 21,200 148 351 2304
2022-05-17 18:48:53 GMT 50.800690 -0.271149 21,200 148 351 2304
2022-05-17 18:48:51 GMT 50.804077 -0.274436 20,825 148 350 2240
2022-05-17 18:48:48 GMT 50.808014 -0.278221 21,025 148 350 2240
2022-05-17 18:48:46 GMT 50.810093 -0.280228 20,900 148 350 2240
2022-05-17 18:48:43 GMT 50.814148 -0.284160 20,875 148 350 2048
2022-05-17 18:48:41 GMT 50.817028 -0.286865 20,800 148 350 2112
2022-05-17 18:48:39 GMT 50.820518 -0.290298 20,700 148 350 2048
2022-05-17 18:48:37 GMT 50.822754 -0.292435 20,650 148 350 2048
2022-05-17 18:48:35 GMT 50.826244 -0.295792 20,550 148 350 2112
2022-05-17 18:48:32 GMT 50.831818 -0.301159 20,400 148 349 2176
2022-05-17 18:48:29 GMT 50.834019 -0.303268 20,325 148 349 2304
2022-05-17 18:48:27 GMT 50.836395 -0.305539 20,275 148 349 2368
2022-05-17 18:48:25 GMT 50.838581 -0.307693 20,200 148 349 2432
2022-05-17 18:48:23 GMT 50.846283 -0.315115 20,050 148 349 2432
2022-05-17 18:48:20 GMT 50.846283 -0.315115 20,000 148 350 2368
2022-05-17 18:48:18 GMT 50.849075 -0.317787 19,925 148 350 2240
2022-05-17 18:48:16 GMT 50.851757 -0.320358 19,800 148 349 1920
2022-05-17 18:48:13 GMT 50.855713 -0.324171 19,775 148 349 1664
2022-05-17 18:48:11 GMT 50.858459 -0.326843 19,675 148 348 1536
2022-05-17 18:48:09 GMT 50.861347 -0.329590 19,650 148 346 1600
2022-05-17 18:48:07 GMT 50.863953 -0.332108 19,575 148 346 1600
2022-05-17 18:48:04 GMT 50.868050 -0.336075 19,550 148 344 2112
2022-05-17 18:48:02 GMT 50.871307 -0.339203 19,450 148 344 2176
2022-05-17 18:47:59 GMT 50.875546 -0.343323 19,325 148 344 2496
2022-05-17 18:47:57 GMT 50.877640 -0.345383 19,250 148 344 2624
2022-05-17 18:47:55 GMT 50.879734 -0.347366 19,050 148 345 3008
2022-05-17 18:47:53 GMT 50.883133 -0.350672 19,050 148 345 3008
2022-05-17 18:47:51 GMT 50.886719 -0.354156 18,825 148 346 3200
2022-05-17 18:47:48 GMT 50.890594 -0.357946 18,775 148 347 3200
2022-05-17 18:47:46 GMT 50.892582 -0.359879 18,575 148 348 2880
2022-05-17 18:47:43 GMT 50.896637 -0.363737 18,500 148 349 2688
2022-05-17 18:47:41 GMT 50.904099 -0.371011 18,375 148 349 2368
2022-05-17 18:47:38 GMT 50.904099 -0.371011 18,325 148 349 2176
2022-05-17 18:47:36 GMT 50.905384 -0.372238 18,275 148 349 2176
2022-05-17 18:47:34 GMT 50.909134 -0.375836 18,125 148 348 1792
2022-05-17 18:47:31 GMT 50.913204 -0.379791 18,100 148 348 1792
2022-05-17 18:47:28 GMT 50.917419 -0.383853 17,900 148 346 2112
2022-05-17 18:47:26 GMT 50.920120 -0.386526 17,925 148 346 2240
2022-05-17 18:47:24 GMT 50.922913 -0.389198 17,875 148 346 2368
2022-05-17 18:47:21 GMT 50.926983 -0.393219 17,675 148 346 2624
2022-05-17 18:47:18 GMT 50.931015 -0.397067 17,600 148 346 2880
2022-05-17 18:47:15 GMT 50.934711 -0.400696 17,450 148 346 3072
2022-05-17 18:47:13 GMT 50.938522 -0.404416 17,275 148 347 3392
2022-05-17 18:47:10 GMT 50.941181 -0.406952 17,200 148 348 3520
2022-05-17 18:47:08 GMT 50.948044 -0.413620 16,900 148 351 3328
2022-05-17 18:47:06 GMT 50.950836 -0.416367 16,900 148 351 3264
2022-05-17 18:47:04 GMT 50.950836 -0.416367 16,850 148 351 3136
2022-05-17 18:47:01 GMT 50.954823 -0.420227 16,650 148 351 2432
2022-05-17 18:46:58 GMT 50.959198 -0.424500 16,500 148 351 2304
2022-05-17 18:46:56 GMT 50.961433 -0.426636 16,425 148 351 2048
2022-05-17 18:46:54 GMT 50.962875 -0.428096 16,350 148 351 1984
2022-05-17 18:46:52 GMT 50.966274 -0.431366 16,325 148 350 1984
2022-05-17 18:46:50 GMT 50.969879 -0.434851 16,275 148 350 1984
2022-05-17 18:46:47 GMT 50.973305 -0.438156 16,150 148 349 2048
2022-05-17 18:46:45 GMT 50.976051 -0.440903 16,000 148 348 2048
2022-05-17 18:46:42 GMT 50.980381 -0.445023 16,000 148 348 2048
2022-05-17 18:46:40 GMT 50.983173 -0.447769 15,900 148 347 2176
2022-05-17 18:46:38 GMT 50.986057 -0.450592 15,850 148 347 2176
2022-05-17 18:46:36 GMT 50.989151 -0.453557 15,775 148 346 2176
2022-05-17 18:46:34 GMT 50.991600 -0.455933 15,550 148 346 2112
2022-05-17 18:46:31 GMT 50.995422 -0.459718 15,550 148 344 2176
2022-05-17 18:46:28 GMT 51.002769 -0.466843 15,400 148 343 2048
2022-05-17 18:46:26 GMT 51.002769 -0.466843 15,425 148 343 2048
2022-05-17 18:46:24 GMT 51.004726 -0.468750 15,375 148 343 2112
2022-05-17 18:46:22 GMT 51.007416 -0.471373 15,300 148 342 2176
2022-05-17 18:46:19 GMT 51.010777 -0.474625 15,200 148 342 2176
2022-05-17 18:46:17 GMT 51.014736 -0.478439 15,100 148 341 2240
2022-05-17 18:46:15 GMT 51.017250 -0.480881 15,050 148 341 2240
2022-05-17 18:46:13 GMT 51.020836 -0.484390 14,825 148 340 2176
2022-05-17 18:46:10 GMT 51.027466 -0.490822 14,800 148 338 1984
2022-05-17 18:46:07 GMT 51.027466 -0.490822 14,750 148 338 1984
2022-05-17 18:46:05 GMT 51.032799 -0.495987 14,650 148 336 1920
2022-05-17 18:46:01 GMT 51.036209 -0.499358 14,550 148 336 1792
2022-05-17 18:45:59 GMT 51.039593 -0.502625 14,425 148 333 1536
2022-05-17 18:45:56 GMT 51.042297 -0.505297 14,450 148 333 1536
2022-05-17 18:45:54 GMT 51.045044 -0.507969 14,375 148 332 1408
2022-05-17 18:45:52 GMT 51.047974 -0.510788 14,325 148 330 1152
2022-05-17 18:45:50 GMT 51.054474 -0.517100 14,250 148 325 1088
2022-05-17 18:45:47 GMT 51.054474 -0.517100 14,250 148 325 1024
2022-05-17 18:45:45 GMT 51.056351 -0.518956 13,950 151 310 1088
2022-05-17 18:45:43 GMT 51.059738 -0.522222 14,175 149 320 960
2022-05-17 18:45:41 GMT 51.062405 -0.524750 14,150 149 316 960
2022-05-17 18:45:39 GMT 51.063858 -0.526082 14,125 150 316 1024
2022-05-17 18:45:37 GMT 51.067062 -0.528977 14,075 150 313 960
2022-05-17 18:45:35 GMT 51.068874 -0.530624 14,050 150 311 1024
2022-05-17 18:45:33 GMT 51.071686 -0.533060 14,025 151 309 1088
2022-05-17 18:45:31 GMT 51.073837 -0.534915 13,975 151 307 1152
2022-05-17 18:45:29 GMT 51.076927 -0.537491 13,950 152 304 1216
2022-05-17 18:45:26 GMT 51.080795 -0.540706 13,875 153 300 1216
2022-05-17 18:45:24 GMT 51.085968 -0.544640 13,825 154 297 1088
2022-05-17 18:45:22 GMT 51.085968 -0.544640 13,800 156 293 1088
2022-05-17 18:45:19 GMT 51.093548 -0.549622 13,700 161 285 1216
2022-05-17 18:45:16 GMT 51.093548 -0.549622 13,675 163 282 1344
2022-05-17 18:45:14 GMT 51.095901 -0.550801 13,625 164 280 1536
2022-05-17 18:45:12 GMT 51.099041 -0.552063 13,525 170 274 2176
2022-05-17 18:45:09 GMT 51.102207 -0.552979 13,450 172 273 2304
2022-05-17 18:45:07 GMT 51.105103 -0.553548 13,375 174 271 2560
2022-05-17 18:45:03 GMT 51.108810 -0.553919 13,200 184 266 2368
2022-05-17 18:45:01 GMT 51.111378 -0.553894 13,150 184 266 2304
2022-05-17 18:44:59 GMT 51.115616 -0.553436 13,025 187 264 2176
2022-05-17 18:44:56 GMT 51.118378 -0.552731 12,950 191 262 2240
2022-05-17 18:44:54 GMT 51.120689 -0.551834 12,875 196 260 2496
2022-05-17 18:44:51 GMT 51.122910 -0.550875 12,650 201 257 2688
2022-05-17 18:44:49 GMT 51.126369 -0.548935 12,575 202 257 2752
2022-05-17 18:44:46 GMT 51.129822 -0.546793 12,500 202 256 2816
2022-05-17 18:44:44 GMT 51.131676 -0.545654 12,475 202 256 2816
2022-05-17 18:44:41 GMT 51.135212 -0.543442 12,275 202 255 2816
2022-05-17 18:44:39 GMT 51.137054 -0.542339 12,125 202 253 2688
2022-05-17 18:44:37 GMT 51.139114 -0.541077 12,100 202 254 2688
2022-05-17 18:44:35 GMT 51.141453 -0.539627 11,925 202 253 2624
2022-05-17 18:44:32 GMT 51.144150 -0.537949 11,925 202 252 2624
2022-05-17 18:44:29 GMT 51.150620 -0.534058 11,625 201 250 2752
2022-05-17 18:44:27 GMT 51.150620 -0.534058 11,625 201 250 2752
2022-05-17 18:44:25 GMT 51.152252 -0.533060 11,600 201 250 2688
2022-05-17 18:44:23 GMT 51.158489 -0.529327 11,375 201 248 2816
2022-05-17 18:44:20 GMT 51.158489 -0.529327 11,125 201 247 2944
2022-05-17 18:44:17 GMT 51.160027 -0.528412 11,150 201 247 2944
2022-05-17 18:44:15 GMT 51.163891 -0.526123 11,125 201 247 2944
2022-05-17 18:44:12 GMT 51.165436 -0.525191 10,975 201 247 3072
2022-05-17 18:44:10 GMT 51.167614 -0.523987 10,825 200 246 3200
2022-05-17 18:44:08 GMT 51.174362 -0.520069 10,675 200 246 3328
2022-05-17 18:44:05 GMT 51.174362 -0.520069 10,625 200 245 3392
2022-05-17 18:44:02 GMT 51.176605 -0.518733 10,425 200 246 3456
2022-05-17 18:44:00 GMT 51.181671 -0.515823 10,125 201 247 3648
2022-05-17 18:43:58 GMT 51.183975 -0.514502 10,025 201 248 3712
2022-05-17 18:43:55 GMT 51.183975 -0.514502 9,850 201 248 3712
2022-05-17 18:43:53 GMT 51.188782 -0.511681 9,550 201 248 3584
2022-05-17 18:43:48 GMT 51.191586 -0.510101 9,550 201 248 3520
2022-05-17 18:43:46 GMT 51.194286 -0.508499 9,425 201 248 3392
2022-05-17 18:43:44 GMT 51.196152 -0.507375 9,175 201 248 3328
2022-05-17 18:43:42 GMT 51.198257 -0.506113 9,175 201 248 3328
2022-05-17 18:43:39 GMT 51.201084 -0.504456 8,950 201 248 3520
2022-05-17 18:43:37 GMT 51.204342 -0.502472 8,800 201 248 3328
2022-05-17 18:43:34 GMT 51.207184 -0.500694 8,675 202 247 3200
2022-05-17 18:43:31 GMT 51.210526 -0.498616 8,550 202 246 3008
2022-05-17 18:43:29 GMT 51.212723 -0.497284 8,400 202 246 2944
2022-05-17 18:43:26 GMT 51.215702 -0.495377 8,300 202 244 3328
2022-05-17 18:43:24 GMT 51.217983 -0.494003 8,125 202 244 3328
2022-05-17 18:43:21 GMT 51.221149 -0.491943 7,900 203 244 2688
2022-05-17 18:43:18 GMT 51.226044 -0.488817 7,900 203 244 2688
2022-05-17 18:43:16 GMT 51.226044 -0.488817 7,825 203 244 2688
2022-05-17 18:43:14 GMT 51.227989 -0.487595 7,625 203 243 2624
2022-05-17 18:43:12 GMT 51.233021 -0.484238 7,625 203 242 2496
2022-05-17 18:43:09 GMT 51.233021 -0.484238 7,525 203 242 2560
2022-05-17 18:43:07 GMT 51.238884 -0.480347 7,325 203 242 2496
2022-05-17 18:43:04 GMT 51.238884 -0.480347 7,275 203 243 2496
2022-05-17 18:43:01 GMT 51.241028 -0.478897 7,175 204 245 2496
2022-05-17 18:42:59 GMT 51.243622 -0.477089 7,025 204 246 2560
2022-05-17 18:42:56 GMT 51.246799 -0.474930 6,975 204 244 2560
2022-05-17 18:42:54 GMT 51.249435 -0.473080 6,850 205 246 2944
2022-05-17 18:42:51 GMT 51.255875 -0.468445 6,675 205 246 3072
2022-05-17 18:42:48 GMT 51.255875 -0.468445 6,575 205 246 3136
2022-05-17 18:42:45 GMT 51.258530 -0.466614 6,450 205 244 2688
2022-05-17 18:42:43 GMT 51.263718 -0.462836 6,325 205 242 2176
2022-05-17 18:42:40 GMT 51.263718 -0.462836 6,250 205 242 1984
2022-05-17 18:42:37 GMT 51.267426 -0.460090 6,150 205 240 1600
2022-05-17 18:42:34 GMT 51.269897 -0.458308 6,100 205 239 1216
2022-05-17 18:42:31 GMT 51.273422 -0.455636 6,025 206 238 832
2022-05-17 18:42:28 GMT 51.275345 -0.454225 6,025 206 237 512
2022-05-17 18:42:25 GMT 51.278782 -0.451584 6,000 206 237 256
2022-05-17 18:42:23 GMT 51.280426 -0.450365 5,975 206 236 0
2022-05-17 18:42:20 GMT 51.283436 -0.447998 5,975 206 235 64
2022-05-17 18:42:18 GMT 51.286240 -0.445837 5,975 207 232 1536
2022-05-17 18:42:15 GMT 51.288574 -0.444056 5,975 206 235 64
2022-05-17 18:42:13 GMT 51.289993 -0.442942 5,975 206 234 -64
2022-05-17 18:42:10 GMT 51.293335 -0.440344 5,975 206 234 -64
2022-05-17 18:42:08 GMT 51.295258 -0.438919 5,975 206 235 -64
2022-05-17 18:42:05 GMT 51.298054 -0.436707 5,975 206 235 0
2022-05-17 18:42:03 GMT 51.300476 -0.434851 5,975 206 235 0
2022-05-17 18:42:00 GMT 51.302765 -0.433069 5,975 207 234 128
2022-05-17 18:41:58 GMT 51.304245 -0.431976 5,975 207 234 128
2022-05-17 18:41:55 GMT 51.307571 -0.429358 5,975 207 234 128
2022-05-17 18:41:53 GMT 51.309551 -0.427856 5,975 207 236 0
2022-05-17 18:41:50 GMT 51.316254 -0.422592 5,950 207 236 192
2022-05-17 18:41:47 GMT 51.316254 -0.422592 5,950 207 236 320
2022-05-17 18:41:44 GMT 51.318741 -0.420598 5,950 207 236 384
2022-05-17 18:41:40 GMT 51.322403 -0.417777 5,900 207 234 832
2022-05-17 18:41:37 GMT 51.325100 -0.415649 5,800 207 233 1024
2022-05-17 18:41:34 GMT 51.328217 -0.413208 5,775 207 233 1216
2022-05-17 18:41:32 GMT 51.329727 -0.412062 5,725 207 233 1408
2022-05-17 18:41:29 GMT 51.332611 -0.409760 5,425 207 233 1472
2022-05-17 18:41:27 GMT 51.336040 -0.407104 5,600 207 233 1472
2022-05-17 18:41:24 GMT 51.337948 -0.405579 5,550 207 233 1472
2022-05-17 18:41:22 GMT 51.339661 -0.404267 5,500 207 233 1472
2022-05-17 18:41:19 GMT 51.342369 -0.402145 5,425 207 233 1472
2022-05-17 18:41:17 GMT 51.344746 -0.400238 5,375 207 233 1472
2022-05-17 18:41:14 GMT 51.349457 -0.396547 5,175 207 233 1408
2022-05-17 18:41:12 GMT 51.352192 -0.394363 5,225 207 233 1536
2022-05-17 18:41:09 GMT 51.352192 -0.394363 5,200 207 233 1536
2022-05-17 18:41:06 GMT 51.357826 -0.389938 5,050 207 233 1600
2022-05-17 18:41:04 GMT 51.357826 -0.389938 5,050 207 233 1600
2022-05-17 18:41:02 GMT 51.359081 -0.388947 4,950 207 232 1536
2022-05-17 18:40:59 GMT 51.361969 -0.386658 4,925 207 232 1600
2022-05-17 18:40:57 GMT 51.367310 -0.382369 4,875 207 232 1536
2022-05-17 18:40:54 GMT 51.367310 -0.382369 4,625 207 231 1472
2022-05-17 18:40:52 GMT 51.368866 -0.381181 4,700 207 232 1536
2022-05-17 18:40:49 GMT 51.374176 -0.376876 4,650 207 232 1536
2022-05-17 18:40:47 GMT 51.374176 -0.376876 4,575 207 232 1600
2022-05-17 18:40:44 GMT 51.378448 -0.373459 4,525 207 231 1600
2022-05-17 18:40:39 GMT 51.381706 -0.370789 4,325 207 231 1600
2022-05-17 18:40:37 GMT 51.383240 -0.369601 4,350 206 231 1600
2022-05-17 18:40:34 GMT 51.385803 -0.367584 4,250 206 230 1600
2022-05-17 18:40:32 GMT 51.388084 -0.365906 4,200 204 230 1600
2022-05-17 18:40:29 GMT 51.391388 -0.363662 4,125 201 230 1472
2022-05-17 18:40:27 GMT 51.392303 -0.363143 4,075 197 229 1472
2022-05-17 18:40:24 GMT 51.395691 -0.361510 3,975 188 229 1472
2022-05-17 18:40:22 GMT 51.398979 -0.360565 3,950 185 229 1472
2022-05-17 18:40:19 GMT 51.401489 -0.360260 3,875 182 231 1472
2022-05-17 18:40:16 GMT 51.407917 -0.360718 3,800 174 231 1664
2022-05-17 18:40:13 GMT 51.407917 -0.360718 3,750 171 230 2048
2022-05-17 18:40:11 GMT 51.409359 -0.361099 3,600 165 231 2048
2022-05-17 18:40:08 GMT 51.412479 -0.362167 3,575 164 230 2112
2022-05-17 18:40:06 GMT 51.416061 -0.363811 3,425 161 230 2112
2022-05-17 18:40:03 GMT 51.418205 -0.364990 3,350 160 230 2112
2022-05-17 18:39:57 GMT 51.424255 -0.368347 3,125 161 225 2432
2022-05-17 18:39:54 GMT 51.427235 -0.370026 2,825 161 222 2368
2022-05-17 18:39:52 GMT 51.428677 -0.370789 3,000 161 222 2304
2022-05-17 18:39:49 GMT 51.434544 -0.373993 2,625 161 216 1984
2022-05-17 18:39:46 GMT 51.434544 -0.373993 2,625 161 211 1920
2022-05-17 18:39:43 GMT 51.437988 -0.375836 2,650 161 209 1920
2022-05-17 18:39:38 GMT 51.441944 -0.377960 2,500 159 200 1728
2022-05-17 18:39:36 GMT 51.443760 -0.379028 2,350 156 195 1280
2022-05-17 18:39:33 GMT 51.446594 -0.380884 2,375 154 194 960
2022-05-17 18:39:30 GMT 51.450790 -0.384903 2,325 145 187 512
2022-05-17 18:39:27 GMT 51.450790 -0.384903 2,325 140 184 768
2022-05-17 18:39:25 GMT 51.452316 -0.386897 2,150 132 176 1408
2022-05-17 18:39:22 GMT 51.453770 -0.389099 2,225 133 178 1344
2022-05-17 18:39:16 GMT 51.458954 -0.398254 2,075 131 171 1216
2022-05-17 18:39:13 GMT 51.459503 -0.399368 2,000 127 167 1024
2022-05-17 18:39:11 GMT 51.459915 -0.400238 2,000 125 165 1024
2022-05-17 18:39:10 GMT 51.460800 -0.402298 1,950 122 163 1024
2022-05-17 18:39:08 GMT 51.461220 -0.403290 1,950 120 162 960
2022-05-17 18:39:07 GMT 51.461563 -0.404267 1,925 119 162 896
2022-05-17 18:39:04 GMT 51.462708 -0.407756 1,875 114 158 768
2022-05-17 18:39:02 GMT 51.463219 -0.409698 1,850 109 155 512
2022-05-17 18:39:01 GMT 51.463486 -0.410800 1,850 109 155 512
2022-05-17 18:38:59 GMT 51.463943 -0.413101 1,825 106 153 576
2022-05-17 18:38:58 GMT 51.464291 -0.415192 1,800 102 149 960
2022-05-17 18:38:56 GMT 51.464478 -0.416336 1,775 102 149 1024
2022-05-17 18:38:54 GMT 51.464756 -0.418549 1,750 99 148 1088
2022-05-17 18:38:53 GMT 51.464859 -0.419633 1,725 97 147 1216
2022-05-17 18:38:51 GMT 51.465042 -0.421786 1,675 93 145 1472
2022-05-17 18:38:49 GMT 51.465179 -0.423939 1,625 93 145 1472
2022-05-17 18:38:48 GMT 51.465225 -0.426166 1,575 91 145 1664
2022-05-17 18:38:45 GMT 51.465271 -0.427353 1,525 89 144 1920
2022-05-17 18:38:44 GMT 51.465271 -0.428541 1,500 89 143 2048
2022-05-17 18:38:42 GMT 51.465271 -0.430694 1,400 89 143 2304
2022-05-17 18:38:41 GMT 51.465225 -0.431807 1,325 88 142 2560
2022-05-17 18:38:39 GMT 51.465221 -0.433350 1,325 88 142 2560
2022-05-17 18:38:37 GMT 51.465176 -0.436401 1,225 88 142 2816
2022-05-17 18:38:35 GMT 51.465134 -0.438637 1,075 88 143 3008
2022-05-17 18:38:33 GMT 51.465130 -0.440826 975 88 145 3136
2022-05-17 18:38:32 GMT 51.465088 -0.442868 875 88 147 3136
2022-05-17 18:38:30 GMT 51.465042 -0.444130 825 88 147 3072
2022-05-17 18:38:29 GMT 51.465034 -0.445175 775 88 149 3136
2022-05-17 18:38:27 GMT 51.464989 -0.446930 650 88 150 3136
2022-05-17 18:38:26 GMT 51.464989 -0.447998 575 88 150 3136
2022-05-17 18:38:23 GMT 51.464905 -0.451553 500 88 152 3008
2022-05-17 18:38:22 GMT 51.464905 -0.452592 400 88 153 2880
2022-05-17 18:38:20 GMT 51.464893 -0.454712 350 89 156 3072
2022-05-17 18:38:19 GMT 51.464859 -0.458531 225 89 157 2816
2022-05-17 18:38:17 GMT 51.464859 -0.458531 200 89 156 704
2022-05-17 18:38:14 GMT 51.464848 -0.463333 75 89 156 704
2022-05-17 18:38:13 GMT 51.464848 -0.463333 75 89 156 704
2022-05-17 18:38:11 GMT 51.464848 -0.465469 50 89 151 192
2022-05-17 18:38:08 GMT 51.464813 -0.468775 75 89 141 64
2022-05-17 18:38:05 GMT 51.464813 -0.471447 75 89 126 64
2022-05-17 18:38:04 GMT 51.464802 -0.472260 75 89 126 64
2022-05-17 18:38:02 GMT 51.464802 -0.474243 75 89 122 64
2022-05-17 18:38:00 GMT 51.464813 -0.475901 100 89 118 64
2022-05-17 18:37:59 GMT 51.464802 -0.478363 100 90 98 64
2022-05-17 18:37:56 GMT 51.464767 -0.479464 100 89 93 64
2022-05-17 18:37:54 GMT 51.464779 -0.480728 0 90 86
2022-05-17 18:37:50 GMT 51.464779 -0.482731 0 90 72
2022-05-17 18:37:48 GMT 51.464779 -0.484047 0 90 56
2022-05-17 18:37:44 GMT 51.464767 -0.485254 0 90 42
2022-05-17 18:37:43 GMT 51.464767 -0.485535 0 90 37
2022-05-17 18:37:41 GMT 51.464767 -0.486031 0 90 28
2022-05-17 18:37:38 GMT 51.464767 -0.486516 0 90 9
2022-05-17 18:37:37 GMT 51.464767 -0.486584 0 92 9
2022-05-17 18:37:00 GMT 51.464767 -0.486702 0 92 0
2022-05-17 18:36:13 GMT 51.464779 -0.486720 0 92 2
2022-05-17 18:36:12 GMT 51.464779 -0.486717 0 92 2
2022-05-17 18:36:11 GMT 51.464779 -0.486736 0 92 3
2022-05-17 18:36:09 GMT 51.464779 -0.486774 0 92 3
2022-05-17 18:36:07 GMT 51.464779 -0.486794 0 92 3
2022-05-17 18:36:04 GMT 51.464767 -0.486870 0 98 4
2022-05-17 18:36:01 GMT 51.464779 -0.486962 0 101 5
2022-05-17 18:36:00 GMT 51.464779 -0.486999 0 104 5
2022-05-17 18:35:57 GMT 51.464779 -0.487080 0 106 5
2022-05-17 18:35:55 GMT 51.464790 -0.487156 0 109 5
2022-05-17 18:35:54 GMT 51.464790 -0.487194 0 112 5
2022-05-17 18:35:52 GMT 51.464813 -0.487258 0 115 6
2022-05-17 18:35:51 GMT 51.464813 -0.487309 0 115 6
2022-05-17 18:35:49 GMT 51.464836 -0.487388 0 120 6
2022-05-17 18:35:48 GMT 51.464836 -0.487426 0 123 6
2022-05-17 18:35:44 GMT 51.464882 -0.487555 0 132 7
2022-05-17 18:35:40 GMT 51.464962 -0.487722 0 140 7
2022-05-17 18:35:21 GMT 51.465477 -0.488071 0 188 5
2022-05-17 18:35:20 GMT 51.465488 -0.488071 0 191 5
2022-05-17 18:35:19 GMT 51.465546 -0.488056 0 194 4
2022-05-17 18:35:17 GMT 51.465546 -0.488056 0 194 4
2022-05-17 18:35:13 GMT 51.465618 -0.488033 0 196 4
2022-05-17 18:35:11 GMT 51.465649 -0.488019 0 196 4
2022-05-17 18:35:07 GMT 51.465710 -0.487995 0 199 4
2022-05-17 18:35:06 GMT 51.465729 -0.487982 0 199 4
2022-05-17 18:34:55 GMT 51.465889 -0.487908 0 199 4
2022-05-17 18:34:54 GMT 51.465908 -0.487881 0 199 4
2022-05-17 18:34:50 GMT 51.465958 -0.487852 0 196 4
2022-05-17 18:34:49 GMT 51.465965 -0.487843 0 196 4
2022-05-17 18:34:48 GMT 51.465988 -0.487843 0 196 4
2022-05-17 18:34:37 GMT 51.466152 -0.487747 0 194 4
2022-05-17 18:34:35 GMT 51.466175 -0.487747 0 191 4
2022-05-17 18:34:33 GMT 51.466267 -0.487704 0 188 3
2022-05-17 18:34:30 GMT 51.466267 -0.487704 0 188 3
2022-05-17 18:34:28 GMT 51.466290 -0.487685 0 188 3
2022-05-17 18:34:26 GMT 51.466316 -0.487690 0 185 3
2022-05-17 18:34:25 GMT 51.466328 -0.487671 0 185 3
2022-05-17 18:34:23 GMT 51.466351 -0.487671 0 185 3
2022-05-17 18:34:18 GMT 51.466419 -0.487652 0 182 2
2022-05-17 18:34:12 GMT 51.466461 -0.487648 0 180 2
2022-05-17 18:34:10 GMT 51.466476 -0.487652 0 180 3
2022-05-17 18:34:09 GMT 51.466492 -0.487652 0 180 3
2022-05-17 18:33:56 GMT 51.466698 -0.487652 0 180 2
2022-05-17 18:33:54 GMT 51.466709 -0.487652 0 180 3
2022-05-17 18:33:43 GMT 51.466862 -0.487652 0 182 4
2022-05-17 18:33:39 GMT 51.466908 -0.487652 0 185 4
2022-05-17 18:33:37 GMT 51.466953 -0.487667 0 188 4
2022-05-17 18:33:36 GMT 51.466965 -0.487667 0 188 4
2022-05-17 18:33:33 GMT 51.467003 -0.487671 0 194 4
2022-05-17 18:33:24 GMT 51.467152 -0.487652 0 216 4
2022-05-17 18:33:23 GMT 51.467190 -0.487633 0 222 4
2022-05-17 18:33:20 GMT 51.467205 -0.487611 0 225 4
2022-05-17 18:33:18 GMT 51.467251 -0.487574 0 236 4
2022-05-17 18:33:17 GMT 51.467258 -0.487556 0 236 4
2022-05-17 18:33:15 GMT 51.467281 -0.487518 0 241 3
2022-05-17 18:33:13 GMT 51.467297 -0.487481 0 244 4
2022-05-17 18:33:12 GMT 51.467316 -0.487461 0 244 4
2022-05-17 18:33:09 GMT 51.467342 -0.487388 0 253 5
2022-05-17 18:33:05 GMT 51.467377 -0.487277 0 261 5
2022-05-17 18:33:02 GMT 51.467384 -0.487175 0 267 7
2022-05-17 18:32:59 GMT 51.467400 -0.487036 0 270 8
2022-05-17 18:32:57 GMT 51.467400 -0.486906 0 270 10
2022-05-17 18:32:55 GMT 51.467400 -0.486832 0 270 10
2022-05-17 18:32:51 GMT 51.467400 -0.486526 0 270 11
2022-05-17 18:32:48 GMT 51.467400 -0.486317 0 270 10
2022-05-17 18:32:47 GMT 51.467400 -0.486219 0 270 9
2022-05-17 18:32:46 GMT 51.467400 -0.486145 0 270 9
2022-05-17 18:32:39 GMT 51.467407 -0.485802 0 270 6
2022-05-17 18:32:36 GMT 51.467411 -0.485681 0 270 5
2022-05-17 18:32:33 GMT 51.467411 -0.485570 0 270 5
2022-05-17 18:32:29 GMT 51.467411 -0.485440 0 270 4
2022-05-17 18:32:21 GMT 51.467411 -0.485236 0 270 4
2022-05-17 18:32:19 GMT 51.467400 -0.485199 0 270 4
2022-05-17 18:32:18 GMT 51.467407 -0.485172 0 270 4
2022-05-17 18:32:16 GMT 51.467407 -0.485115 0 270 4
2022-05-17 18:32:12 GMT 51.467400 -0.484994 0 270 4
2022-05-17 18:32:00 GMT 51.467407 -0.484657 0 270 5
2022-05-17 18:31:52 GMT 51.467407 -0.484257 0 270 7
2022-05-17 18:31:49 GMT 51.467407 -0.484085 0 270 6
2022-05-17 18:31:44 GMT 51.467411 -0.483955 0 270 5
2022-05-17 18:31:42 GMT 51.467411 -0.483881 0 270 4
2022-05-17 18:31:39 GMT 51.467407 -0.483818 0 270 3
2022-05-17 18:31:33 GMT 51.467411 -0.483640 0 270 5
2022-05-17 18:31:29 GMT 51.467407 -0.483494 0 270 5
2022-05-17 18:31:26 GMT 51.467407 -0.483398 0 270 5
2022-05-17 18:31:24 GMT 51.467407 -0.483303 0 270 4
2022-05-17 18:31:21 GMT 51.467407 -0.483246 0 270 4
2022-05-17 18:31:19 GMT 51.467411 -0.483194 0 270 3
2022-05-17 18:31:17 GMT 51.467407 -0.483170 0 270 2
2022-05-17 18:31:16 GMT 51.467407 -0.483150 0 270 2
2022-05-17 18:31:15 GMT 51.467407 -0.483150 0 270 2
2022-05-17 18:31:11 GMT 51.467407 -0.483074 0 270 3
2022-05-17 18:31:10 GMT 51.467411 -0.483027 0 270 3
2022-05-17 18:31:06 GMT 51.467407 -0.482998 0 270 2
2022-05-17 18:31:04 GMT 51.467411 -0.482972 0 270 1
2022-05-17 18:31:00 GMT 51.467407 -0.482960 0 270 1
2022-05-17 18:30:57 GMT 51.467411 -0.482916 0 270 3
2022-05-17 18:30:51 GMT 51.467407 -0.482807 0 270 5
2022-05-17 18:30:49 GMT 51.467411 -0.482693 0 270 6
2022-05-17 18:30:44 GMT 51.467407 -0.482502 0 270 5
2022-05-17 18:30:43 GMT 51.467411 -0.482452 0 270 5
2022-05-17 18:30:39 GMT 51.467411 -0.482285 0 270 8
2022-05-17 18:30:37 GMT 51.467407 -0.482178 0 270 8
2022-05-17 18:30:35 GMT 51.467407 -0.482025 0 270 8
2022-05-17 18:30:28 GMT 51.467407 -0.481701 0 270 6
2022-05-17 18:30:25 GMT 51.467407 -0.481548 0 270 5
2022-05-17 18:30:22 GMT 51.467407 -0.481415 0 270 4
2022-05-17 18:30:18 GMT 51.467407 -0.481358 0 270 3
2022-05-17 18:30:16 GMT 51.467407 -0.481319 0 270 0
2022-05-17 18:30:11 GMT 51.467407 -0.481243 0 270 0
2022-05-17 18:30:06 GMT 51.467411 -0.481227 0 270 0
2022-05-17 18:29:55 GMT 51.467407 -0.481243 0 270 0
2022-05-17 18:29:36 GMT 51.467400 -0.481246 0 270 0
2022-05-17 18:29:31 GMT 51.467411 -0.481264 0 270 0
2022-05-17 18:29:21 GMT 51.467411 -0.481246 0 270 0
2022-05-17 18:29:11 GMT 51.467411 -0.481246 0 270 0
2022-05-17 18:29:01 GMT 51.467400 -0.481246 0 270 0
2022-05-17 18:28:56 GMT 51.467407 -0.481243 0 270 0
2022-05-17 18:28:54 GMT 51.467400 -0.481246 0 270 0
2022-05-17 18:28:51 GMT 51.467411 -0.481246 0 270 0
2022-05-17 18:28:49 GMT 51.467407 -0.481243 0 270 0
2022-05-17 18:28:46 GMT 51.467411 -0.481246 0 270 0
2022-05-17 18:28:44 GMT 51.467407 -0.481243 0 270 0
2022-05-17 18:28:43 GMT 51.467411 -0.481246 0 270 0
2022-05-17 18:28:38 GMT 51.467407 -0.481243 0 270 0
2022-05-17 18:28:34 GMT 51.467411 -0.481246 0 270 0
2022-05-17 18:28:33 GMT 51.467411 -0.481246 0 270 1
2022-05-17 18:28:30 GMT 51.467407 -0.481167 0 270 4
2022-05-17 18:28:27 GMT 51.467407 -0.481167 0 270 4
2022-05-17 18:28:26 GMT 51.467407 -0.481091 0 270 4
2022-05-17 18:28:23 GMT 51.467411 -0.481042 0 270 4
2022-05-17 18:28:20 GMT 51.467407 -0.480976 0 270 4
2022-05-17 18:28:19 GMT 51.467407 -0.480957 0 270 4
2022-05-17 18:28:16 GMT 51.467411 -0.480875 0 270 4
2022-05-17 18:28:05 GMT 51.467422 -0.480537 0 270 5
2022-05-17 18:27:59 GMT 51.467422 -0.480251 0 270 6
2022-05-17 18:27:56 GMT 51.467422 -0.480175 0 270 6
2022-05-17 18:27:47 GMT 51.467422 -0.479736 0 270 7
2022-05-17 18:27:44 GMT 51.467422 -0.479594 0 270 7
2022-05-17 18:27:42 GMT 51.467422 -0.479488 0 267 6
2022-05-17 18:27:40 GMT 51.467422 -0.479393 0 258 6
2022-05-17 18:27:39 GMT 51.467422 -0.479374 0 258 6
2022-05-17 18:27:36 GMT 51.467422 -0.479167 0 230 8
2022-05-17 18:27:27 GMT 51.467621 -0.478859 0 188 10
2022-05-17 18:27:20 GMT 51.468578 -0.478777 0 180 14
2022-05-17 18:27:09 GMT 51.468578 -0.478777 0 180 14
2022-05-17 18:27:04 GMT 51.468899 -0.478759 0 177 16
2022-05-17 18:27:03 GMT 51.469013 -0.478745 0 180 16
2022-05-17 18:27:00 GMT 51.469254 -0.478740 0 180 16
2022-05-17 18:26:57 GMT 51.469398 -0.478725 0 180 16
2022-05-17 18:26:53 GMT 51.469761 -0.478687 0 180 16
2022-05-17 18:26:50 GMT 51.469929 -0.478685 0 180 16
2022-05-17 18:26:47 GMT 51.470135 -0.478648 0 180 15
2022-05-17 18:26:44 GMT 51.470341 -0.478649 0 180 14
2022-05-17 18:26:42 GMT 51.470482 -0.478649 0 180 14
2022-05-17 18:26:40 GMT 51.470592 -0.478648 0 180 13
2022-05-17 18:26:38 GMT 51.470798 -0.478648 0 180 13
2022-05-17 18:26:36 GMT 51.470844 -0.478648 0 180 13
2022-05-17 18:26:33 GMT 51.471016 -0.478649 0 180 13
2022-05-17 18:26:31 GMT 51.471134 -0.478630 0 180 12
2022-05-17 18:26:29 GMT 51.471245 -0.478629 0 180 12
2022-05-17 18:26:23 GMT 51.471542 -0.478629 0 180 11
2022-05-17 18:26:22 GMT 51.471588 -0.478610 0 180 10
2022-05-17 18:26:18 GMT 51.471764 -0.478611 0 180 9
2022-05-17 18:26:17 GMT 51.471821 -0.478611 0 180 9
2022-05-17 18:26:12 GMT 51.471996 -0.478611 0 177 8
2022-05-17 18:26:07 GMT 51.472149 -0.478610 0 180 6
2022-05-17 18:26:04 GMT 51.472225 -0.478611 0 180 6
2022-05-17 18:25:59 GMT 51.472355 -0.478610 0 180 4
2022-05-17 18:25:53 GMT 51.472439 -0.478897 0 182 0
2022-05-17 18:25:35 GMT 51.472439 -0.478897 0 182 0
2022-05-17 18:25:32 GMT 51.472435 -0.478889 0 182 0
2022-05-17 18:25:21 GMT 51.472672 -0.478363 0 182 0
2022-05-17 18:25:09 GMT 51.472607 -0.478481 0 182 0
2022-05-17 18:24:57 GMT 51.472538 -0.478685 0 182 0
2022-05-17 18:24:51 GMT 51.472496 -0.478783 0 182 0
2022-05-17 18:24:16 GMT 51.472401 -0.478907 0 182 0
2022-05-17 18:24:11 GMT 51.472401 -0.478897 0 182 0
2022-05-17 18:21:20 GMT 51.472401 -0.478916 0 182 0
2022-05-17 18:20:21 GMT 51.472401 -0.478926 0 182 0
2022-05-17 18:20:10 GMT 51.472412 -0.478907 0 182 0
2022-05-17 18:20:09 GMT 51.472412 -0.478907 0 182 0
2022-05-17 18:20:08 GMT 51.472412 -0.478907 0 182 0
2022-05-17 18:20:04 GMT 51.472412 -0.478897 0 182 2
2022-05-17 18:20:02 GMT 51.472412 -0.478907 0 182 2
2022-05-17 18:20:00 GMT 51.472389 -0.478916 0 185 2
2022-05-17 18:19:58 GMT 51.472378 -0.478926 0 188 2
2022-05-17 18:19:56 GMT 51.472366 -0.478945 0 194 2
2022-05-17 18:19:52 GMT 51.472355 -0.478992 0 199 2
2022-05-17 18:19:50 GMT 51.472332 -0.479000 0 202 2
2022-05-17 18:19:49 GMT 51.472332 -0.479012 0 202 2
2022-05-17 18:19:44 GMT 51.472309 -0.479056 0 210 3
2022-05-17 18:19:42 GMT 51.472309 -0.479074 0 216 3
2022-05-17 18:19:40 GMT 51.472298 -0.479126 0 225 3
2022-05-17 18:19:39 GMT 51.472298 -0.479130 0 227 3
2022-05-17 18:19:36 GMT 51.472298 -0.479186 0 236 3
2022-05-17 18:19:33 GMT 51.472298 -0.479279 0 244 3
2022-05-17 18:19:27 GMT 51.472298 -0.479393 0 255 3
2022-05-17 18:19:25 GMT 51.472309 -0.479469 0 264 4
2022-05-17 18:19:24 GMT 51.472309 -0.479469 0 267 4
2022-05-17 18:19:23 GMT 51.472321 -0.479488 0 270 4
2022-05-17 18:19:21 GMT 51.472321 -0.479538 0 272 4
2022-05-17 18:19:19 GMT 51.472332 -0.479575 0 272 3
2022-05-17 18:19:17 GMT 51.472332 -0.479603 0 272 3
2022-05-17 18:19:16 GMT 51.472332 -0.479650 0 272 4
2022-05-17 18:19:12 GMT 51.472332 -0.479755 0 270 3
2022-05-17 18:19:09 GMT 51.472332 -0.479832 0 270 4
2022-05-17 18:19:07 GMT 51.472332 -0.479872 0 270 4
2022-05-17 18:19:03 GMT 51.472332 -0.479965 0 270 4
2022-05-17 18:19:00 GMT 51.472332 -0.480039 0 270 4
2022-05-17 18:18:59 GMT 51.472332 -0.480061 0 270 4
2022-05-17 18:18:56 GMT 51.472332 -0.480118 0 270 4
2022-05-17 18:18:54 GMT 51.472343 -0.480188 0 270 4
2022-05-17 18:18:53 GMT 51.472343 -0.480225 0 270 4
2022-05-17 18:18:49 GMT 51.472343 -0.480309 0 270 4
2022-05-17 18:18:46 GMT 51.472343 -0.480385 0 270 4
2022-05-17 18:18:42 GMT 51.472343 -0.480466 0 270 4
2022-05-17 18:18:40 GMT 51.472355 -0.480499 0 270 4
2022-05-17 18:18:38 GMT 51.472355 -0.480578 0 270 4
2022-05-17 18:18:34 GMT 51.472355 -0.480670 0 270 3
2022-05-17 18:18:32 GMT 51.472355 -0.480690 0 270 3
2022-05-17 18:18:30 GMT 51.472355 -0.480726 0 270 0
2022-05-17 18:18:09 GMT 51.472366 -0.480766 0 270 0
2022-05-17 18:17:59 GMT 51.472378 -0.480763 0 270 0
2022-05-17 18:17:55 GMT 51.472321 -0.480785 0 270 0
2022-05-17 18:17:50 GMT 51.472309 -0.480785 0 270 0
2022-05-17 18:17:40 GMT 51.472298 -0.480804 0 270 0
2022-05-17 18:17:35 GMT 51.472286 -0.480800 0 270 0

Making use of Plane Finder data

You are free to use the raw flight data, aircraft information and images provided in this report for your own purposes provided the data is correctly attributed to Plane Finder. We ask that you please credit Plane Finder and link to planefinder.net in close proximity to the content.

Optionally one of the following logos (no smaller then 150x24px) can be used and must link to planefinder.net

Embedding the Plane Finder map

You are welcome to embed the Plane Finder playback map on your website to offer visitors a more interactive experience. We suggest using the following HTML code:

<iframe src="//planefinder.net/data/report/BA558-G-EUYM-7700-squawk-2022-05-17/map" width="800" height="600" seamless="seamless"></iframe>

Where our data comes from

Plane Finder has a global network of data feeds and antenna radars that receive data broadcast directly from aircraft. The primary technologies used are ADS-B and MLAT. We also show feeds from the FAA and a FLARM glider feed.

Click here to find out more about the Plane Finder network.

How we collect our data